[[{"header":{"parameterUnit":"m.s-1","parameterCategory":1,"la1":30.6,"la2":29.2853,"lo1":-89.7004,"lo2":-87.6739,"dy":0.0162,"dx":0.0183,"nx":112,"ny":82,"refTime":"2023-10-26T18:00:00:Z","depth":0,"parameterNumber":2,"parameterNumberName":"U-component_of_WINDS"},"data":[0.0,0.0,0.0,0.0,0.0,0.0,0.0,0.0,0.0,0.0,0.0,0.0,0.0,0.0,0.0,0.0,0.0,0.0,0.0,0.0,0.0,0.0,0.0,0.0,0.0,0.0,0.0,0.0,0.0,0.0,0.0,0.0,0.0,0.0,0.0,0.0,0.0,0.0,0.0,0.0,0.0,0.0,0.0,0.0,0.0,0.0,0.0,0.0,0.0,0.0,0.0,0.0,0.0,0.0,0.0,0.0,0.0,0.0,0.0,0.0,0.0,0.0,0.0,0.0,0.0,0.0,0.0,0.0,0.0,0.0,0.0,0.0,0.0,0.0,0.0,0.0,0.0,0.0,0.0,0.0,0.0,0.0,0.0,0.0,0.0,0.0,0.0,0.0,0.0,0.0,-3.8464,-4.1749,-4.7537,-5.0995,-5.0597,-4.8493,-4.4613,-3.8478,0.0,0.0,0.0,0.0,0.0,0.0,0.0,0.0,0.0,0.0,0.0,0.0,0.0,0.0,0.0,0.0,0.0,0.0,0.0,0.0,0.0,0.0,0.0,0.0,0.0,0.0,0.0,0.0,0.0,0.0,0.0,0.0,0.0,0.0,0.0,0.0,0.0,0.0,0.0,0.0,0.0,0.0,0.0,0.0,0.0,0.0,0.0,0.0,0.0,0.0,0.0,0.0,0.0,0.0,0.0,0.0,0.0,0.0,0.0,0.0,0.0,0.0,0.0,0.0,0.0,0.0,0.0,0.0,0.0,0.0,0.0,0.0,0.0,0.0,0.0,0.0,0.0,0.0,0.0,0.0,0.0,0.0,0.0,0.0,0.0,0.0,0.0,0.0,0.0,0.0,0.0,0.0,0.0,0.0,0.0,0.0,0.0,0.0,0.0,0.0,0.0,0.0,0.0,0.0,-3.9425,-4.6275,-4.9126,-5.0265,-4.9597,-4.6193,-4.2237,-3.7864,0.0,0.0,0.0,0.0,0.0,0.0,0.0,0.0,0.0,0.0,0.0,0.0,0.0,0.0,0.0,0.0,0.0,0.0,0.0,0.0,0.0,0.0,0.0,0.0,0.0,0.0,0.0,0.0,0.0,0.0,0.0,0.0,0.0,0.0,0.0,0.0,0.0,0.0,0.0,0.0,0.0,0.0,0.0,0.0,0.0,0.0,0.0,0.0,0.0,0.0,0.0,0.0,0.0,0.0,0.0,0.0,0.0,0.0,0.0,0.0,0.0,0.0,0.0,0.0,0.0,0.0,0.0,0.0,0.0,0.0,0.0,0.0,0.0,0.0,0.0,0.0,0.0,0.0,0.0,0.0,0.0,0.0,0.0,0.0,0.0,0.0,0.0,0.0,0.0,0.0,0.0,0.0,0.0,0.0,0.0,0.0,0.0,0.0,0.0,0.0,0.0,0.0,0.0,-3.7216,-4.0018,-4.5996,-4.7534,-4.7713,-4.6685,-4.3257,-3.983,-3.6654,-3.4781,0.0,0.0,0.0,0.0,0.0,0.0,0.0,0.0,0.0,0.0,0.0,0.0,0.0,0.0,0.0,0.0,0.0,0.0,0.0,0.0,0.0,0.0,0.0,0.0,0.0,0.0,0.0,0.0,0.0,0.0,0.0,0.0,0.0,0.0,0.0,0.0,0.0,0.0,0.0,0.0,0.0,0.0,0.0,0.0,0.0,0.0,0.0,0.0,0.0,0.0,0.0,0.0,0.0,0.0,0.0,0.0,0.0,0.0,0.0,0.0,0.0,0.0,0.0,0.0,0.0,0.0,0.0,0.0,0.0,0.0,0.0,0.0,0.0,0.0,0.0,0.0,0.0,0.0,0.0,0.0,0.0,0.0,0.0,0.0,0.0,0.0,0.0,0.0,0.0,0.0,0.0,0.0,0.0,0.0,0.0,0.0,0.0,0.0,0.0,0.0,0.0,0.0,-3.9158,-4.0799,-4.4699,-4.5466,-4.5237,-4.4078,-4.0821,-3.786,-3.559,-3.2457,0.0,0.0,0.0,0.0,0.0,0.0,0.0,0.0,0.0,0.0,0.0,0.0,0.0,0.0,0.0,0.0,0.0,0.0,0.0,0.0,0.0,0.0,0.0,0.0,0.0,0.0,0.0,0.0,0.0,0.0,0.0,0.0,0.0,0.0,0.0,0.0,0.0,0.0,0.0,0.0,0.0,0.0,0.0,0.0,0.0,0.0,0.0,0.0,0.0,0.0,0.0,0.0,0.0,0.0,0.0,0.0,0.0,0.0,0.0,0.0,0.0,0.0,0.0,0.0,0.0,0.0,0.0,0.0,0.0,0.0,0.0,0.0,0.0,0.0,0.0,0.0,0.0,0.0,0.0,0.0,0.0,0.0,0.0,0.0,0.0,0.0,0.0,0.0,0.0,0.0,0.0,0.0,0.0,0.0,0.0,0.0,0.0,0.0,0.0,0.0,0.0,0.0,-3.9422,-4.2107,-4.4001,-4.4242,-4.3933,-4.3168,-3.9617,-3.6745,-3.5156,-3.157,0.0,0.0,0.0,0.0,0.0,0.0,0.0,0.0,0.0,0.0,0.0,0.0,0.0,0.0,0.0,0.0,0.0,0.0,0.0,0.0,0.0,0.0,0.0,0.0,0.0,0.0,0.0,0.0,0.0,0.0,0.0,0.0,0.0,0.0,0.0,0.0,0.0,0.0,0.0,0.0,0.0,0.0,0.0,0.0,0.0,0.0,0.0,0.0,0.0,0.0,0.0,0.0,0.0,0.0,0.0,0.0,0.0,0.0,0.0,0.0,0.0,0.0,0.0,0.0,0.0,0.0,0.0,0.0,0.0,0.0,0.0,0.0,0.0,0.0,0.0,0.0,0.0,0.0,0.0,0.0,0.0,0.0,0.0,0.0,0.0,0.0,0.0,0.0,0.0,0.0,0.0,0.0,0.0,0.0,0.0,0.0,0.0,0.0,0.0,0.0,0.0,0.0,-3.7415,-3.9758,-4.2278,-4.2535,-4.2055,-4.0857,-3.7706,-3.5134,-3.3607,0.0,0.0,0.0,0.0,0.0,0.0,0.0,0.0,0.0,0.0,0.0,0.0,0.0,0.0,0.0,0.0,0.0,0.0,0.0,0.0,0.0,0.0,0.0,0.0,0.0,0.0,0.0,0.0,0.0,0.0,0.0,0.0,0.0,0.0,0.0,0.0,0.0,0.0,0.0,0.0,0.0,0.0,0.0,0.0,0.0,0.0,0.0,0.0,0.0,0.0,0.0,0.0,0.0,0.0,0.0,0.0,0.0,0.0,0.0,0.0,0.0,0.0,0.0,0.0,0.0,0.0,0.0,0.0,0.0,0.0,0.0,0.0,0.0,0.0,0.0,0.0,0.0,0.0,0.0,0.0,0.0,0.0,0.0,0.0,0.0,0.0,0.0,0.0,0.0,0.0,0.0,0.0,0.0,0.0,0.0,0.0,0.0,0.0,0.0,0.0,0.0,0.0,-3.4061,-3.5857,-3.7874,-4.066,-4.0744,-4.012,-3.889,-3.5863,-3.3529,-3.2361,0.0,0.0,0.0,0.0,0.0,0.0,0.0,0.0,0.0,0.0,0.0,0.0,0.0,0.0,0.0,0.0,0.0,0.0,0.0,0.0,0.0,0.0,0.0,0.0,0.0,0.0,0.0,0.0,0.0,0.0,0.0,0.0,0.0,0.0,0.0,0.0,0.0,0.0,0.0,0.0,0.0,0.0,0.0,0.0,0.0,0.0,0.0,0.0,0.0,0.0,0.0,0.0,0.0,0.0,0.0,0.0,0.0,0.0,0.0,0.0,0.0,0.0,0.0,0.0,0.0,0.0,0.0,0.0,0.0,0.0,0.0,0.0,0.0,0.0,0.0,0.0,0.0,0.0,0.0,0.0,0.0,0.0,0.0,0.0,0.0,0.0,0.0,0.0,0.0,0.0,0.0,0.0,0.0,0.0,0.0,0.0,0.0,0.0,0.0,0.0,0.0,0.0,-3.3304,-3.51,-3.7064,-3.9345,-3.8925,-3.8209,-3.7546,-3.4162,-3.1958,0.0,0.0,0.0,0.0,0.0,0.0,0.0,0.0,0.0,0.0,0.0,0.0,0.0,0.0,0.0,0.0,0.0,0.0,0.0,0.0,0.0,0.0,0.0,0.0,0.0,0.0,0.0,0.0,0.0,0.0,0.0,0.0,0.0,0.0,0.0,0.0,0.0,0.0,0.0,0.0,0.0,0.0,0.0,0.0,0.0,0.0,0.0,0.0,0.0,0.0,0.0,0.0,0.0,0.0,0.0,0.0,0.0,0.0,0.0,0.0,0.0,0.0,0.0,0.0,0.0,0.0,0.0,0.0,0.0,0.0,0.0,0.0,0.0,0.0,0.0,0.0,0.0,0.0,0.0,0.0,0.0,0.0,0.0,0.0,0.0,0.0,0.0,0.0,0.0,0.0,0.0,0.0,0.0,0.0,0.0,0.0,0.0,0.0,0.0,0.0,0.0,0.0,0.0,-3.2043,-3.4368,-3.6511,-3.829,-3.8177,-3.7552,-3.6481,-3.3482,-3.1209,-3.0127,0.0,0.0,0.0,0.0,0.0,0.0,0.0,0.0,0.0,0.0,0.0,0.0,0.0,0.0,0.0,0.0,0.0,0.0,0.0,0.0,0.0,0.0,0.0,0.0,0.0,0.0,0.0,0.0,0.0,0.0,0.0,0.0,0.0,0.0,0.0,0.0,0.0,0.0,0.0,0.0,0.0,0.0,0.0,0.0,0.0,0.0,0.0,0.0,0.0,0.0,0.0,0.0,0.0,0.0,0.0,0.0,0.0,0.0,0.0,0.0,0.0,0.0,0.0,0.0,0.0,0.0,0.0,0.0,0.0,0.0,0.0,0.0,0.0,0.0,0.0,0.0,0.0,0.0,0.0,0.0,0.0,0.0,0.0,0.0,0.0,0.0,0.0,0.0,0.0,0.0,0.0,0.0,0.0,0.0,0.0,0.0,0.0,0.0,0.0,0.0,0.0,0.0,-3.1045,-3.3245,-3.5279,-3.7001,-3.7145,-3.6566,-3.5254,-3.2767,-3.0656,-2.9153,0.0,0.0,0.0,0.0,0.0,0.0,0.0,0.0,0.0,0.0,0.0,0.0,0.0,0.0,0.0,0.0,0.0,0.0,0.0,0.0,0.0,0.0,0.0,0.0,0.0,0.0,0.0,0.0,0.0,0.0,0.0,0.0,0.0,0.0,0.0,0.0,0.0,0.0,0.0,0.0,0.0,0.0,0.0,0.0,0.0,0.0,0.0,0.0,0.0,0.0,0.0,0.0,0.0,0.0,0.0,0.0,0.0,0.0,0.0,0.0,0.0,0.0,0.0,0.0,0.0,0.0,0.0,0.0,0.0,0.0,0.0,0.0,0.0,0.0,0.0,0.0,0.0,0.0,0.0,0.0,0.0,0.0,0.0,0.0,0.0,0.0,0.0,0.0,0.0,0.0,0.0,0.0,0.0,0.0,0.0,0.0,0.0,0.0,0.0,0.0,0.0,0.0,-3.0283,-3.1992,-3.3788,-3.5761,-3.5973,-3.5411,-3.4091,-3.212,-3.0247,-2.8618,0.0,0.0,0.0,0.0,0.0,0.0,0.0,0.0,0.0,0.0,0.0,0.0,0.0,0.0,0.0,0.0,0.0,0.0,0.0,0.0,0.0,0.0,0.0,0.0,0.0,0.0,0.0,0.0,0.0,0.0,0.0,0.0,0.0,0.0,0.0,0.0,0.0,0.0,0.0,0.0,0.0,0.0,0.0,0.0,0.0,0.0,0.0,0.0,0.0,0.0,0.0,0.0,0.0,0.0,0.0,0.0,0.0,0.0,0.0,0.0,-2.6048,-2.5453,0.0,0.0,0.0,0.0,0.0,0.0,0.0,0.0,0.0,0.0,0.0,0.0,0.0,0.0,0.0,0.0,0.0,0.0,0.0,0.0,0.0,0.0,0.0,0.0,0.0,0.0,0.0,0.0,0.0,0.0,0.0,0.0,0.0,0.0,0.0,0.0,0.0,0.0,0.0,0.0,-2.9713,-3.1936,-3.3998,-3.5601,-3.5668,-3.5125,-3.394,-3.1847,-2.9805,-2.7946,-2.593,0.0,0.0,0.0,0.0,0.0,0.0,0.0,0.0,0.0,0.0,0.0,0.0,0.0,0.0,0.0,0.0,0.0,0.0,0.0,0.0,0.0,0.0,0.0,0.0,0.0,0.0,0.0,0.0,0.0,0.0,0.0,0.0,0.0,0.0,0.0,0.0,0.0,0.0,0.0,0.0,0.0,0.0,0.0,0.0,0.0,0.0,0.0,0.0,0.0,0.0,0.0,0.0,0.0,0.0,0.0,0.0,0.0,0.0,0.0,-2.7907,-2.7128,0.0,0.0,0.0,0.0,0.0,0.0,0.0,0.0,0.0,0.0,0.0,0.0,0.0,0.0,0.0,0.0,0.0,0.0,0.0,0.0,0.0,0.0,0.0,0.0,0.0,0.0,0.0,0.0,0.0,0.0,0.0,0.0,0.0,0.0,0.0,0.0,0.0,0.0,0.0,0.0,-2.9702,-3.1437,-3.3229,-3.5235,-3.5474,-3.5117,-3.4223,-3.2437,-3.0401,-2.8115,-2.6148,0.0,0.0,0.0,0.0,0.0,0.0,0.0,0.0,0.0,0.0,0.0,0.0,0.0,0.0,0.0,0.0,0.0,0.0,0.0,0.0,0.0,0.0,0.0,0.0,0.0,0.0,0.0,0.0,0.0,0.0,0.0,0.0,0.0,0.0,0.0,0.0,0.0,0.0,0.0,0.0,0.0,0.0,0.0,0.0,0.0,0.0,0.0,0.0,0.0,0.0,0.0,0.0,0.0,-2.9671,-3.095,-3.2467,-3.1816,-3.131,-3.0925,-2.9715,-2.8836,-2.8137,-2.6696,0.0,0.0,0.0,0.0,0.0,0.0,0.0,0.0,0.0,0.0,0.0,0.0,0.0,0.0,0.0,0.0,0.0,0.0,0.0,0.0,0.0,0.0,-2.5691,-2.6617,-2.681,-2.6303,-2.4421,0.0,0.0,0.0,0.0,0.0,0.0,0.0,0.0,0.0,0.0,0.0,-2.9413,-3.0602,-3.2113,-3.449,-3.4887,-3.4676,-3.3925,-3.2632,-3.0789,-2.8312,-2.6386,-2.4566,0.0,0.0,0.0,0.0,0.0,0.0,0.0,0.0,0.0,0.0,0.0,0.0,0.0,0.0,0.0,0.0,0.0,0.0,0.0,0.0,0.0,0.0,0.0,0.0,0.0,0.0,0.0,0.0,0.0,0.0,0.0,0.0,-2.1517,-2.1823,0.0,0.0,0.0,0.0,0.0,0.0,0.0,0.0,0.0,0.0,0.0,0.0,0.0,-2.6109,-2.727,-2.9313,-3.0156,-2.9917,-3.1912,-3.2582,-3.2088,-3.1953,-3.2342,-3.2934,-3.1971,0.0,-2.7925,-2.6558,0.0,0.0,0.0,0.0,0.0,0.0,0.0,0.0,0.0,0.0,0.0,0.0,0.0,0.0,0.0,0.0,0.0,0.0,0.0,0.0,0.0,0.0,-2.8336,-2.7506,-2.7491,-2.7401,-2.6609,-2.5633,-2.4573,-2.351,-2.3047,-2.2979,0.0,0.0,0.0,0.0,0.0,0.0,-2.7561,-2.9509,-3.1391,-3.2772,-3.2961,-3.2535,-3.1389,-3.0564,-2.9285,-2.7322,-2.5936,-2.4666,-2.335,-2.2857,0.0,0.0,0.0,0.0,0.0,0.0,0.0,0.0,0.0,0.0,0.0,0.0,0.0,0.0,0.0,0.0,0.0,0.0,0.0,0.0,0.0,0.0,0.0,0.0,0.0,0.0,0.0,0.0,0.0,-2.0413,-2.1073,-2.0247,-2.0477,-2.0308,0.0,0.0,0.0,0.0,0.0,0.0,0.0,0.0,0.0,-2.6981,-2.7486,-2.7898,-2.8173,-2.9694,-3.0736,-3.1306,-3.2706,-3.3781,-3.4535,-3.4086,-3.3897,-3.3888,-3.2565,-3.1287,-3.0031,-2.831,-2.7349,-2.6841,0.0,0.0,0.0,0.0,-2.5711,-2.6389,-2.6731,-2.703,-2.7204,-2.689,0.0,0.0,0.0,0.0,0.0,0.0,0.0,-2.5871,-2.5642,-2.6894,-2.822,-2.8343,-2.8468,-2.8445,-2.8186,-2.7216,-2.5975,-2.4516,-2.4032,-2.3905,-2.3899,-2.3624,0.0,0.0,0.0,-2.6905,-2.8377,-2.9457,-3.0725,-3.2264,-3.2254,-3.1944,-3.1418,-3.0669,-2.9463,-2.7611,-2.5982,-2.4385,-2.2844,-2.2286,-2.178,0.0,0.0,0.0,0.0,0.0,0.0,0.0,0.0,0.0,0.0,0.0,0.0,0.0,0.0,0.0,0.0,0.0,0.0,0.0,0.0,0.0,0.0,0.0,0.0,0.0,0.0,0.0,0.0,-2.0741,-2.1023,-1.9382,-2.0635,-2.0943,0.0,0.0,0.0,0.0,0.0,0.0,-2.5317,-2.6637,-2.784,-2.8737,-2.9258,-2.9558,-2.9646,-3.0263,-3.1184,-3.2332,-3.2777,-3.3796,-3.5186,-3.4515,-3.4011,-3.3612,-3.2305,-3.1633,-3.1332,-2.9441,-2.8286,-2.7558,-2.6259,-2.5703,-2.5607,-2.6072,-2.6496,-2.6954,-2.7897,-2.8228,-2.8121,-2.7336,-2.7102,-2.6812,-2.4852,0.0,0.0,0.0,0.0,-2.6106,-2.6529,-2.7283,-2.8153,-2.8958,-2.9181,-2.9221,-2.9221,-2.8304,-2.6999,-2.5333,-2.4903,-2.4719,-2.4414,-2.4041,0.0,-2.499,-2.5603,-2.6559,-2.8176,-2.8752,-2.9516,-3.0864,-3.0921,-3.0729,-3.0465,-3.0023,-2.9005,-2.723,-2.5756,-2.415,-2.2359,-2.1823,-2.1238,-2.0573,0.0,0.0,0.0,0.0,0.0,0.0,0.0,0.0,0.0,0.0,0.0,0.0,0.0,0.0,0.0,0.0,0.0,0.0,0.0,0.0,0.0,0.0,0.0,0.0,0.0,0.0,0.0,0.0,0.0,-2.123,-2.3423,0.0,0.0,0.0,0.0,-2.3533,-2.4842,-2.6072,-2.7091,-2.8034,-2.9204,-3.0721,-3.0388,-3.0927,-3.2549,-3.2278,-3.2307,-3.2779,-3.2397,-3.2085,-3.1761,-3.1319,-3.1289,-3.1603,-3.1142,-3.0682,-3.0199,-2.8943,-2.9176,-3.0142,-2.8314,-2.8057,-2.8604,-2.7172,-2.7782,-2.9114,-2.7747,-2.7522,-2.7987,-2.8871,-2.7731,-2.5953,-2.5832,-2.4979,0.0,0.0,-2.5174,-2.6604,-2.6465,-2.782,-2.9237,-2.9285,-2.9448,-2.9557,-2.9557,-2.8484,-2.7053,-2.5571,-2.488,-2.4588,-2.4814,0.0,-2.4835,-2.49,-2.5793,-2.611,-2.5145,-2.6438,-2.7448,-2.7523,-2.7978,-2.7851,-2.686,-2.7205,-2.6766,-2.5061,-2.4852,-2.4073,-2.2385,-2.1785,-2.0983,-1.9875,-1.985,0.0,0.0,0.0,0.0,0.0,0.0,0.0,0.0,0.0,0.0,0.0,0.0,0.0,0.0,0.0,0.0,0.0,0.0,0.0,0.0,0.0,0.0,0.0,0.0,0.0,0.0,0.0,0.0,-2.3721,-2.5546,0.0,-2.4359,-2.4394,-2.4873,-2.5779,-2.6159,-2.7101,-2.8755,-2.9477,-3.0237,-3.107,-3.1645,-3.2009,-3.2086,-3.2387,-3.2373,-3.1973,-3.1826,-3.1533,-3.1103,-3.0957,-3.0976,-3.1103,-3.0957,-3.0625,-3.0127,-2.9459,-2.8973,-2.8625,-2.7976,-2.7712,-2.7666,-2.7091,-2.7512,-2.8177,-2.7061,-2.694,-2.7283,-2.7426,-2.6249,-2.4978,-2.5579,-2.524,-2.4625,-2.4556,-2.5308,-2.6103,-2.6021,-2.6535,-2.7054,-2.7054,-2.7549,-2.8064,-2.8064,-2.7818,-2.7428,-2.6675,-2.5652,-2.4909,-2.4993,-2.4475,-2.4236,-2.4921,-2.5059,-2.5186,-2.5475,-2.5723,-2.6166,-2.6886,-2.6489,-2.6131,-2.6119,-2.567,-2.4963,-2.4032,-2.3313,-2.2506,-2.1559,-2.0977,-2.0306,-1.9551,-1.9192,-1.9068,0.0,0.0,0.0,0.0,0.0,0.0,0.0,0.0,0.0,0.0,0.0,0.0,0.0,0.0,0.0,0.0,0.0,0.0,0.0,0.0,0.0,0.0,0.0,0.0,0.0,-2.3657,-2.5112,-2.4967,-2.7014,-2.7796,-2.6162,-2.626,-2.6806,-2.7665,-2.7908,-2.8595,-2.9948,-3.0619,-3.1077,-3.1361,-3.2018,-3.2186,-3.1927,-3.2146,-3.2057,-3.1571,-3.1351,-3.1003,-3.0587,-3.0558,-3.0412,-3.0276,-3.0382,-3.0185,-2.9746,-2.9463,-2.8769,-2.7881,-2.7881,-2.7695,-2.7432,-2.7285,-2.7412,-2.7571,-2.6514,-2.6348,-2.6486,-2.5906,-2.5002,-2.4249,-2.4855,-2.4735,-2.4357,-2.4357,-2.4829,-2.5368,-2.5368,-2.5568,-2.5777,-2.5777,-2.6165,-2.656,-2.6678,-2.6547,-2.6456,-2.6621,-2.6058,-2.5509,-2.5406,-2.4779,-2.4546,-2.5259,-2.5074,-2.5025,-2.5566,-2.5308,-2.5317,-2.5906,-2.5428,-2.5108,-2.5087,-2.4788,-2.4111,-2.3047,-2.2468,-2.1748,-2.0822,-2.06,-2.0131,-1.9406,-1.8829,-1.8829,-1.9394,0.0,0.0,0.0,0.0,0.0,0.0,0.0,0.0,0.0,0.0,0.0,0.0,0.0,0.0,0.0,0.0,0.0,0.0,0.0,0.0,0.0,0.0,0.0,-2.2197,-2.4888,-2.6253,-2.5064,-2.7825,-2.9059,-2.6971,-2.7965,-2.8832,-2.9229,-3.0042,-3.0505,-3.0594,-3.1342,-3.1768,-3.1759,-3.138,-3.156,-3.2292,-3.1569,-3.1423,-3.1721,-3.0996,-3.0398,-2.999,-2.9853,-2.9545,-2.9141,-2.9468,-2.9326,-2.8871,-2.8871,-2.8618,-2.8291,-2.8291,-2.8281,-2.8223,-2.7812,-2.7699,-2.7441,-2.6191,-2.5693,-2.5528,-2.4717,-2.4141,-2.3789,-2.3789,-2.3486,-2.3091,-2.3091,-2.3734,-2.4456,-2.4456,-2.5073,-2.5704,-2.5704,-2.5428,-2.5251,-2.5657,-2.4723,-2.4155,-2.5324,-2.596,-2.6214,-2.5926,-2.5863,-2.5851,-2.5875,-2.5838,0.0,-2.5148,-2.5074,-2.4878,-2.4349,-2.4767,-2.4657,-2.3599,-2.4435,-2.4103,-2.1977,-2.2309,-2.1866,-2.0266,-2.0683,-2.0434,-1.9419,-1.8739,-1.8727,-1.9394,0.0,0.0,0.0,0.0,0.0,0.0,0.0,0.0,0.0,0.0,0.0,0.0,0.0,0.0,0.0,0.0,0.0,0.0,0.0,0.0,0.0,-1.9845,-2.1662,-2.3512,-2.5986,-2.805,-2.921,-3.0487,-3.112,-3.0846,-3.0672,-3.0677,-3.1044,-3.0559,-3.0529,-3.1084,-3.1111,-3.0967,-3.0671,-3.1025,-3.1065,-3.0709,-3.1011,-3.1129,-3.0948,-3.0721,-3.0338,-2.9912,-2.9602,-2.9393,-2.9212,-2.9021,-2.8715,-2.8332,-2.8332,-2.8029,-2.7701,-2.813,-2.8105,-2.7822,-2.7757,-2.7327,-2.6689,-2.6338,-2.5791,-2.5215,-2.4971,-2.4394,-2.3789,-2.3789,-2.3486,-2.3091,-2.3091,-2.3309,-2.3474,-2.3474,-2.3647,-2.3854,-2.3854,-2.402,-2.4209,-2.4335,-2.4035,-2.3842,-2.4177,-2.4074,-2.4256,-2.53,-2.5139,-2.5018,-2.5405,-2.4846,-2.4314,-2.4168,-2.4156,-2.4096,-2.395,-2.4059,-2.4035,-2.3745,-2.2921,-2.2001,-2.1037,-2.0382,-1.9979,-1.9918,-1.9688,-1.9422,-1.9131,-1.8502,-1.8502,0.0,0.0,0.0,0.0,0.0,0.0,0.0,0.0,0.0,0.0,0.0,0.0,0.0,0.0,0.0,0.0,0.0,0.0,0.0,0.0,0.0,0.0,-1.9999,-2.183,-2.3748,-2.5596,-2.7276,-2.8685,-2.9852,-3.0665,-3.0893,-3.1037,-3.116,-3.1367,-3.083,-3.0468,-3.0553,-3.0576,-3.036,-2.9947,-3.0334,-3.0439,-3.0161,-3.0391,-3.0419,-3.0185,-3.0017,-2.9624,-2.9044,-2.8906,-2.8662,-2.8314,-2.82,-2.8019,-2.7801,-2.7801,-2.7649,-2.7413,0.0,0.0,0.0,0.0,-2.6538,-2.5936,-2.5849,-2.5333,-2.4625,-2.4441,-2.3844,-2.3204,-2.3204,-2.303,-2.2794,-2.2794,-2.2794,-2.2794,-2.2794,-2.2794,-2.2828,-2.2969,-2.2827,-2.279,-2.3074,-2.2695,-2.2422,-2.291,-2.2745,0.0,-2.4131,-2.4069,-2.3977,-2.4302,-2.3826,-2.3375,-2.3201,-2.2981,-2.2854,-2.2854,-2.3136,-2.3254,-2.2975,-2.2627,0.0,0.0,0.0,-1.9214,-1.9048,-1.8533,0.0,0.0,0.0,-1.8192,-1.8525,-1.8192,0.0,0.0,-1.8907,-1.9158,0.0,0.0,0.0,0.0,0.0,0.0,0.0,0.0,0.0,0.0,0.0,0.0,0.0,0.0,0.0,0.0,-1.98,-2.1496,-2.3155,-2.4141,-2.4945,-2.577,-2.748,-2.8588,-2.8631,-2.9811,-3.0665,-3.0665,-3.0746,-3.0497,-2.981,-3.0048,0.0,0.0,0.0,-2.9727,-3.0057,-2.969,-2.9507,-2.9498,-2.9149,-2.8599,-2.796,-2.8142,-2.7809,-2.712,-2.73,-2.7361,-2.7323,-2.7276,-2.7201,-2.7078,-2.682,-2.6721,-2.6579,-2.6047,-2.561,-2.5226,-2.5081,0.0,0.0,-2.3508,-2.2907,-2.2397,-2.2397,-2.2397,-2.2397,-2.2397,-2.2397,-2.2397,-2.2397,-2.2397,-2.2432,-2.2648,-2.194,-2.136,-2.1915,-2.1101,-2.0566,-2.1658,-2.1686,-2.1759,-2.2462,-2.2759,-2.2907,-2.2907,-2.2863,-2.2692,-2.2199,-2.1824,-2.1549,-2.1439,-2.216,0.0,-2.174,-2.2737,-2.2335,-1.9819,-1.9664,-1.9159,-1.8108,-1.7678,-1.7835,-1.8676,-1.8151,-1.7893,-1.7962,-1.7893,-1.7676,-1.7327,-1.8383,-1.8884,0.0,0.0,0.0,0.0,0.0,0.0,0.0,0.0,0.0,0.0,0.0,0.0,0.0,0.0,0.0,-1.8646,-2.0071,-2.1169,-2.1522,-2.2188,-2.3616,-2.6477,-2.7019,-2.7165,-2.7382,-2.8753,-2.9618,-2.9618,-3.0319,-3.0855,-3.102,-3.0497,-3.0167,-3.0085,-2.9745,-2.9461,-2.9223,-2.914,-2.9094,-2.9094,-2.9021,0.0,-2.8737,-2.8474,-2.8118,-2.7621,-2.7364,-2.7041,-2.6718,-2.6376,-2.5912,-2.5358,-2.6046,-2.6096,-2.5797,-2.5294,-2.5057,-2.4924,-2.4564,-2.4183,-2.3708,-2.329,-2.2827,-2.2397,-2.2397,-2.2397,0.0,-2.2397,-2.2397,-2.2397,-2.2397,-2.2397,-2.2312,-2.2068,-2.1603,-2.1157,-2.0952,-2.0438,-2.0039,-2.0272,-2.0034,-1.9821,-2.0001,-2.1345,-2.244,-2.244,-2.2158,-2.1765,-2.1247,-2.1739,-2.187,-2.1092,-2.1845,-2.2026,-2.1163,-2.0908,-2.0408,-1.9454,-1.9368,-1.9087,-1.8425,-1.8716,-1.8781,-1.8525,-1.7942,-1.79,-1.8384,-1.79,-1.7776,-1.8021,-1.8082,-1.8107,0.0,0.0,0.0,0.0,0.0,0.0,0.0,0.0,0.0,0.0,0.0,-1.6066,-1.675,0.0,-1.8591,-1.9633,-2.0535,-2.1162,-2.1309,-2.1583,-2.2453,-2.4174,-2.5139,-2.5631,-2.5623,-2.7186,-2.8114,-2.7814,-2.9202,-2.9864,-2.9528,-2.9913,-3.002,-2.9599,-2.9388,-2.9177,-2.8984,-2.8984,-2.8984,-2.8984,-2.8984,-2.8883,-2.8682,-2.8489,-2.8058,-2.7519,-2.726,-2.6949,-2.6573,-2.6362,-2.5855,-2.5166,-2.5813,-2.5624,-2.4877,-2.4761,-2.4686,-2.4679,-2.4371,-2.3947,-2.342,-2.3016,-2.2513,-2.2043,-2.2043,-2.2043,-2.2043,-2.2043,-2.2043,-2.2043,-2.2043,-2.1885,-2.1714,-2.1691,-2.1081,-2.0535,-2.0461,-2.0085,-1.9754,-1.9754,-1.9504,-1.9297,-1.9297,-1.9799,-2.0257,-2.0472,-2.0319,-2.0139,-1.9959,-2.0194,-2.0374,-2.041,-2.0779,-2.093,-2.0637,-1.9764,-1.9094,-1.8723,-1.8175,-1.7707,-1.7367,-1.7602,-1.7724,-1.7661,-1.7342,-1.7342,-1.7661,-1.7342,-1.7201,-1.7191,-1.7306,-1.7604,0.0,0.0,0.0,0.0,0.0,0.0,0.0,-1.5263,-1.5651,-1.6072,-1.6587,-1.7248,-1.8155,-1.8677,-1.9319,-2.0561,-2.1002,-2.1276,-2.1581,-2.1661,-2.1681,-2.1628,-2.3007,-2.3948,-2.3681,-2.5479,-2.6459,-2.5974,-2.7962,-2.8794,-2.8,-2.9066,-2.9433,-2.8862,-2.869,-2.8609,-2.8609,-2.8856,-2.8984,-2.8984,-2.8984,-2.8819,-2.8507,-2.8434,-2.7994,-2.7279,-2.69,-2.6379,-2.5791,-2.6018,-2.5702,-2.5129,-2.5667,-2.5258,-2.4321,-2.4511,-2.456,-2.4545,-2.4255,-2.3757,-2.314,-2.2732,-2.2197,-2.1696,-2.1696,-2.1696,-2.1696,-2.1696,-2.1696,-2.1696,-2.1696,-2.144,-2.1234,-2.1293,-2.0638,-2.0039,-2.0086,-1.9799,-1.9557,-1.9557,-1.9283,-1.9061,-1.9061,-1.8468,-1.8118,-1.8512,-1.8569,-1.8623,-1.8701,-1.8615,-1.8822,-1.9461,-1.9649,-1.9742,-1.9864,-1.8934,-1.824,-1.7999,-1.7139,-1.6577,-1.6466,-1.6443,-1.6595,-1.6925,-1.6925,-1.6925,-1.6925,-1.6925,-1.6755,-1.6411,-1.6741,-1.7269,-1.4179,-1.4104,-1.4352,-1.5023,-1.5057,-1.5497,0.0,-1.7629,-1.7602,-1.8754,-1.9178,-1.9446,-1.9579,-2.0054,-2.0568,-2.0995,-2.1309,-2.1581,-2.1614,-2.1842,-2.1844,-2.1648,-2.1804,-2.1991,-2.222,-2.3851,-2.4819,-2.4811,-2.7231,-2.8871,-2.9068,-2.8349,-2.8006,-2.8274,-2.7617,-2.7203,-2.7203,-2.843,-2.8984,-2.8984,-2.8984,-2.8966,-2.8902,-2.8553,-2.8141,-2.7655,-2.581,-2.4229,-2.2938,-2.4039,-2.4177,-2.3921,-2.5043,-2.5194,-2.4762,-2.4762,-2.4762,-2.4643,-2.3862,-2.3329,-2.2887,-2.2465,-2.2061,-2.1696,-2.1696,-2.1696,-2.1696,-2.1696,-2.1696,-2.1696,-2.1696,-2.1659,-2.144,-2.0759,-2.0521,-2.0255,-1.9571,-1.9378,-1.9341,-1.9341,-1.8735,-1.8229,-1.8229,-1.7871,-1.7693,-1.8107,-1.8178,-1.8055,-1.7729,-1.8577,-1.8985,-1.8356,-1.8944,-1.9086,-1.8414,-1.8222,-1.7957,-1.7584,-1.7459,-1.7362,-1.7362,-1.7362,-1.7391,-1.7438,-1.7438,-1.7438,-1.7438,-1.7438,-1.7298,-1.7104,-1.7117,-1.7081,-1.509,-1.5097,-1.5231,-1.5772,-1.6333,-1.7014,-1.8009,-1.8437,-1.8811,-1.9479,-1.9987,-2.0307,-2.0307,-2.0648,-2.0969,-2.1089,-2.1363,-2.1561,-2.1323,-2.1396,-2.137,-2.1139,-2.0889,-2.1036,-2.167,-2.2583,-2.2939,-2.2577,-2.4863,-2.6184,-2.5974,-2.6438,-2.6671,-2.663,-2.6122,-2.5851,-2.5851,-2.6399,-2.665,-2.665,-2.665,-2.665,-2.6633,-2.6329,-2.5897,-2.5303,-2.4207,-2.3398,-2.2808,-2.3308,-2.3528,-2.3665,-2.4421,-2.4359,-2.3872,-2.4572,-2.4629,-2.4349,-2.3435,-2.305,-2.2803,-2.2153,-2.1824,-2.1696,-2.1696,-2.1696,-2.1696,-2.1696,-2.1696,-2.1696,-2.1696,-2.1513,-2.1282,-2.0943,-2.0686,-2.0323,-1.9787,-1.9668,-1.9595,-1.9347,-1.8852,-1.8467,-1.8467,-1.8137,-1.7899,-1.8081,-1.8081,-1.8182,-1.8348,-1.8601,-1.8685,-1.8456,-1.8758,-1.872,-1.8159,-1.7894,-1.7641,-1.7332,-1.7314,-1.7279,-1.7151,-1.7151,-1.7151,-1.7151,-1.7151,-1.7151,-1.7151,-1.7151,-1.7116,-1.7038,-1.6807,-1.6733,-1.5651,-1.5825,-1.6079,-1.6627,-1.7528,-1.8295,-1.8535,-1.9212,-1.9786,-2.0,-2.0381,-2.0648,-2.0568,-2.0733,-2.0896,-2.0969,-2.1104,-2.1126,-2.0931,-2.0836,-2.0658,-2.0447,-2.0163,-2.0235,-2.0869,-2.1459,-2.1603,-2.1256,-2.3118,-2.4094,-2.3644,-2.463,-2.5111,-2.4972,-2.454,-2.4371,-2.4502,-2.481,-2.4994,-2.4994,-2.4994,-2.4994,-2.4978,-2.4595,-2.3945,-2.3006,-2.2671,-2.2251,-2.1884,-2.2214,-2.2474,-2.2761,-2.3394,-2.3216,-2.2747,-2.3493,-2.3648,-2.3382,-2.2804,-2.2551,-2.24,-2.1989,-2.1778,-2.1696,-2.1696,-2.1696,-2.1696,-2.1696,-2.1696,-2.1696,-2.1696,-2.1467,-2.1255,-2.1135,-2.0888,-2.0576,-2.0131,-2.0049,-1.9957,-1.9696,-1.932,-1.9045,-1.9045,-1.8777,-1.8585,-1.8585,-1.8676,-1.8762,-1.8749,-1.861,-1.8583,-1.8854,-1.8854,-1.8676,-1.815,-1.784,-1.7497,-1.7151,-1.7107,-1.7038,-1.6908,-1.6908,-1.6908,-1.6908,-1.6908,-1.6908,-1.6908,-1.6908,-1.6908,-1.6899,-1.6615,-1.6633,-1.5404,-1.5825,-1.654,-1.7649,-1.8395,-1.9061,-1.9914,-2.0414,-2.0641,-2.0648,-2.0668,-2.0588,-2.0301,-2.0249,-2.0289,-2.0563,-2.0367,-2.0208,-2.0469,-2.0093,-1.9736,-1.973,-1.9481,-1.9328,-1.9347,-2.0421,-2.1249,-2.1581,-2.2846,-2.3731,-2.3944,-2.3249,-2.3064,-2.3631,-2.3033,-2.2827,-2.3139,-2.4371,-2.4994,-2.4994,-2.4994,-2.4994,-2.497,-2.4333,-2.318,-2.1628,-2.1371,-2.0437,-1.9101,-2.0265,-2.0619,-2.0543,-2.168,-2.1887,-2.1502,-2.121,-2.1298,-2.1646,-2.1836,-2.1687,-2.1471,-2.2068,-2.1998,-2.1696,-2.1696,-2.1696,-2.1696,-2.1696,-2.1696,-2.1696,-2.1696,-2.1678,-2.1568,-2.1209,-2.1099,-2.0979,-2.0585,-2.0461,-2.0493,-2.0484,-2.0122,-1.9847,-1.9847,-1.9838,-1.9838,-1.9838,-2.0159,-1.9888,-1.8339,-1.8467,-1.8843,-1.9228,-1.9265,-1.8944,-1.8174,-1.8091,-1.7752,-1.6954,-1.6908,-1.6908,-1.6908,-1.6908,-1.6908,-1.6908,-1.6908,-1.6908,-1.6908,-1.6908,-1.6908,-1.6908,-1.6899,-1.6899,-1.5356,-1.6106,-1.7,-1.7759,-1.8513,-1.9255,-1.9746,-2.0076,-2.0173,-1.9847,-1.9592,-1.924,-1.8634,-1.8685,-1.8914,-1.9157,-1.9427,-1.9706,-2.0183,-1.9922,-1.961,-1.9475,-1.9146,-1.8974,-1.9041,-1.9562,-2.0022,-2.0307,-2.0904,-2.1381,-2.1686,-2.1384,-2.1318,-2.1553,-2.1367,-2.1348,-2.1411,-2.2097,-2.2404,-2.2404,-2.2198,-2.1946,-2.1534,-2.132,-2.0822,-2.012,-1.9816,-1.9403,-1.8905,-1.9152,-1.9483,-1.994,-2.0361,-2.031,-1.9918,-1.9638,-1.9184,-1.8781,-1.9892,-2.0148,-2.0134,-2.075,-2.0868,-2.0898,-2.1508,-2.1696,-2.1696,-2.1696,-2.1696,-2.1696,-2.1696,-2.1696,-2.1659,-2.1513,-2.1485,-2.141,-2.0998,-2.0906,-2.0833,-2.0567,-2.0369,-2.0278,-2.0278,-2.0278,-2.0278,-2.0278,-2.0387,-2.0278,-1.9747,-1.9824,-1.9962,-2.009,-1.9622,-1.9191,-1.8926,-1.8421,-1.7889,-1.733,-1.7293,-1.7183,-1.6917,-1.6908,-1.6908,-1.6908,-1.6908,-1.6908,-1.6908,-1.6908,-1.6908,-1.6899,-1.6642,-1.6652,-1.5945,-1.6757,-1.7596,-1.8357,-1.8864,-1.9324,-1.9617,-1.9668,-1.9496,-1.899,-1.8545,-1.803,-1.7341,-1.7383,-1.7576,-1.7716,-1.8126,-1.8592,-1.9243,-1.9105,-1.8974,-1.9087,-1.8794,-1.8626,-1.8692,-1.8849,-1.9085,-1.9509,-1.9802,-1.9972,-2.0161,-2.0044,-2.0094,-2.0325,-2.024,-2.0348,-2.0609,-2.0792,-2.0929,-2.0955,-2.0644,-2.0244,-1.978,-1.9668,-1.9509,-1.9376,-1.9034,-1.8865,-1.8744,-1.845,-1.8577,-1.8968,-1.8968,-1.8847,-1.8627,-1.8322,-1.78,-1.7381,-1.8585,-1.8891,-1.8941,-1.9646,-1.985,-1.9886,-2.0492,-2.0673,-2.0673,-2.0673,-2.0907,-2.1177,-2.1177,-2.1463,-2.1696,-2.1696,-2.1696,-2.1623,-2.1392,-2.1328,-2.1255,-2.0955,-2.0909,-2.0909,-2.0909,-2.0909,-2.0909,-2.0909,-2.0909,-2.0799,-2.0558,-2.0521,-2.0521,-2.0521,-1.9925,-1.9467,-1.9311,-1.8705,-1.8155,-1.7743,-1.7715,-1.7605,-1.7348,-1.7202,-1.711,-1.711,-1.6972,-1.6908,-1.6908,-1.6908,-1.6908,-1.6899,-1.6642,-1.6661,-1.7129,-1.7736,-1.8241,-1.9352,-1.9464,-1.9318,-1.9566,-1.9184,-1.8618,-1.8122,-1.7529,-1.6996,-1.6375,-1.6273,-1.634,-1.6377,-1.6606,-1.7038,-1.7841,-1.7732,-1.7853,-1.8632,-1.8493,-1.833,-1.833,-1.833,-1.8631,-1.9212,-1.945,-1.9565,-1.9577,-1.9264,-1.9386,-1.9915,-1.972,-1.9903,-2.0545,-2.0609,-2.0585,-2.0593,-2.0352,-2.0009,-1.9709,-1.9416,-1.9279,-1.9246,-1.8979,-1.8688,-1.8464,-1.8095,-1.7796,-1.7582,-1.7582,-1.7582,-1.7549,-1.7306,-1.7199,-1.7313,-1.7925,-1.7947,-1.7856,-1.8814,-1.8918,-1.8742,-1.8788,-1.8788,-1.8788,-1.8788,-1.9476,-2.0204,-2.0204,-2.0898,-2.1642,-2.1642,-2.1687,-2.1696,-2.1696,-2.1696,-2.1696,-2.1696,-2.1696,-2.1696,-2.1696,-2.1696,-2.1696,-2.1696,-2.1696,-2.1412,-2.0644,-2.0543,-2.0543,-2.0543,-2.0186,-1.9783,-1.9402,-1.8999,-1.8557,-1.8145,-1.8118,-1.8109,-1.8091,-1.7715,-1.7495,-1.7495,-1.711,-1.6908,-1.6908,-1.6908,-1.6908,-1.6908,-1.6908,-1.6908,-1.7297,-1.812,-1.879,-1.8674,-1.8588,-1.8496,-1.841,-1.7815,-1.7134,-1.6581,-1.582,-1.5084,-1.4354,-1.485,-1.5497,-1.5954,-1.6895,-1.7919,-1.8921,-1.8837,-1.8819,-1.9217,-1.9036,-1.8879,-1.8879,-1.8879,-1.8858,-1.8845,-1.8892,-1.8994,-1.9194,-1.9136,-1.9172,-1.9303,-1.9493,-1.9705,-1.9833,-2.0348,-2.0292,-1.9669,-1.9804,-1.9484,-1.8756,-1.8679,-1.864,-1.8608,-1.8115,-1.7993,-1.8105,-1.76,-1.7503,-1.7582,-1.7582,-1.7582,-1.7549,-1.7306,-1.7199,-1.7244,-1.7418,-1.71,-1.6815,-1.7523,-1.7759,-1.7831,-1.8565,-1.8788,-1.8788,-1.8788,-1.8972,-1.9201,-1.9201,-1.994,-2.0673,-2.0673,-2.1177,-2.1696,-2.1696,-2.1696,-2.1696,-2.1696,-2.1696,-2.1696,-2.1696,-2.1696,-2.1696,-2.1696,-2.1696,-2.1623,-2.1403,-2.1376,-2.1376,-2.1376,-2.101,-2.064,-2.0246,-1.9852,-1.9271,-1.8605,-1.8568,-1.8393,-1.81,-1.7715,-1.7495,-1.7495,-1.711,-1.6908,-1.6908,-1.6908,-1.6908,-1.6908,-1.6908,-1.6908,-1.8002,-1.8714,-1.9151,-1.874,-1.8372,-1.7974,-1.7473,-1.6742,-1.5988,-1.5324,-1.4625,-1.3966,-1.3417,-1.3987,-1.4674,-1.5101,-1.6115,-1.7286,-1.8583,-1.8638,-1.8825,-1.9561,-1.941,-1.9247,-1.9247,-1.9145,-1.9012,-1.8867,-1.8855,-1.8873,-1.8903,-1.9012,-1.9024,-1.8909,-1.9087,-1.9222,-1.9224,-1.9794,-1.9694,-1.913,-1.9143,-1.886,-1.8194,-1.8194,-1.8194,-1.8221,-1.778,-1.7755,-1.7981,-1.7407,-1.7384,-1.7582,-1.7582,-1.7582,-1.7562,-1.7454,-1.7393,-1.7373,-1.7246,-1.6985,-1.6706,-1.694,-1.6937,-1.694,-1.7355,-1.7601,-1.7712,-1.7712,-1.8042,-1.8371,-1.8371,-1.8999,-1.9658,-1.9658,-2.0031,-2.0447,-2.0447,-2.0447,-2.0447,-2.0447,-2.0447,-2.0447,-2.0447,-2.0808,-2.1087,-2.1087,-2.1454,-2.1696,-2.1696,-2.1696,-2.1696,-2.1696,-2.1355,-2.1016,-2.0796,-2.0214,-1.9692,-1.9274,-1.9072,-1.8871,-1.865,-1.8247,-1.7944,-1.777,-1.7367,-1.7082,-1.6908,-1.6908,-1.6908,-1.6908,-1.6908,-1.6908,-1.8885,-1.9295,-1.9434,-1.906,-1.8366,-1.7563,-1.6773,-1.5916,-1.5077,-1.4346,-1.3773,-1.3338,-1.3109,-1.3525,-1.4026,-1.4395,-1.5131,-1.6211,-1.7811,-1.8034,-1.8505,-1.9784,-1.9694,-1.9602,-1.9567,-1.9301,-1.9126,-1.9126,-1.9096,-1.8976,-1.8752,-1.8921,-1.8903,-1.8644,-1.8632,-1.8647,-1.8717,-1.9071,-1.9054,-1.8781,-1.8548,-1.8233,-1.7908,-1.7908,-1.7908,-1.7941,-1.7654,-1.7701,-1.7978,-1.7412,-1.7384,-1.7642,-1.7602,-1.7582,-1.7582,-1.7582,-1.7582,-1.7549,-1.7347,-1.7259,-1.7206,-1.6814,-1.6533,-1.6279,-1.6025,-1.6126,-1.6333,-1.6333,-1.6981,-1.7623,-1.7623,-1.808,-1.8603,-1.8603,-1.8703,-1.8788,-1.8788,-1.8788,-1.8804,-1.8851,-1.8819,-1.8788,-1.8788,-1.9521,-2.013,-2.0135,-2.0843,-2.1338,-2.1347,-2.1544,-2.1696,-2.1696,-2.141,-2.1172,-2.1108,-2.0484,-2.0021,-1.9966,-1.9613,-1.9384,-1.9384,-1.8953,-1.855,-1.8173,-1.7789,-1.7413,-1.7073,-1.7073,-1.7073,-1.7064,-1.7009,-1.7009,-1.9036,-1.9434,-1.9591,-1.8662,-1.7823,-1.702,-1.6211,-1.5071,-1.4081,-1.3725,-1.3218,-1.2831,-1.2783,-1.3399,-1.4208,-1.5137,-1.5964,-1.705,-1.8644,-1.8867,-1.9199,-2.0104,-1.9977,-1.9899,-2.0116,-1.9688,-1.9398,-1.9398,-1.9199,-1.9054,-1.9012,-1.8843,-1.8632,-1.8366,-1.836,-1.8397,-1.8416,-1.8711,-1.8629,-1.8057,-1.8309,-1.8107,-1.7602,-1.7602,-1.7602,-1.7584,-1.7274,-1.7477,-1.7944,-1.7382,-1.743,-1.7889,-1.7682,-1.7582,-1.7582,-1.7582,-1.7582,-1.7575,-1.7522,-1.7508,-1.7422,-1.6881,-1.6673,-1.662,-1.6573,-1.6587,-1.6627,-1.6627,-1.6601,-1.6565,-1.6565,-1.7044,-1.7559,-1.7559,-1.8195,-1.8788,-1.8788,-1.8788,-1.8875,-1.9114,-1.894,-1.8788,-1.8788,-1.8926,-1.916,-1.9357,-1.9342,-1.9399,-1.9599,-2.0828,-2.1696,-2.1696,-2.1632,-2.144,-2.1135,-2.0979,-2.0769,-2.0438,-2.0003,-1.9783,-1.9783,-1.9109,-1.8678,-1.8614,-1.8219,-1.7944,-1.7871,-1.7871,-1.7871,-1.7871,-1.7559,-1.7578,-1.9458,-1.9688,-1.9664,-1.8728,-1.7787,-1.6809,-1.5728,-1.4666,-1.3749,-1.3206,-1.2886,-1.2705,-1.2705,-1.3254,-1.3918,-1.4564,-1.5234,-1.6272,-1.8004,-1.8366,-1.8903,-2.0128,-2.0044,-1.9935,-2.0062,-1.9585,-1.9265,-1.9265,-1.9145,-1.9078,-1.9078,-1.8698,-1.8354,-1.8082,-1.7943,-1.7871,-1.7871,-1.8051,-1.7984,-1.7672,-1.785,-1.7789,-1.7485,-1.7485,-1.7485,-1.7473,-1.7207,-1.7322,-1.7697,-1.7452,-1.7521,-1.7807,-1.7822,-1.7722,-1.7582,-1.7582,-1.7582,-1.7582,-1.7582,-1.7582,-1.7535,-1.7255,-1.7061,-1.6907,-1.6754,-1.6814,-1.6934,-1.6934,-1.6891,-1.6777,-1.6777,-1.6902,-1.7009,-1.7009,-1.7341,-1.7719,-1.7719,-1.7719,-1.7712,-1.7698,-1.7574,-1.7414,-1.7246,-1.7834,-1.8329,-1.8441,-1.8948,-1.9233,-1.9209,-1.9909,-2.0334,-2.0192,-2.0175,-2.009,-1.9903,-1.9715,-1.9492,-1.9314,-1.8948,-1.8693,-1.8693,-1.8609,-1.8457,-1.8224,-1.7923,-1.7632,-1.7437,-1.6968,-1.696,-1.7428,-1.7234,-1.7474,-1.967,-1.9796,-1.9676,-1.8819,-1.7841,-1.6742,-1.5409,-1.4485,-1.3676,-1.2868,-1.2705,-1.2705,-1.2705,-1.3055,-1.3465,-1.3845,-1.431,-1.5258,-1.7062,-1.7642,-1.8408,-1.9851,-1.9887,-1.9796,-1.9796,-1.9356,-1.9078,-1.9078,-1.9024,-1.8988,-1.8988,-1.8547,-1.8167,-1.7883,-1.7618,-1.7485,-1.7485,-1.7485,-1.7485,-1.7485,-1.7485,-1.7485,-1.7485,-1.7485,-1.7485,-1.7473,-1.7267,-1.7356,-1.7625,-1.7685,-1.7678,-1.7681,-1.7907,-1.7896,-1.7675,-1.7609,-1.7622,-1.7662,-1.7602,-1.7582,-1.7582,-1.7582,-1.7481,-1.7253,-1.6967,-1.7061,-1.7293,-1.7293,-1.7246,-1.7199,-1.7199,-1.6927,-1.6707,-1.6707,-1.6707,-1.6727,-1.6787,-1.6747,-1.6653,-1.6543,-1.6406,-1.6293,-1.6059,-1.6884,-1.7601,-1.7672,-1.8453,-1.8979,-1.8789,-1.8684,-1.8493,-1.8279,-1.8604,-1.8788,-1.8788,-1.8504,-1.8345,-1.8345,-1.796,-1.7727,-1.7727,-1.8065,-1.8037,-1.7678,-1.751,-1.7223,-1.6787,-1.6147,-1.6139,-1.671,-1.6626,-1.6979,-1.9211,-1.9513,-1.9633,-1.8589,-1.7708,-1.6742,-1.5409,-1.4485,-1.3676,-1.2868,-1.2705,-1.2705,-1.2705,-1.2747,-1.3025,-1.3785,-1.4147,-1.4908,-1.6543,-1.7406,-1.8203,-1.9084,-1.9374,-1.9572,-1.9572,-1.9247,-1.9078,-1.9078,-1.8855,-1.8722,-1.8722,-1.845,-1.8167,-1.7883,-1.7618,-1.7485,-1.7485,-1.7485,-1.7485,-1.7485,-1.7485,-1.7485,-1.7485,-1.7485,-1.7485,-1.7485,-1.7455,-1.763,-1.7969,-1.7976,-1.7967,-1.7962,-1.798,-1.7975,-1.7916,-1.7689,-1.7749,-1.7936,-1.7669,-1.7582,-1.7582,-1.7582,-1.7562,-1.7542,-1.7508,-1.7522,-1.7542,-1.7542,-1.7407,-1.7199,-1.7199,-1.6927,-1.6707,-1.6707,-1.6707,-1.678,-1.7099,-1.6894,-1.6774,-1.7072,-1.6854,-1.666,-1.6627,-1.6697,-1.6904,-1.7231,-1.7113,-1.7089,-1.734,-1.6891,-1.6545,-1.6524,-1.7911,-1.8788,-1.8788,-1.8764,-1.874,-1.874,-1.8377,-1.8142,-1.8142,-1.7838,-1.7525,-1.7167,-1.7445,-1.7305,-1.6725,-1.6871,-1.6781,-1.6424,-1.6078,-1.6006,-1.7832,-1.8818,-1.9416,-1.8517,-1.7443,-1.6344,-1.5336,-1.4238,-1.3296,-1.2807,-1.2705,-1.2705,-1.2705,-1.2705,-1.2807,-1.3127,-1.3272,-1.3785,-1.5071,-1.5807,-1.6742,-1.8185,-1.8595,-1.8945,-1.9422,-1.9229,-1.9012,-1.8849,-1.874,-1.8613,-1.8456,-1.8191,-1.7919,-1.7648,-1.7539,-1.7485,-1.7485,-1.7485,-1.7485,-1.7485,-1.7485,-1.7485,-1.7485,-1.7485,-1.7485,-1.7485,-1.7485,-1.7602,-1.7719,-1.7907,-1.7982,-1.7974,-1.803,-1.7917,-1.7752,-1.7802,-1.7709,-1.7562,-1.7789,-1.7742,-1.7582,-1.7582,-1.7582,-1.7582,-1.7582,-1.7716,-1.7822,-1.7635,-1.7635,-1.7642,-1.7462,-1.7321,-1.7235,-1.7235,-1.7235,-1.7268,-1.7434,-1.7315,-1.7215,-1.7213,-1.7105,-1.6914,-1.6734,-1.6854,-1.7065,-1.7186,-1.7194,-1.7215,-1.7206,-1.6998,-1.6784,-1.6553,-1.6821,-1.6983,-1.6983,-1.6983,-1.6983,-1.6983,-1.6829,-1.6757,-1.6757,-1.6942,-1.7011,-1.6883,-1.6815,-1.6701,-1.648,-1.5727,-1.554,-1.5868,-1.5369,-1.5446,-1.6138,-1.7165,-1.7929,-1.7184,-1.6333,-1.5503,-1.4669,-1.3844,-1.3045,-1.2428,-1.2491,-1.2619,-1.2357,-1.2528,-1.2705,-1.2705,-1.2777,-1.3169,-1.4159,-1.4763,-1.568,-1.7219,-1.7648,-1.8131,-1.8921,-1.8976,-1.8885,-1.8698,-1.8535,-1.8366,-1.8179,-1.7907,-1.7708,-1.7605,-1.7521,-1.7485,-1.7485,-1.7485,-1.7485,-1.7485,-1.7485,-1.7485,-1.7485,-1.7485,-1.7485,-1.7485,-1.7485,-1.7485,-1.7531,-1.7757,-1.7796,-1.7748,-1.7826,-1.7796,-1.761,-1.781,-1.7657,-1.746,-1.7771,-1.7754,-1.7609,-1.7609,-1.7602,-1.7582,-1.7582,-1.7736,-1.7862,-1.7642,-1.7742,-1.7856,-1.7642,-1.7582,-1.7582,-1.7582,-1.7582,-1.7582,-1.7582,-1.7582,-1.7522,-1.7367,-1.7326,-1.7259,-1.7001,-1.7141,-1.7326,-1.7326,-1.7507,-1.7508,-1.7353,-1.7253,-1.7119,-1.686,-1.6386,-1.6052,-1.5965,-1.5879,-1.5784,-1.5784,-1.5784,-1.5784,-1.5784,-1.6225,-1.638,-1.6197,-1.6116,-1.5922,-1.5695,-1.4692,-1.4458,-1.4909,-1.4436,-1.449,-1.4088,-1.4427,-1.4683,-1.3992,-1.4166,-1.4147,-1.3263,-1.3269,-1.3087,-1.1641,-1.2057,-1.24,-1.1499,-1.2057,-1.2705,-1.2705,-1.2934,-1.3393,-1.4183,-1.4763,-1.5403,-1.6205,-1.6543,-1.7026,-1.7817,-1.8372,-1.8686,-1.8686,-1.8185,-1.7883,-1.7877,-1.763,-1.7605,-1.7859,-1.7618,-1.7485,-1.7485,-1.7485,-1.7485,-1.7485,-1.7485,-1.7485,-1.7485,-1.7485,-1.7485,-1.7485,-1.7485,-1.7485,-1.7519,-1.7599,-1.7384,-1.7129,-1.7477,-1.7588,-1.7581,-1.7536,-1.7687,-1.7958,-1.7638,-1.7563,-1.7597,-1.7597,-1.7615,-1.7582,-1.7582,-1.7589,-1.7589,-1.7582,-1.7589,-1.7589,-1.7582,-1.7582,-1.7582,-1.7582,-1.7582,-1.7582,-1.7582,-1.7582,-1.7582,-1.7582,-1.7582,-1.7575,-1.7575,-1.7575,-1.7582,-1.7582,-1.7582,-1.7582,-1.7582,-1.738,-1.7199,-1.7199,-1.6874,-1.658,-1.6342,-1.5999,-1.5784,-1.5784,-1.5784,-1.5784,-1.5784,-1.5825,-1.5544,-1.5021,-1.5342,-1.5071,-1.4205,-1.4224,-1.3983,-1.3492,-1.3225,-1.2966,-1.1991,-1.2843,-1.3529,-1.3176,-1.2707,-1.2309,-1.1833,-1.183,-1.168,-1.0564,-1.1101,-1.1671,-1.1365,-1.1542,-1.2029,-1.2828,-1.3023,-1.3227,-1.3701,-1.4389,-1.5203,-1.6181,-1.7497,-1.8348,-1.842,-1.8583,-1.8529,-1.8161,-1.7974,-1.7793,-1.7618,-1.7527,-1.7521,-1.7605,-1.7527,-1.7485,-1.7485,-1.7485,-1.7485,-1.7485,-1.7485,-1.7485,-1.7485,-1.7485,-1.7485,-1.7485,-1.7485,-1.7485,-1.7479,-1.7505,-1.7483,-1.7446,-1.7316,-1.7309,-1.7357,-1.7501,-1.747,-1.7434,-1.7748,-1.769,-1.7559,-1.778,-1.788,-1.7917,-1.8142,-1.8063,-1.7849,-1.7849,-1.7849,-1.7849,-1.7635,-1.7582,-1.7582,-1.7582,-1.7582,-1.7582,-1.7582,-1.7582,-1.7582,-1.7582,-1.7582,-1.7582,-1.7582,-1.7582,-1.7582,-1.7582,-1.7582,-1.7582,-1.7582,-1.7554,-1.7442,-1.7442,-1.7033,-1.6612,-1.6313,-1.6186,-1.5997,-1.5601,-1.5737,-1.5642,-1.5315,-1.5499,-1.5406,-1.5085,-1.5175,-1.5089,-1.4816,-1.4433,-1.3919,-1.3203,-1.3124,-1.2978,-1.0047,-1.0813,-1.1389,-1.1094,-1.0802,-1.05,-1.0258,-1.0416,-1.0336,-0.9436,-1.0013,-1.059,-1.0243,-1.0484,-1.1154,-1.2232,-1.2435,-1.2547,-1.294,-1.3886,-1.4992,-1.6163,-1.7672,-1.8517,-1.8257,-1.842,-1.8354,-1.7907,-1.7781,-1.7654,-1.7491,-1.7388,-1.7334,-1.7334,-1.743,-1.7485,-1.7485,-1.7485,-1.7485,-1.7485,-1.7485,-1.7485,-1.7485,-1.7485,-1.7424,-1.734,-1.7443,-1.737,0.0,-1.7189,-1.7201,-1.7252,-1.6919,-1.6864,-1.7055,-1.7222,-1.7136,-1.703,-1.7471,-1.7535,-1.7372,-1.7696,-1.7811,-1.7919,-1.8207,-1.827,-1.8217,-1.8217,-1.8217,-1.8143,-1.7836,-1.7756,-1.7729,-1.7609,-1.7582,-1.7582,-1.7582,-1.7582,-1.7582,-1.7582,-1.7582,-1.7582,-1.7582,-1.7582,-1.7582,-1.7582,-1.7529,-1.743,-1.743,-1.7318,-1.7259,-1.7259,-1.6898,-1.6607,-1.634,-1.6308,-1.6068,-1.5531,-1.5704,-1.561,-1.5137,-1.5267,-1.522,-1.4939,-1.4939,-1.4885,-1.479,-1.4368,-1.3832,-1.3272,-1.3169,-1.3031,0.0,-0.8524,-0.8605,-0.8258,-0.8519,-0.882,-0.8664,-0.9051,0.0,-0.8222,-0.8864,-0.9339,-0.8475,-0.9117,-1.0111,-1.1105,-1.1246,-1.143,-1.2046,-1.3335,-1.4657,-1.5964,-1.7088,-1.7661,-1.7244,-1.7763,-1.8021,-1.7745,-1.7499,-1.7414,-1.7455,-1.7225,-1.708,-1.7062,-1.7298,-1.7436,-1.7455,-1.7455,-1.7461,-1.7485,-1.7485,-1.7461,-1.7424,-1.7424,-1.7274,-1.702,-1.7286,-1.7123,-1.6676,-1.6712,-1.6706,-1.6646,-1.6404,-1.6466,-1.6648,-1.6691,-1.6698,-1.6747,-1.7007,-1.7076,-1.7142,-1.7427,-1.7558,-1.7683,-1.7968,-1.8257,-1.8457,-1.8457,-1.8457,-1.8397,-1.8062,-1.7975,-1.7889,-1.7649,-1.7582,-1.7582,-1.7582,-1.7582,-1.7589,-1.7609,-1.7595,-1.7589,-1.7609,-1.7595,-1.7582,-1.7582,-1.7384,-1.7179,-1.7179,-1.6895,-1.6677,-1.6677,-1.6677,-1.6575,-1.6316,-1.6311,-1.6064,-1.5515,-1.5729,-1.5599,-1.5096,-1.5083,-1.4939,-1.4694,-1.4688,-1.4544,-1.4298,-1.4051,-1.3797,-1.3538,-1.3252,-1.3169,-0.8087,0.0,-0.76,-0.7296,-0.725,-0.724,0.0,-0.7848,-0.8205,-0.7348,-0.7951,-0.8653,-0.8669,-0.8777,-0.9244,-1.0534,-1.0768,-1.0876,-1.1236,-1.2337,-1.3446,-1.4167,-1.572,-1.6139,-1.4657,-1.5731,-1.6458,-1.6153,-1.6081,-1.6381,-1.7137,-1.7123,-1.7002,-1.6797,-1.6857,-1.6984,-1.7183,-1.7183,-1.7286,-1.7485,-1.7485,-1.7274,-1.6881,-1.6881,-1.6622,-1.6187,-1.6447,-1.6489,-1.641,-1.6827,-1.6754,-1.6392,-1.6543,-1.6526,-1.6399,-1.6411,-1.6659,-1.7007,-1.6815,-1.6938,-1.7143,-1.7453,-1.7762,-1.8046,-1.8273,-1.8277,-1.8095,-1.8095,-1.8095,-1.8082,-1.8009,-1.7869,-1.7669,-1.7602,-1.7582,-1.7582,-1.7582,-1.7582,-1.7655,-1.7896,-1.7749,-1.7655,-1.7896,-1.7742,-1.7529,-1.7331,-1.7226,-1.712,-1.6842,-1.673,-1.6677,-1.6677,-1.653,-1.6352,-1.6284,-1.6289,-1.5961,-1.522,-1.5441,-1.5265,-1.4502,-1.4688,-1.4688,-1.4394,-1.4394,-1.4346,-1.4298,-1.4238,-1.4069,-1.3809,-1.3749,-1.3616,-0.7848,-0.7749,-0.7678,-0.7324,-0.7068,-0.6902,-0.6902,-0.7098,-0.7155,-0.6726,-0.7076,-0.753,-0.7786,-0.7844,-0.8278,-0.9581,-0.9841,-1.022,-1.1133,-1.1654,-1.2376,-1.3466,-1.463,-1.4927,-1.3959,-1.4625,-1.5038,-1.4753,-1.4641,-1.5056,-1.6166,-1.6051,-1.6148,-1.6513,-1.6278,-1.6453,-1.7086,-1.6972,-1.6984,-1.7123,-1.7243,-1.696,-1.6338,-1.6585,-1.6338,-1.5741,-1.6247,-1.6332,-1.6145,-1.6688,-1.6736,-1.6465,-1.6368,-1.6308,-1.6266,-1.6145,-1.6284,-1.6537,-1.6513,-1.6688,-1.6944,-1.7303,-1.7506,-1.7673,-1.8003,-1.7859,-1.7768,-1.8282,-1.8395,-1.8362,-1.8283,-1.8223,-1.813,-1.7856,-1.7903,-1.8003,-1.8003,-1.8003,-1.805,-1.8217,-1.8001,-1.7787,-1.782,-1.758,-1.7263,-1.7027,-1.6855,-1.6793,-1.67,-1.6499,-1.6411,-1.6665,-1.6359,-1.616,-1.6282,-1.6196,-1.5863,-1.5342,-1.5525,-1.5407,-1.4684,-1.4704,-1.4576,-1.4298,-1.4298,-1.4298,-1.4298,-1.4298,-1.4226,-1.4081,-1.396,-1.3833,-0.7715,-0.7956,-0.8207,-0.7628,-0.7299,-0.7085,-0.7041,-0.6685,-0.6375,-0.6399,-0.6497,-0.6603,-0.68,-0.7024,-0.7496,-0.8489,-0.8784,-0.9449,-1.1059,-1.0997,-1.1311,-1.2776,-1.34,-1.3587,-1.3392,-1.3583,-1.3672,-1.3439,-1.3231,-1.3626,-1.4819,-1.4663,-1.496,-1.5945,-1.5446,-1.569,-1.6666,-1.6422,-1.6198,-1.6128,-1.6515,-1.6285,-1.5571,-1.6193,-1.6042,-1.536,-1.6127,-1.6199,-1.5813,-1.6356,-1.6579,-1.6531,-1.6066,-1.6024,-1.6193,-1.597,-1.5916,-1.5982,-1.6205,-1.641,-1.6635,-1.6956,-1.7022,-1.7111,-1.7482,-1.7487,-1.7521,-1.8572,-1.8801,-1.8688,-1.8544,-1.8677,-1.8718,-1.8122,-1.827,-1.849,-1.849,-1.8457,-1.845,-1.8544,-1.8193,-1.7909,-1.7753,-1.7389,-1.7032,-1.6725,-1.6455,-1.6357,-1.6525,-1.6228,-1.6127,-1.6592,-1.6266,-1.6103,-1.6326,-1.6103,-1.5855,-1.5632,-1.5756,-1.5624,-1.5059,-1.4835,-1.4582,-1.4304,-1.4298,-1.4298,-1.4298,-1.4298,-1.4298,-1.4292,-1.4069,-1.3966,-0.7816,-0.8127,-0.8193,-0.7127,-0.699,-0.7031,-0.6824,-0.6698,-0.6671,-0.68,-0.6844,-0.6983,-0.7387,-0.7394,-0.747,-0.7886,-0.8227,-0.872,-0.9609,-0.9663,-0.9737,-0.9982,-1.1256,-1.1523,-1.0263,-1.1316,-1.2022,-1.1993,-1.1878,-1.2225,-1.327,-1.392,-1.4331,-1.4548,-1.4069,-1.4085,-1.4744,-1.4458,-1.4008,-1.3386,-1.4299,-1.4425,-1.3876,-1.4894,-1.5034,-1.4515,-1.5101,-1.5306,-1.527,-1.5795,-1.6012,-1.6006,-1.5922,-1.5916,-1.5946,-1.5903,-1.603,-1.6223,-1.6266,-1.6163,-1.6066,-1.634,-1.6577,-1.6844,-1.7417,-1.7733,-1.8001,-1.8688,-1.839,-1.7889,-1.8382,-1.8524,-1.847,-1.8075,-1.827,-1.849,-1.849,-1.829,-1.8209,-1.8758,-1.8222,-1.7805,-1.8186,-1.7646,-1.6993,-1.6725,-1.6466,-1.6236,-1.6053,-1.6163,-1.626,-1.6356,-1.6495,-1.6592,-1.6634,-1.638,-1.6205,-1.6163,-1.5799,-1.5333,-1.4799,-1.4739,-1.4582,-1.4304,-1.4298,-1.4298,-1.4298,-1.4298,-1.4298,-1.4298,-1.4256,-1.4238,-0.7469,-0.7771,-0.7916,-0.7111,-0.724,-0.7503,-0.7255,-0.7058,-0.6893,-0.6886,-0.6886,-0.697,-0.7299,-0.7431,-0.7672,-0.8211,-0.8486,-0.875,-0.9096,-0.9144,-0.9201,-0.9361,-1.0028,-1.0211,-0.9569,-1.0161,-1.0528,-1.0347,-1.0184,-1.0525,-1.1563,-1.2466,-1.2936,-1.2994,-1.3176,-1.2842,-1.2006,-1.1699,-1.2125,-1.3194,-1.3794,-1.401,-1.3975,-1.4717,-1.4811,-1.4334,-1.5022,-1.524,-1.5149,-1.5674,-1.5891,-1.5879,-1.5734,-1.5765,-1.5891,-1.5891,-1.5964,-1.6066,-1.6066,-1.5988,-1.5945,-1.6051,-1.6363,-1.6775,-1.7226,-1.7544,-1.7874,-1.8453,-1.8493,-1.8377,-1.8628,-1.8725,-1.8651,-1.8535,-1.8569,-1.8724,-1.8724,-1.8618,-1.8486,-1.8582,-1.8198,-1.7824,-1.7976,-1.7385,-1.6845,-1.6735,-1.6442,-1.6374,-1.6501,-1.6519,-1.6622,-1.6911,-1.6797,-1.6761,-1.6899,-1.6664,-1.638,-1.6091,-1.5843,-1.5535,-1.5155,-1.5004,-1.4805,-1.4527,-1.4377,-1.4298,-1.4298,-1.4298,-1.4298,-1.4298,-1.4298,-1.4298,-0.7198,-0.7421,-0.7632,-0.7187,-0.7496,-0.7902,-0.7784,-0.7519,-0.724,-0.7251,-0.7169,-0.7176,-0.7284,-0.7573,-0.7977,-0.8655,-0.8889,-0.9025,-0.9074,-0.9087,-0.9228,-0.9456,-0.9456,-0.9483,-0.9598,-0.9578,-0.9459,-0.9279,-0.9039,-0.9285,-1.0171,-1.0967,-1.146,-1.1614,-1.2071,-1.1577,-1.002,-0.9498,-1.0341,-1.2572,-1.3049,-1.3517,-1.3919,-1.4374,-1.4438,-1.4334,-1.4752,-1.4936,-1.5046,-1.5451,-1.5686,-1.5771,-1.5511,-1.5608,-1.5891,-1.5891,-1.5891,-1.5891,-1.5891,-1.5891,-1.5891,-1.5891,-1.6245,-1.6658,-1.7104,-1.741,-1.7721,-1.8223,-1.8555,-1.8777,-1.8768,-1.8845,-1.8861,-1.8814,-1.8787,-1.8765,-1.8765,-1.8713,-1.8629,-1.846,-1.8144,-1.7824,-1.7726,-1.7193,-1.6791,-1.6791,-1.6555,-1.6531,-1.6948,-1.6881,-1.6948,-1.7346,-1.7086,-1.6942,-1.708,-1.6911,-1.6561,-1.6018,-1.5982,-1.5837,-1.5511,-1.5306,-1.5046,-1.4727,-1.4564,-1.4425,-1.4298,-1.4358,-1.4358,-1.4298,-1.4298,-1.4298,-0.726,-0.7382,-0.7459,-0.7187,-0.7387,-0.7736,-0.813,-0.7984,-0.7841,-0.8116,-0.8058,-0.7914,-0.7924,-0.8109,-0.8377,-0.879,-0.9045,-0.9283,-0.97,-0.9758,-0.9764,-0.9788,-0.9673,-0.9598,-0.9608,-0.9483,-0.9388,-0.9367,-0.91,-0.8991,-0.9282,-0.9885,-1.0322,-1.0605,-1.0213,-1.0028,-1.002,-0.8757,-0.8687,-0.9892,-1.0887,-1.1898,-1.2829,-1.2867,-1.34,-1.4268,-1.3561,-1.3834,-1.4751,-1.4787,-1.5089,-1.5499,-1.524,-1.5445,-1.5891,-1.5891,-1.5891,-1.5891,-1.5891,-1.5891,-1.5891,-1.5891,-1.6064,-1.6448,-1.7011,-1.7408,-1.7703,-1.8243,-1.8448,-1.8442,-1.8459,-1.8659,-1.8803,-1.8516,-1.8442,-1.8421,-1.8421,-1.8218,-1.8116,-1.837,-1.7929,-1.7605,-1.7898,-1.7475,-1.7062,-1.7062,-1.6839,-1.6688,-1.6724,-1.6923,-1.708,-1.7117,-1.7304,-1.7334,-1.7111,-1.7074,-1.6833,-1.629,-1.6254,-1.6024,-1.5517,-1.5481,-1.5234,-1.4727,-1.4938,-1.4799,-1.4298,-1.4558,-1.4552,-1.4298,-1.4298,-1.4298,-0.7061,-0.7279,-0.7415,-0.7187,-0.7373,-0.7692,-0.8045,-0.8113,-0.813,-0.8296,-0.8296,-0.8289,-0.8201,-0.8303,-0.852,-0.8824,-0.9059,-0.9333,-0.9639,-0.9527,-0.9442,-0.9537,-0.9415,-0.9252,-0.9069,-0.9164,-0.9142,-0.872,-0.8757,-0.874,-0.8664,-0.9568,-0.9812,-0.9161,-0.9548,-0.9474,-0.8768,-0.8265,-0.8871,-1.0587,-1.1023,-1.2096,-1.3667,-1.3139,-1.3505,-1.4521,-1.3663,-1.3841,-1.4714,-1.4714,-1.4835,-1.5034,-1.5264,-1.5572,-1.5891,-1.5891,-1.5891,-1.5891,-1.5891,-1.5891,-1.5891,-1.5891,-1.6175,-1.6625,-1.6882,-1.736,-1.7835,-1.786,-1.8165,-1.8396,-1.8397,-1.8513,-1.8564,-1.8455,-1.8397,-1.8363,-1.82,-1.806,-1.7952,-1.7877,-1.764,-1.7545,-1.7649,-1.7383,-1.7147,-1.731,-1.7111,-1.7002,-1.7165,-1.7274,-1.7334,-1.7334,-1.7424,-1.7443,-1.734,-1.7334,-1.7177,-1.6809,-1.6471,-1.6115,-1.5759,-1.559,-1.5403,-1.5203,-1.5143,-1.501,-1.4805,-1.4908,-1.4908,-1.4799,-1.4799,-1.4799,-0.683,-0.7029,-0.7194,-0.7061,-0.7339,-0.7702,-0.8092,-0.8262,-0.8391,-0.8584,-0.8547,-0.8452,-0.8357,-0.8381,-0.8513,-0.8818,-0.9028,-0.9299,-0.95,-0.9357,-0.932,-0.9367,-0.9208,-0.9005,-0.8801,-0.8879,-0.8828,-0.8419,-0.8482,-0.8503,-0.8347,-0.9105,-0.9139,-0.8323,-0.8976,-0.8895,-0.7992,-0.7988,-0.9069,-1.1219,-1.0881,-1.1755,-1.3763,-1.2886,-1.2899,-1.3612,-1.3013,-1.3299,-1.4202,-1.4471,-1.4433,-1.4255,-1.4768,-1.4855,-1.4803,-1.5209,-1.5351,-1.5405,-1.5785,-1.5891,-1.5891,-1.5891,-1.6145,-1.6496,-1.6704,-1.7147,-1.759,-1.7566,-1.7805,-1.8123,-1.8123,-1.8188,-1.8246,-1.8246,-1.8188,-1.8071,-1.7901,-1.7849,-1.7784,-1.7543,-1.7485,-1.7485,-1.7485,-1.7334,-1.728,-1.7455,-1.7328,-1.728,-1.7461,-1.7485,-1.7485,-1.7485,-1.7485,-1.7485,-1.7485,-1.7485,-1.737,-1.7111,-1.6664,-1.6296,-1.6024,-1.5843,-1.5668,-1.5499,-1.5403,-1.5276,-1.5107,-1.5191,-1.5191,-1.5107,-1.5107,-1.5107,-0.6602,-0.6635,-0.6739,-0.6852,-0.7268,-0.7756,-0.8347,-0.8482,-0.8652,-0.9256,-0.8903,-0.8486,-0.8486,-0.837,-0.837,-0.8662,-0.8957,-0.9258,-0.9357,-0.9374,-0.9374,-0.9374,-0.9113,-0.8878,-0.8875,-0.8659,-0.8479,-0.8479,-0.835,-0.8333,-0.8472,-0.8347,-0.8323,-0.8323,-0.8323,-0.8197,-0.7992,-0.7988,-0.9069,-1.117,-1.0096,-1.0681,-1.2689,-1.179,-1.1391,-1.1391,-1.1395,-1.1998,-1.3082,-1.3916,-1.3811,-1.313,-1.361,-1.3157,-1.2394,-1.3697,-1.4223,-1.4385,-1.5512,-1.5891,-1.5891,-1.5891,-1.5891,-1.5994,-1.6531,-1.67,-1.6809,-1.7334,-1.7479,-1.7485,-1.7485,-1.7726,-1.7972,-1.7972,-1.7726,-1.7485,-1.7485,-1.7485,-1.7485,-1.7485,-1.7479,-1.7479,-1.7479,-1.7485,-1.7479,-1.7479,-1.7479,-1.7485,-1.7485,-1.7479,-1.7479,-1.7479,-1.7479,-1.7485,-1.7479,-1.7479,-1.737,-1.7053,-1.6794,-1.6579,-1.6296,-1.6278,-1.603,-1.5511,-1.5759,-1.5632,-1.5113,-1.5378,-1.5372,-1.5113,-1.5113,-1.5113,-0.6759,-0.6798,-0.6922,-0.7177,-0.7495,-0.7875,-0.837,-0.8482,-0.8621,-0.9176,-0.8998,-0.8804,-0.8804,-0.8679,-0.8608,-0.8696,-0.8784,-0.893,-0.9241,-0.9042,-0.891,-0.891,-0.8737,-0.8537,-0.8275,-0.8411,-0.8394,-0.8187,-0.8323,-0.8394,-0.8388,-0.8387,-0.8374,-0.8327,-0.8323,-0.8197,-0.7992,-0.8726,-0.946,-1.0096,-1.0538,-1.1414,-1.2646,-1.118,-1.093,-1.1713,-1.1756,-1.2358,-1.3274,-1.3336,-1.338,-1.3316,-1.3674,-1.3742,-1.3741,-1.4942,-1.5405,-1.5458,-1.5779,-1.5891,-1.5891,-1.5891,-1.6012,-1.6193,-1.6356,-1.667,-1.7008,-1.7165,-1.734,-1.7485,-1.7485,-1.7543,-1.7667,-1.7667,-1.7726,-1.7784,-1.7543,-1.7485,-1.7485,-1.7485,-1.6767,-1.6166,-1.6166,-1.5397,-1.4857,-1.4857,-1.4857,-1.5154,-1.6048,-1.6166,-1.6166,-1.6166,-1.6166,-1.5811,-1.4917,-1.4857,-1.4767,-1.47,-1.4639,-1.5106,-1.6253,-1.5338,-1.5123,-1.5777,-1.4223,-1.419,-1.5656,-1.4934,-1.4934,-1.5656,-1.5656,-1.5656,-0.6798,-0.6915,-0.7055,-0.7458,-0.7814,-0.8163,-0.8496,-0.8662,-0.8896,-0.9231,-0.9032,-0.8811,-0.8871,-0.8764,-0.8638,-0.8699,-0.876,-0.8842,-0.896,-0.8825,-0.8686,-0.8625,-0.8489,-0.833,-0.8147,-0.8238,-0.8231,-0.8005,-0.8204,-0.8269,-0.8184,-0.8258,-0.8265,-0.818,-0.8177,-0.8334,-0.863,-0.9147,-0.9697,-1.0175,-1.0325,-1.0757,-1.1347,-1.0874,-1.075,-1.1071,-1.2101,-1.2848,-1.3297,-1.3663,-1.3312,-1.2586,-1.3369,-1.3215,-1.2757,-1.4353,-1.4679,-1.4481,-1.5293,-1.565,-1.5734,-1.5734,-1.591,-1.6145,-1.6247,-1.6585,-1.696,-1.7062,-1.728,-1.7485,-1.7485,-1.7485,-1.7485,-1.7485,-1.7667,-1.7726,-1.7543,-1.712,-1.6767,-1.6767,-1.5693,-1.4857,-1.4857,-1.4202,-1.3725,-1.3725,-1.3725,-1.3992,-1.479,-1.4849,-1.4888,-1.4915,-1.4908,-1.456,-1.3784,-1.3725,-1.3725,-1.3725,-1.3589,-1.3975,-1.4949,-1.4177,-1.3965,-1.4482,-1.3117,-1.3122,-1.453,-1.383,-1.3835,-1.453,-1.5024,-1.5186,-0.6814,-0.6977,-0.7193,-0.7729,-0.8191,-0.856,-0.8699,-0.894,-0.9231,-0.9313,-0.9035,-0.8804,-0.8861,-0.8713,-0.856,-0.8672,-0.8808,-0.8794,-0.871,-0.8689,-0.8632,-0.8479,-0.835,-0.8316,-0.8252,-0.8123,-0.7988,-0.7988,-0.7988,-0.7988,-0.7988,-0.7988,-0.7988,-0.7988,-0.7988,-0.8524,-0.9534,-0.9328,-0.9762,-1.0778,-0.9714,-0.9244,-0.93,-1.0649,-1.0854,-1.0289,-1.2337,-1.3223,-1.3263,-1.4365,-1.3428,-1.1441,-1.2847,-1.2235,-1.0677,-1.2782,-1.3013,-1.2585,-1.4487,-1.53,-1.5499,-1.5529,-1.571,-1.597,-1.6211,-1.6495,-1.6785,-1.7026,-1.728,-1.7485,-1.7485,-1.742,-1.7303,-1.7303,-1.742,-1.7485,-1.7361,-1.6408,-1.5575,-1.5451,-1.4381,-1.3545,-1.3545,-1.3426,-1.337,-1.3329,-1.3333,-1.3463,-1.3718,-1.3635,-1.3579,-1.3695,-1.3602,-1.3485,-1.3366,-1.3366,-1.3366,-1.3366,-1.3136,-1.2884,-1.2678,-1.2742,-1.2655,-1.2422,-1.22,-1.22,-1.2417,-1.2304,-1.2304,-1.2413,-1.3511,-1.3933,-0.6829,-0.691,-0.7122,-0.797,-0.8509,-0.8849,-0.8828,-0.894,-0.8994,-0.9028,-0.9144,-0.9178,-0.8922,-0.8828,-0.8771,-0.8564,-0.856,-0.8567,-0.8537,-0.853,-0.8479,-0.8333,-0.834,-0.8221,-0.8102,-0.8008,-0.7988,-0.7988,-0.7988,-0.7988,-0.7988,-0.7988,-0.7988,-0.7988,-0.7988,-0.8421,-0.926,-0.9308,-0.9362,-0.9409,-0.9366,-0.8956,-0.8204,-0.9514,-1.115,-1.2904,-1.225,-1.2631,-1.359,-1.2917,-1.2359,-1.1969,-1.3211,-1.3399,-1.3116,-1.4299,-1.4622,-1.4538,-1.5205,-1.5451,-1.5529,-1.5741,-1.5982,-1.6205,-1.6266,-1.6622,-1.702,-1.7074,-1.728,-1.7485,-1.7485,-1.6767,-1.5989,-1.5989,-1.6767,-1.7244,-1.6231,-1.5811,-1.5273,-1.4321,-1.3066,-1.2109,-1.2109,-1.1325,-1.0647,-1.0776,-1.0798,-1.1221,-1.2386,-1.2432,-1.2392,-1.243,-1.2214,-1.1748,-1.0725,-1.0664,-1.0664,-1.0664,-1.0571,-1.0483,-1.0325,-1.0983,-1.1677,-1.2363,-1.057,-1.057,-1.2417,-1.1487,-1.1546,-1.2417,-1.2689,-1.2773,-0.6906,-0.7142,-0.755,-0.8384,-0.8767,-0.8865,-0.8845,-0.8828,-0.8808,-0.8733,-0.8899,-0.8991,-0.876,-0.872,-0.8669,-0.8509,-0.8482,-0.8459,-0.8391,-0.8381,-0.8326,-0.8177,-0.816,-0.813,-0.7995,-0.7988,-0.7988,-0.7988,-0.7988,-0.7988,-0.7988,-0.7988,-0.7958,-0.7884,-0.788,-0.834,-0.9175,-0.9125,-0.9077,-0.8946,-0.9635,-1.0009,-1.0145,-1.0349,-1.1556,-1.3448,-1.2771,-1.2316,-1.2126,-1.2762,-1.2621,-1.2073,-1.3912,-1.4203,-1.3702,-1.4601,-1.4639,-1.4384,-1.491,-1.5288,-1.5523,-1.5656,-1.5879,-1.5988,-1.5441,-1.5633,-1.5864,-1.5281,-1.5422,-1.5693,-1.5693,-1.5213,-1.4679,-1.4679,-1.5213,-1.5515,-1.4857,-1.4202,-1.3545,-1.2891,-1.1687,-1.0785,-1.0785,-1.0307,-0.9896,-0.9974,-1.0051,-1.0461,-1.131,-1.118,-1.1061,-1.1205,-1.0934,-1.0547,-0.9883,-0.9822,-0.9822,-0.9822,-0.9822,-0.9758,-0.9615,-1.0036,-1.0494,-1.0936,-0.9765,-0.9765,-1.0932,-1.0289,-1.0293,-1.0984,-1.1414,-1.1546,-0.6906,-0.7402,-0.8007,-0.8662,-0.8807,-0.8804,-0.8706,-0.8672,-0.8628,-0.8423,-0.8564,-0.8625,-0.8472,-0.8445,-0.8435,-0.8408,-0.8404,-0.8364,-0.8248,-0.8231,-0.8184,-0.8005,-0.7988,-0.7988,-0.7988,-0.7965,-0.7951,-0.7951,-0.7951,-0.7951,-0.7951,-0.7975,-0.7931,-0.7855,-0.7848,-0.8257,-0.9175,-0.8808,-0.87,-0.8898,-0.9821,-1.1067,-1.2512,-1.1589,-1.184,-1.3087,-1.309,-1.214,-1.0732,-1.3181,-1.3397,-1.2437,-1.4636,-1.4757,-1.3778,-1.4457,-1.4213,-1.3662,-1.4468,-1.4913,-1.5127,-1.5274,-1.5317,-1.5189,-1.4175,-1.4193,-1.4349,-1.3279,-1.3343,-1.3725,-1.3725,-1.3545,-1.3366,-1.3366,-1.3186,-1.3066,-1.3306,-1.247,-1.1631,-1.139,-1.0547,-0.9822,-0.9822,-0.9886,-0.9997,-1.0024,-1.0219,-1.0368,-1.0514,-1.0293,-1.0164,-1.027,-1.0053,-0.988,-0.9825,-0.9846,-0.9849,-0.9822,-0.9822,-0.9768,-0.9649,-0.9646,-0.9588,-0.9459,-0.9408,-0.9381,-0.9381,-0.9313,-0.9316,-0.9432,-1.0126,-1.0441,-0.6675,-0.737,-0.8015,-0.8303,-0.8554,-0.8703,-0.8547,-0.8513,-0.8416,-0.8062,-0.8252,-0.8469,-0.8378,-0.835,-0.8255,-0.8069,-0.8049,-0.8042,-0.8022,-0.8019,-0.8012,-0.7992,-0.7988,-0.7988,-0.7988,-0.787,-0.7841,-0.7841,-0.7841,-0.7841,-0.7841,-0.7917,-0.7982,-0.7961,-0.7961,-0.8374,-0.9168,-0.8248,-0.8101,-0.882,-0.8964,-1.0086,-1.1991,-1.1204,-1.1696,-1.3027,-1.2209,-1.1877,-1.2024,-1.3564,-1.4073,-1.4003,-1.5094,-1.5233,-1.4868,-1.4761,-1.4484,-1.4267,-1.4852,-1.4423,-1.3773,-1.4199,-1.3832,-1.3146,-1.2742,-1.3058,-1.35,-1.3088,-1.3343,-1.3725,-1.3725,-1.2831,-1.1989,-1.1989,-1.1148,-1.0604,-1.1748,-1.1812,-1.139,-1.0243,-0.9943,-0.9822,-0.9822,-0.9886,-1.0034,-1.0229,-1.0371,-1.0517,-1.067,-1.0538,-1.0392,-1.029,-1.0243,-1.011,-0.9842,-0.9879,-0.9899,-0.9829,-0.9822,-0.9812,-0.9791,-0.9791,-0.9785,-0.9764,-0.951,-0.9381,-0.9381,-0.9361,-0.9361,-0.9381,-0.951,-0.9547,-0.6949,-0.7363,-0.7763,-0.817,-0.8367,-0.8445,-0.8218,-0.815,-0.8055,-0.7607,-0.7626,-0.7753,-0.7696,-0.7683,-0.7714,-0.7753,-0.7793,-0.7842,-0.7992,-0.7988,-0.7958,-0.7874,-0.7913,-0.7913,-0.7913,-0.778,-0.7726,-0.7804,-0.7736,-0.7692,-0.7692,-0.7756,-0.7753,-0.7668,-0.7665,-0.7778,-0.8031,-0.7556,-0.8117,-0.9624,-0.962,-1.0484,-1.1981,-1.0992,-1.0959,-1.17,-1.1699,-1.1434,-1.1113,-1.3311,-1.4223,-1.432,-1.5335,-1.5559,-1.5294,-1.5034,-1.495,-1.4861,-1.4232,-1.3923,-1.3757,-1.3242,-1.2871,-1.2421,-1.1678,-1.1764,-1.1947,-1.1178,-1.1236,-1.1503,-1.1503,-1.1084,-1.0664,-1.0664,-1.0183,-0.994,-1.0486,-1.0664,-1.0486,-0.9883,-0.9822,-0.9822,-0.9822,-1.0019,-1.0202,-1.027,-1.0473,-1.0643,-1.0711,-1.0585,-1.0466,-1.0405,-1.0249,-1.0131,-1.0083,-1.0059,-0.9994,-1.0076,-0.9998,-0.9886,-0.9886,-0.9866,-0.9822,-0.9822,-0.9693,-0.9629,-0.9629,-0.9462,-0.9466,-0.9622,-0.9371,-0.9344,-0.7054,-0.7227,-0.7411,-0.7824,-0.8022,-0.8039,-0.7808,-0.7743,-0.7614,-0.716,-0.7089,-0.7089,-0.6989,-0.7086,-0.7288,-0.7444,-0.7547,-0.7696,-0.7892,-0.7942,-0.7948,-0.7882,-0.7834,-0.7828,-0.7865,-0.7672,-0.76,-0.7746,-0.7624,-0.7543,-0.7543,-0.758,-0.7546,-0.7434,-0.7431,-0.7373,-0.7213,-0.7437,-0.8561,-1.0568,-1.0302,-1.0781,-1.1838,-1.0516,-1.0116,-1.0478,-1.1266,-1.1323,-1.0964,-1.3483,-1.4545,-1.4708,-1.5565,-1.5728,-1.5469,-1.5203,-1.5026,-1.4715,-1.3507,-1.3111,-1.2996,-1.2085,-1.1657,-1.1332,-1.0511,-1.0426,-1.047,-0.961,-0.9595,-0.9822,-0.9822,-0.9822,-0.9822,-0.9822,-0.9822,-0.9822,-0.9822,-0.9822,-0.9822,-0.9822,-0.9852,-0.988,-0.988,-1.0131,-1.0334,-1.0334,-1.0555,-1.0721,-1.0721,-1.0585,-1.049,-1.049,-1.0293,-1.0195,-1.0273,-1.0209,-1.0195,-1.0276,-1.0171,-1.0107,-1.0107,-0.9961,-0.988,-0.988,-0.9839,-0.9822,-0.9822,-0.9598,-0.9605,-0.9812,-0.9479,-0.9445,-0.6515,-0.6831,-0.7085,-0.698,-0.73,-0.7585,-0.7308,-0.7259,-0.7147,-0.6895,-0.6842,-0.6742,-0.6487,-0.6836,-0.7188,-0.7238,-0.7444,-0.7596,-0.7596,-0.7842,-0.7985,-0.7978,-0.7899,-0.7868,-0.7965,-0.7638,-0.7448,-0.76,-0.7468,-0.7429,-0.7429,-0.7519,-0.7597,-0.7587,-0.7587,-0.7584,-0.7577,-0.8333,-0.9553,-1.1257,-1.0337,-1.0424,-1.1278,-0.962,-0.9246,-0.9989,-1.0771,-1.1803,-1.3064,-1.4762,-1.5563,-1.5832,-1.5891,-1.5728,-1.5469,-1.5203,-1.4279,-1.3214,-1.3137,-1.1878,-1.0349,-1.0523,-0.9895,-0.9047,-0.8992,-0.92,-0.9497,-0.9439,-0.9595,-0.9822,-0.9822,-0.9822,-0.9822,-0.9822,-0.9822,-0.9822,-0.9822,-0.9822,-0.9822,-0.9822,-0.9876,-0.9974,-0.9974,-1.0283,-1.048,-1.048,-1.0619,-1.0721,-1.0721,-1.0585,-1.049,-1.049,-1.0477,-1.0419,-1.029,-1.0395,-1.0415,-1.029,-1.0273,-1.0266,-1.0266,-1.012,-0.9974,-0.9974,-0.9893,-0.9822,-0.9822,-0.9805,-0.9805,-0.9822,-0.9795,-0.9795,-0.6474,-0.659,-0.6704,-0.6718,-0.6888,-0.7003,-0.6716,-0.6777,-0.6819,-0.6527,-0.6478,-0.6429,-0.6377,-0.6537,-0.6736,-0.6892,-0.7042,-0.7194,-0.7547,-0.7696,-0.7756,-0.7857,-0.7763,-0.7695,-0.7753,-0.7434,-0.7288,-0.7441,-0.7309,-0.7224,-0.7224,-0.7275,-0.726,-0.726,-0.726,-0.7573,-0.8159,-0.8447,-0.9525,-1.1278,-1.0361,-1.0096,-1.0361,-0.9174,-0.9081,-0.9941,-1.04,-1.1408,-1.2845,-1.4724,-1.5457,-1.5421,-1.5759,-1.5728,-1.5383,-1.4544,-1.3983,-1.3342,-1.1576,-1.0737,-1.0204,-0.9474,-0.9057,-0.8885,-0.8885,-0.9076,-0.9313,-0.9354,-0.953,-0.9707,-0.9798,-0.9822,-0.9822,-0.9822,-0.9822,-0.9822,-0.9822,-0.9822,-0.9822,-0.9822,-0.9883,-0.9987,-0.9987,-1.0297,-1.049,-1.049,-1.0622,-1.0721,-1.0721,-1.0673,-1.0636,-1.0636,-1.0551,-1.051,-1.0558,-1.0521,-1.0514,-1.0561,-1.047,-1.0415,-1.0415,-1.0181,-0.9987,-0.9987,-0.9897,-0.9822,-0.9822,-0.973,-0.9734,-0.9819,-0.9727,-0.9734,-0.6416,-0.6474,-0.6519,-0.6552,-0.6579,-0.6527,-0.6308,-0.6343,-0.6393,-0.6246,-0.6254,-0.6268,-0.6311,-0.6295,-0.6383,-0.6575,-0.6732,-0.6942,-0.7388,-0.7543,-0.7657,-0.785,-0.7719,-0.7617,-0.7665,-0.7304,-0.7204,-0.7405,-0.7227,-0.7095,-0.7095,-0.7095,-0.7075,-0.7028,-0.7071,-0.7683,-0.8884,-0.8943,-0.9758,-1.1278,-1.0361,-0.9749,-0.9405,-0.8452,-0.854,-0.9462,-1.0065,-1.1314,-1.3067,-1.4515,-1.4945,-1.4687,-1.4995,-1.4825,-1.4328,-1.3472,-1.2944,-1.2372,-1.0438,-0.9816,-0.9674,-0.8776,-0.8689,-0.8885,-0.8885,-0.9039,-0.9231,-0.9333,-0.9452,-0.9632,-0.9727,-0.9785,-0.9822,-0.9822,-0.9822,-0.9822,-0.9822,-0.9822,-0.9836,-0.9886,-1.0022,-1.0141,-1.0188,-1.0405,-1.0568,-1.0568,-1.0656,-1.0721,-1.0721,-1.0673,-1.0663,-1.0714,-1.0582,-1.0555,-1.0707,-1.0626,-1.0612,-1.0714,-1.0626,-1.0568,-1.0568,-1.0331,-1.0198,-1.0198,-1.0002,-0.9835,-0.9897,-0.9751,-0.973,-0.9819,-0.9724,-0.9703,0.0,0.0,0.0,-0.6464,-0.6357,-0.6184,-0.6184,-0.6033,-0.5926,-0.6098,-0.6122,-0.6161,-0.6284,-0.6205,-0.6163,-0.6287,-0.6503,-0.6792,-0.7164,-0.7434,-0.769,-0.7985,-0.7773,-0.7648,-0.7784,-0.7355,-0.7204,-0.7353,-0.7224,-0.7095,-0.7095,-0.7095,-0.7031,-0.6889,-0.7018,-0.7926,-0.9662,-0.9814,-1.0351,-1.1273,-1.0313,-0.9362,-0.8456,-0.7536,-0.7621,-0.8552,-0.9749,-1.1622,-1.3818,-1.4136,-1.405,-1.3697,-1.354,-1.3,-1.2356,-1.1907,-1.1088,-1.018,-0.9851,-0.919,-0.8489,-0.8489,-0.8693,-0.8885,-0.8885,-0.9035,-0.9204,-0.9207,-0.9371,-0.9605,-0.9612,-0.972,-0.9825,-0.9822,-0.9829,-0.9832,-0.9829,-0.9832,-0.9876,-0.996,-1.0178,-1.0331,-1.047,-1.0619,-1.0721,-1.0721,-1.0721,-1.0721,-1.0721,-1.0592,-1.0555,-1.0704,-1.0585,-1.0558,-1.0707,-1.0721,-1.0721,-1.0721,-1.0721,-1.0721,-1.0721,-1.0571,-1.049,-1.049,-1.0205,-0.9994,-0.9994,-0.9897,-0.9822,-0.9822,-0.9822,-0.9747,-0.63,0.0,0.0,0.0,0.0,0.0,-0.5943,-0.5896,-0.5984,-0.6248,-0.6187,-0.6139,-0.6267,-0.6184,-0.6139,-0.627,-0.6345,-0.6569,-0.7037,-0.7146,-0.7345,-0.7778,-0.7614,-0.7451,-0.7489,-0.7278,-0.7112,-0.72,-0.7122,-0.7095,-0.7095,-0.7095,-0.7031,-0.6889,-0.6923,-0.7758,-0.9393,-0.8965,-0.9493,-1.099,-0.9559,-0.8759,-0.8456,-0.7536,-0.7621,-0.8544,-0.9551,-1.0562,-1.1595,-1.2708,-1.2701,-1.2089,-1.2442,-1.2356,-1.204,-1.1263,-1.077,-1.0282,-0.9338,-0.8824,-0.8648,-0.8648,-0.8777,-0.8885,-0.8885,-0.8912,-0.9018,-0.918,-0.935,-0.9493,-0.9707,-0.9873,-0.9896,-0.9846,-0.9992,-1.0124,-0.995,-1.0076,-1.0134,-1.0,-1.0256,-1.0446,-1.0483,-1.0619,-1.0721,-1.0721,-1.0721,-1.0721,-1.0721,-1.0683,-1.0673,-1.0714,-1.068,-1.0673,-1.0717,-1.0721,-1.0721,-1.0721,-1.0721,-1.0721,-1.0721,-1.0571,-1.049,-1.049,-1.031,-1.0215,-1.0215,-0.9951,-0.9822,-0.9822,-0.9822,-0.9798,0.0,0.0,0.0,-0.6099,0.0,0.0,-0.5866,-0.5868,-0.5933,-0.6193,-0.6137,-0.6095,-0.6228,-0.6142,-0.6098,-0.6231,-0.6331,-0.6625,-0.7166,-0.7238,-0.74,-0.7773,-0.7607,-0.7441,-0.7422,-0.7231,-0.7095,-0.7095,-0.7095,-0.7095,-0.7095,-0.7095,-0.7031,-0.6889,-0.6886,-0.7689,-0.9304,-0.8562,-0.8952,-1.0439,-0.906,-0.8289,-0.8035,-0.7388,-0.7621,-0.8544,-0.9061,-0.954,-0.9898,-1.0773,-1.0991,-1.0758,-1.1082,-1.0958,-1.0584,-1.0043,-0.9803,-0.9674,-0.8925,-0.871,-0.871,-0.871,-0.8815,-0.8885,-0.8885,-0.8885,-0.8902,-0.9042,-0.9218,-0.9449,-0.9744,-0.9872,-0.9963,-0.9876,-1.0103,-1.0256,-1.0164,-1.0263,-1.0341,-1.0249,-1.0375,-1.0514,-1.0575,-1.066,-1.0721,-1.0721,-1.0721,-1.0721,-1.0721,-1.0721,-1.0721,-1.0721,-1.0721,-1.0721,-1.0721,-1.0721,-1.0721,-1.0721,-1.0721,-1.0721,-1.0721,-1.0633,-1.0585,-1.0585,-1.0443,-1.0341,-1.028,-1.01,-0.9978,-0.9852,-0.9849,-0.9822,0.0,0.0,0.0,-0.6252,-0.6086,0.0,-0.5925,-0.588,-0.5904,-0.6027,-0.6051,-0.6053,-0.619,-0.6129,-0.6092,-0.6199,-0.6453,-0.6817,-0.7318,-0.7468,-0.7599,-0.7756,-0.7645,-0.7495,-0.736,-0.7221,-0.7095,-0.7095,-0.7095,-0.7095,-0.7095,-0.7095,-0.7075,-0.7058,-0.7054,-0.7804,-0.9392,-0.855,-0.8652,-0.9698,-0.8678,-0.7928,-0.7343,-0.7221,-0.7595,-0.8368,-0.8456,-0.8565,-0.8663,-0.8914,-0.9236,-0.9602,-0.9638,-0.9287,-0.8713,-0.873,-0.8733,-0.8733,-0.8716,-0.872,-0.8733,-0.8716,-0.8815,-0.8885,-0.8885,-0.8885,-0.8892,-0.8925,-0.9191,-0.9469,-0.9747,-0.9886,-1.0007,-0.999,-1.0192,-1.0324,-1.0307,-1.0415,-1.0517,-1.0517,-1.0517,-1.0561,-1.0697,-1.0721,-1.0721,-1.0721,-1.0721,-1.0721,-1.0721,-1.0721,-1.0721,-1.0721,-1.0721,-1.0721,-1.0721,-1.0721,-1.0721,-1.0721,-1.0721,-1.0721,-1.0721,-1.0721,-1.0721,-1.0721,-1.0585,-1.0456,-1.0331,-1.028,-1.0185,-0.9984,-0.9832,-0.9822,0.0,0.0,0.0,-0.5922,-0.6124,0.0,-0.6049,-0.6048,-0.6163,-0.6351,-0.6276,-0.6203,-0.6261,-0.6395,-0.6424,-0.6302,-0.6662,-0.6974,-0.723,-0.7279,-0.7384,-0.7597,-0.7397,-0.7173,-0.7142,-0.7112,-0.7095,-0.7095,-0.7095,-0.7095,-0.7095,-0.7095,-0.7374,-0.8025,-0.8021,-0.8695,-1.01,-0.8899,-0.8602,-0.9234,-0.8126,-0.7427,-0.7142,-0.7282,-0.7348,-0.7404,-0.8193,-0.8237,-0.7876,-0.8691,-0.8737,-0.8353,-0.8653,-0.8709,-0.8726,-0.8794,-0.8841,-0.8821,-0.8754,-0.8791,-0.8817,-0.875,-0.8815,-0.8885,-0.8885,-0.8885,-0.8932,-0.9228,-0.9425,-0.9605,-0.9778,-1.0029,-1.0205,-1.0017,-1.0351,-1.0602,-1.0477,-1.0568,-1.0677,-1.0677,-1.0677,-1.0683,-1.0714,-1.0721,-1.0721,-1.0721,-1.0721,-1.0721,-1.0721,-1.0721,-1.0721,-1.0721,-1.0721,-1.0721,-1.0721,-1.0721,-1.0721,-1.0721,-1.0721,-1.0721,-1.0721,-1.0721,-1.0721,-1.0721,-1.069,-1.0663,-1.0633,-1.027,-1.0017,-0.9984,-0.9832,-0.9822,-0.6006,-0.5993,-0.5956,-0.584,-0.603,0.0,0.0,-0.613,-0.6311,-0.6458,-0.6377,-0.6298,-0.64,-0.6427,-0.6453,-0.6484,-0.6678,-0.6966,-0.7254,-0.7359,-0.7399,-0.7344,-0.7302,-0.7197,-0.7004,-0.7055,-0.7095,-0.7095,-0.7095,-0.7095,-0.7095,-0.7095,-0.7497,-0.8367,-0.8316,-0.8763,-0.9797,-0.8749,-0.8351,-0.8605,-0.768,-0.7255,-0.7258,-0.7824,-0.7998,-0.7841,-0.8281,-0.8385,-0.8221,-0.8257,-0.8149,-0.7963,-0.8336,-0.853,-0.8625,-0.8801,-0.8834,-0.8815,-0.8737,-0.871,-0.871,-0.871,-0.8764,-0.8838,-0.8861,-0.8988,-0.9106,-0.9412,-0.9551,-0.9642,-0.9785,-1.0049,-1.0259,-1.0181,-1.0449,-1.07,-1.0622,-1.0666,-1.0721,-1.0721,-1.0721,-1.0721,-1.0721,-1.0721,-1.0721,-1.0721,-1.0721,-1.0721,-1.0721,-1.0721,-1.0721,-1.0721,-1.0721,-1.0721,-1.0721,-1.0721,-1.0721,-1.0721,-1.0721,-1.0721,-1.0721,-1.0721,-1.0721,-1.0721,-1.0721,-1.0721,-1.0721,-1.0415,-1.0232,-1.0161,-1.0005,-0.9893,-0.6043,-0.5986,-0.5912,-0.5796,-0.5918,-0.6057,0.0,0.0,0.0,-0.6446,-0.6358,-0.63,-0.6446,-0.6378,-0.6368,-0.6539,-0.6668,-0.6841,-0.7163,-0.7339,-0.74,-0.7162,-0.7217,-0.717,-0.6943,-0.7028,-0.7095,-0.7095,-0.7095,-0.7095,-0.7095,-0.7095,-0.7621,-0.8715,-0.8652,-0.8965,-0.9669,-0.8892,-0.8408,-0.817,-0.7539,-0.7305,-0.7419,-0.8212,-0.8429,-0.8237,-0.8237,-0.835,-0.8504,-0.7869,-0.7699,-0.7896,-0.8316,-0.8482,-0.852,-0.8825,-0.8842,-0.8706,-0.8676,-0.8604,-0.854,-0.8635,-0.8706,-0.8788,-0.8967,-0.9106,-0.9313,-0.9534,-0.9629,-0.9683,-0.9829,-1.0073,-1.0287,-1.0314,-1.0524,-1.0721,-1.0721,-1.0721,-1.0721,-1.0721,-1.0721,-1.0721,-1.0721,-1.0721,-1.0721,-1.0721,-1.0721,-1.0721,-1.0721,-1.0721,-1.0721,-1.0721,-1.0721,-1.0721,-1.0721,-1.0721,-1.0721,-1.0721,-1.0721,-1.0721,-1.0721,-1.0721,-1.0721,-1.0721,-1.0721,-1.0721,-1.0721,-1.0595,-1.0463,-1.0317,-1.0164,-1.0025,-0.6012,-0.5974,-0.5793,-0.565,-0.5965,-0.6201,-0.5888,0.0,-0.6306,-0.632,0.0,-0.6101,-0.6296,0.0,0.0,-0.6084,-0.6512,-0.678,-0.6474,-0.6746,-0.7088,-0.7319,-0.701,-0.6865,-0.7051,-0.7088,-0.7095,-0.7095,-0.7095,-0.7095,-0.7095,-0.7095,-0.7925,-0.9705,-0.9726,-1.0134,-1.0979,-1.0309,-0.9486,-0.853,-0.7973,-0.7607,-0.7422,-0.7648,-0.7548,-0.7272,-0.7272,-0.7438,-0.7714,-0.7641,-0.7763,-0.7995,-0.836,-0.8482,-0.852,-0.8825,-0.8842,-0.8693,-0.8557,-0.8584,-0.8665,-0.8547,-0.8693,-0.8908,-0.9245,-0.9344,-0.9391,-0.9561,-0.97,-0.9832,-0.9923,-1.0151,-1.0314,-1.0436,-1.0599,-1.0721,-1.0721,-1.0721,-1.0721,-1.0721,-1.0721,-1.0721,-1.0721,-1.0721,-1.0721,-1.0721,-1.0721,-1.0721,-1.0721,-1.0721,-1.0721,-1.0721,-1.0721,-1.0721,-1.0721,-1.0721,-1.0721,-1.0721,-1.0721,-1.0721,-1.0721,-1.0721,-1.0721,-1.0721,-1.0721,-1.0721,-1.0721,-1.0704,-1.0616,-1.0463,-1.0321,-1.0246,-0.6272,-0.6129,-0.5972,-0.5909,-0.5998,-0.6091,-0.5962,-0.6101,-0.6323,-0.6405,0.0,0.0,0.0,0.0,0.0,0.0,-0.6376,-0.6536,-0.6519,-0.6529,-0.6617,-0.6866,-0.6759,-0.6783,-0.6953,-0.6974,-0.7007,-0.7088,-0.7021,-0.6974,-0.6974,-0.6974,-0.7829,-0.971,-1.0032,-1.0226,-1.0448,-1.0437,-0.9594,-0.7916,-0.8466,-0.8541,-0.8227,-0.8995,-0.8835,-0.7929,-0.7929,-0.7755,-0.7472,-0.7563,-0.7723,-0.7943,-0.8333,-0.8482,-0.852,-0.8825,-0.8842,-0.8689,-0.8533,-0.8523,-0.8598,-0.871,-0.895,-0.9235,-0.9449,-0.9513,-0.9544,-0.969,-0.9774,-0.9856,-0.9947,-1.0164,-1.0297,-1.0354,-1.0551,-1.0697,-1.0605,-1.0656,-1.0721,-1.0721,-1.0721,-1.0721,-1.0721,-1.0721,-1.0721,-1.0721,-1.0721,-1.0721,-1.0721,-1.0721,-1.0721,-1.0721,-1.0721,-1.0721,-1.0721,-1.0802,-1.0853,-1.0853,-1.0853,-1.0812,-1.0724,-1.0721,-1.0721,-1.0721,-1.0721,-1.0721,-1.0721,-1.0721,-1.0687,-1.0619,-1.0473,-1.0358,-0.6461,-0.6309,-0.618,-0.6223,-0.6206,-0.6142,-0.6101,-0.6225,-0.6405,-0.6433,-0.6244,0.0,0.0,0.0,0.0,0.0,0.0,-0.6405,-0.6498,-0.6403,-0.6412,-0.6559,-0.6671,-0.6807,-0.6876,-0.6886,-0.691,-0.697,-0.7093,-0.7056,-0.6807,-0.7303,-0.8237,-0.9672,-1.0338,-1.0469,-1.0053,-1.0456,-0.9618,-0.7603,-0.8861,-0.9222,-0.8877,-0.9795,-0.9604,-0.85,-0.8237,-0.7849,-0.7429,-0.7536,-0.7682,-0.7855,-0.8306,-0.8482,-0.852,-0.8825,-0.8842,-0.8696,-0.8584,-0.8547,-0.8601,-0.8947,-0.9178,-0.9361,-0.9598,-0.9639,-0.9639,-0.9781,-0.9822,-0.9866,-1.0,-1.0198,-1.03,-1.0382,-1.0565,-1.069,-1.0578,-1.0639,-1.0721,-1.0721,-1.0721,-1.0721,-1.0721,-1.0721,-1.0721,-1.0721,-1.0721,-1.0721,-1.0721,-1.0721,-1.0721,-1.0721,-1.0721,-1.0721,-1.0721,-1.0793,-1.088,-1.088,-1.0917,-1.0921,-1.0727,-1.0761,-1.0761,-1.0721,-1.0721,-1.0721,-1.0721,-1.0721,-1.0721,-1.0717,-1.0605,-1.0497,-0.6506,-0.6488,-0.6417,-0.6541,-0.6585,-0.6515,-0.6321,-0.6446,-0.6528,-0.6342,-0.63,-0.6293,-0.6296,0.0,0.0,0.0,0.0,0.0,0.0,-0.6291,-0.6562,-0.6675,-0.6827,-0.6879,-0.6886,-0.6886,-0.6868,-0.6725,-0.7447,-0.7453,-0.6575,-0.8371,-0.9494,-0.9714,-1.0989,-1.124,-1.0403,-1.0655,-0.9851,-0.8018,-0.9053,-0.9361,-0.9017,-0.9169,-0.8976,-0.8456,-0.7536,-0.7227,-0.7429,-0.7536,-0.7682,-0.7855,-0.8306,-0.8482,-0.852,-0.8825,-0.8842,-0.871,-0.8706,-0.8703,-0.8774,-0.9222,-0.933,-0.9299,-0.9683,-0.972,-0.9639,-0.9781,-0.9822,-0.989,-1.0195,-1.0276,-1.0351,-1.0636,-1.0714,-1.0717,-1.0714,-1.0717,-1.0721,-1.0721,-1.0721,-1.0721,-1.0721,-1.0721,-1.0721,-1.0721,-1.0721,-1.0721,-1.0721,-1.0721,-1.0721,-1.0721,-1.0721,-1.0721,-1.0721,-1.0793,-1.088,-1.088,-1.108,-1.1026,-1.0731,-1.0796,-1.0803,-1.0724,-1.0721,-1.0721,-1.0721,-1.0721,-1.0721,-1.0721,-1.0714,-1.0711,-0.6816,-0.6784,-0.6735,-0.6834,-0.6817,-0.6753,-0.6537,-0.672,-0.6845,-0.6546,-0.6486,-0.6416,-0.6163,0.0,0.0,0.0,0.0,0.0,0.0,-0.6306,-0.6463,-0.6671,-0.6658,-0.6627,-0.6627,-0.6627,-0.6607,-0.6552,-0.739,-0.7441,-0.6417,-0.8263,-0.9412,-0.9582,-1.0954,-1.1296,-1.0422,-1.0853,-1.0036,-0.8038,-0.9805,-1.0381,-0.9912,-1.0098,-0.9994,-0.9518,-0.7964,-0.738,-0.7533,-0.7678,-0.7767,-0.7855,-0.8306,-0.8482,-0.852,-0.8825,-0.8851,-0.8876,-0.8971,-0.9057,-0.9062,-0.9418,-0.9561,-0.9625,-0.9774,-0.9788,-0.9781,-0.9869,-0.9909,-1.0042,-1.0341,-1.0419,-1.0446,-1.0544,-1.0646,-1.0694,-1.0592,-1.0649,-1.0721,-1.0721,-1.0721,-1.0721,-1.0721,-1.0721,-1.0721,-1.0721,-1.0721,-1.0721,-1.0721,-1.0721,-1.0758,-1.0793,-1.0803,-1.0803,-1.0803,-1.1006,-1.109,-1.109,-1.1229,-1.1223,-1.1023,-1.0972,-1.0857,-1.0806,-1.0772,-1.0721,-1.0721,-1.0721,-1.0721,-1.0721,-1.0721,-1.0721,-0.6922,-0.6961,-0.6967,-0.7131,-0.7129,-0.7069,-0.6851,-0.7002,-0.7109,-0.6673,-0.6648,-0.656,-0.6177,-0.603,0.0,0.0,0.0,0.0,0.0,-0.6265,-0.6371,-0.6522,-0.6542,-0.6555,-0.6624,-0.6576,-0.6467,-0.6322,-0.7553,-0.7717,-0.6266,-0.8766,-1.0035,-0.9586,-1.1177,-1.1526,-1.0422,-1.0848,-1.0227,-0.8577,-1.0342,-1.1139,-1.1089,-1.082,-1.0534,-1.0114,-0.8227,-0.7428,-0.7533,-0.7729,-0.7841,-0.7929,-0.833,-0.8516,-0.8594,-0.8845,-0.8848,-0.8879,-0.9025,-0.9076,-0.9137,-0.9493,-0.9673,-0.9754,-0.9805,-0.9822,-0.9842,-0.9879,-0.9947,-1.0044,-1.0351,-1.0456,-1.0507,-1.0561,-1.0649,-1.0694,-1.0595,-1.0649,-1.0721,-1.0721,-1.0721,-1.0721,-1.0721,-1.0721,-1.0721,-1.0721,-1.0721,-1.0721,-1.0721,-1.0768,-1.0772,-1.087,-1.088,-1.09,-1.1019,-1.1162,-1.1243,-1.1243,-1.1389,-1.1379,-1.1241,-1.1128,-1.108,-1.1026,-1.0877,-1.0802,-1.0802,-1.0748,-1.0721,-1.0721,-1.0721,-1.0721]},{"header":{"parameterUnit":"m.s-1","parameterCategory":1,"la1":30.6,"la2":29.2853,"lo1":-89.7004,"lo2":-87.6739,"dy":0.0162,"dx":0.0183,"nx":112,"ny":82,"refTime":"2023-10-26T18:00:00:Z","depth":0,"parameterNumber":3,"parameterNumberName":"V-component_of_WINDS"},"data":[0.0,0.0,0.0,0.0,0.0,0.0,0.0,0.0,0.0,0.0,0.0,0.0,0.0,0.0,0.0,0.0,0.0,0.0,0.0,0.0,0.0,0.0,0.0,0.0,0.0,0.0,0.0,0.0,0.0,0.0,0.0,0.0,0.0,0.0,0.0,0.0,0.0,0.0,0.0,0.0,0.0,0.0,0.0,0.0,0.0,0.0,0.0,0.0,0.0,0.0,0.0,0.0,0.0,0.0,0.0,0.0,0.0,0.0,0.0,0.0,0.0,0.0,0.0,0.0,0.0,0.0,0.0,0.0,0.0,0.0,0.0,0.0,0.0,0.0,0.0,0.0,0.0,0.0,0.0,0.0,0.0,0.0,0.0,0.0,0.0,0.0,0.0,0.0,0.0,0.0,1.7377,1.8643,1.9873,2.0863,2.1412,1.9654,1.7573,1.54,0.0,0.0,0.0,0.0,0.0,0.0,0.0,0.0,0.0,0.0,0.0,0.0,0.0,0.0,0.0,0.0,0.0,0.0,0.0,0.0,0.0,0.0,0.0,0.0,0.0,0.0,0.0,0.0,0.0,0.0,0.0,0.0,0.0,0.0,0.0,0.0,0.0,0.0,0.0,0.0,0.0,0.0,0.0,0.0,0.0,0.0,0.0,0.0,0.0,0.0,0.0,0.0,0.0,0.0,0.0,0.0,0.0,0.0,0.0,0.0,0.0,0.0,0.0,0.0,0.0,0.0,0.0,0.0,0.0,0.0,0.0,0.0,0.0,0.0,0.0,0.0,0.0,0.0,0.0,0.0,0.0,0.0,0.0,0.0,0.0,0.0,0.0,0.0,0.0,0.0,0.0,0.0,0.0,0.0,0.0,0.0,0.0,0.0,0.0,0.0,0.0,0.0,0.0,0.0,1.6938,2.0482,2.1616,2.1986,2.1759,2.0085,1.831,1.6562,0.0,0.0,0.0,0.0,0.0,0.0,0.0,0.0,0.0,0.0,0.0,0.0,0.0,0.0,0.0,0.0,0.0,0.0,0.0,0.0,0.0,0.0,0.0,0.0,0.0,0.0,0.0,0.0,0.0,0.0,0.0,0.0,0.0,0.0,0.0,0.0,0.0,0.0,0.0,0.0,0.0,0.0,0.0,0.0,0.0,0.0,0.0,0.0,0.0,0.0,0.0,0.0,0.0,0.0,0.0,0.0,0.0,0.0,0.0,0.0,0.0,0.0,0.0,0.0,0.0,0.0,0.0,0.0,0.0,0.0,0.0,0.0,0.0,0.0,0.0,0.0,0.0,0.0,0.0,0.0,0.0,0.0,0.0,0.0,0.0,0.0,0.0,0.0,0.0,0.0,0.0,0.0,0.0,0.0,0.0,0.0,0.0,0.0,0.0,0.0,0.0,0.0,0.0,1.8151,1.9356,2.2558,2.2609,2.2503,2.2707,2.0459,1.852,1.7336,1.5851,0.0,0.0,0.0,0.0,0.0,0.0,0.0,0.0,0.0,0.0,0.0,0.0,0.0,0.0,0.0,0.0,0.0,0.0,0.0,0.0,0.0,0.0,0.0,0.0,0.0,0.0,0.0,0.0,0.0,0.0,0.0,0.0,0.0,0.0,0.0,0.0,0.0,0.0,0.0,0.0,0.0,0.0,0.0,0.0,0.0,0.0,0.0,0.0,0.0,0.0,0.0,0.0,0.0,0.0,0.0,0.0,0.0,0.0,0.0,0.0,0.0,0.0,0.0,0.0,0.0,0.0,0.0,0.0,0.0,0.0,0.0,0.0,0.0,0.0,0.0,0.0,0.0,0.0,0.0,0.0,0.0,0.0,0.0,0.0,0.0,0.0,0.0,0.0,0.0,0.0,0.0,0.0,0.0,0.0,0.0,0.0,0.0,0.0,0.0,0.0,0.0,0.0,2.0875,2.1865,2.3892,2.3354,2.2987,2.3437,2.0855,1.8876,1.8085,1.6404,0.0,0.0,0.0,0.0,0.0,0.0,0.0,0.0,0.0,0.0,0.0,0.0,0.0,0.0,0.0,0.0,0.0,0.0,0.0,0.0,0.0,0.0,0.0,0.0,0.0,0.0,0.0,0.0,0.0,0.0,0.0,0.0,0.0,0.0,0.0,0.0,0.0,0.0,0.0,0.0,0.0,0.0,0.0,0.0,0.0,0.0,0.0,0.0,0.0,0.0,0.0,0.0,0.0,0.0,0.0,0.0,0.0,0.0,0.0,0.0,0.0,0.0,0.0,0.0,0.0,0.0,0.0,0.0,0.0,0.0,0.0,0.0,0.0,0.0,0.0,0.0,0.0,0.0,0.0,0.0,0.0,0.0,0.0,0.0,0.0,0.0,0.0,0.0,0.0,0.0,0.0,0.0,0.0,0.0,0.0,0.0,0.0,0.0,0.0,0.0,0.0,0.0,2.1293,2.3101,2.3829,2.3834,2.3668,2.3316,2.1343,1.9796,1.9039,1.7007,0.0,0.0,0.0,0.0,0.0,0.0,0.0,0.0,0.0,0.0,0.0,0.0,0.0,0.0,0.0,0.0,0.0,0.0,0.0,0.0,0.0,0.0,0.0,0.0,0.0,0.0,0.0,0.0,0.0,0.0,0.0,0.0,0.0,0.0,0.0,0.0,0.0,0.0,0.0,0.0,0.0,0.0,0.0,0.0,0.0,0.0,0.0,0.0,0.0,0.0,0.0,0.0,0.0,0.0,0.0,0.0,0.0,0.0,0.0,0.0,0.0,0.0,0.0,0.0,0.0,0.0,0.0,0.0,0.0,0.0,0.0,0.0,0.0,0.0,0.0,0.0,0.0,0.0,0.0,0.0,0.0,0.0,0.0,0.0,0.0,0.0,0.0,0.0,0.0,0.0,0.0,0.0,0.0,0.0,0.0,0.0,0.0,0.0,0.0,0.0,0.0,0.0,2.0527,2.1981,2.3195,2.3335,2.3072,2.2415,2.0686,1.9325,1.8533,0.0,0.0,0.0,0.0,0.0,0.0,0.0,0.0,0.0,0.0,0.0,0.0,0.0,0.0,0.0,0.0,0.0,0.0,0.0,0.0,0.0,0.0,0.0,0.0,0.0,0.0,0.0,0.0,0.0,0.0,0.0,0.0,0.0,0.0,0.0,0.0,0.0,0.0,0.0,0.0,0.0,0.0,0.0,0.0,0.0,0.0,0.0,0.0,0.0,0.0,0.0,0.0,0.0,0.0,0.0,0.0,0.0,0.0,0.0,0.0,0.0,0.0,0.0,0.0,0.0,0.0,0.0,0.0,0.0,0.0,0.0,0.0,0.0,0.0,0.0,0.0,0.0,0.0,0.0,0.0,0.0,0.0,0.0,0.0,0.0,0.0,0.0,0.0,0.0,0.0,0.0,0.0,0.0,0.0,0.0,0.0,0.0,0.0,0.0,0.0,0.0,0.0,1.9715,2.1016,2.2365,2.3831,2.388,2.3515,2.2794,2.0967,1.9504,1.8637,0.0,0.0,0.0,0.0,0.0,0.0,0.0,0.0,0.0,0.0,0.0,0.0,0.0,0.0,0.0,0.0,0.0,0.0,0.0,0.0,0.0,0.0,0.0,0.0,0.0,0.0,0.0,0.0,0.0,0.0,0.0,0.0,0.0,0.0,0.0,0.0,0.0,0.0,0.0,0.0,0.0,0.0,0.0,0.0,0.0,0.0,0.0,0.0,0.0,0.0,0.0,0.0,0.0,0.0,0.0,0.0,0.0,0.0,0.0,0.0,0.0,0.0,0.0,0.0,0.0,0.0,0.0,0.0,0.0,0.0,0.0,0.0,0.0,0.0,0.0,0.0,0.0,0.0,0.0,0.0,0.0,0.0,0.0,0.0,0.0,0.0,0.0,0.0,0.0,0.0,0.0,0.0,0.0,0.0,0.0,0.0,0.0,0.0,0.0,0.0,0.0,0.0,2.1115,2.3122,2.4824,2.598,2.5764,2.529,2.4734,2.2558,2.0754,0.0,0.0,0.0,0.0,0.0,0.0,0.0,0.0,0.0,0.0,0.0,0.0,0.0,0.0,0.0,0.0,0.0,0.0,0.0,0.0,0.0,0.0,0.0,0.0,0.0,0.0,0.0,0.0,0.0,0.0,0.0,0.0,0.0,0.0,0.0,0.0,0.0,0.0,0.0,0.0,0.0,0.0,0.0,0.0,0.0,0.0,0.0,0.0,0.0,0.0,0.0,0.0,0.0,0.0,0.0,0.0,0.0,0.0,0.0,0.0,0.0,0.0,0.0,0.0,0.0,0.0,0.0,0.0,0.0,0.0,0.0,0.0,0.0,0.0,0.0,0.0,0.0,0.0,0.0,0.0,0.0,0.0,0.0,0.0,0.0,0.0,0.0,0.0,0.0,0.0,0.0,0.0,0.0,0.0,0.0,0.0,0.0,0.0,0.0,0.0,0.0,0.0,0.0,2.1511,2.3511,2.5152,2.601,2.6177,2.5809,2.4781,2.2904,2.1349,2.0369,0.0,0.0,0.0,0.0,0.0,0.0,0.0,0.0,0.0,0.0,0.0,0.0,0.0,0.0,0.0,0.0,0.0,0.0,0.0,0.0,0.0,0.0,0.0,0.0,0.0,0.0,0.0,0.0,0.0,0.0,0.0,0.0,0.0,0.0,0.0,0.0,0.0,0.0,0.0,0.0,0.0,0.0,0.0,0.0,0.0,0.0,0.0,0.0,0.0,0.0,0.0,0.0,0.0,0.0,0.0,0.0,0.0,0.0,0.0,0.0,0.0,0.0,0.0,0.0,0.0,0.0,0.0,0.0,0.0,0.0,0.0,0.0,0.0,0.0,0.0,0.0,0.0,0.0,0.0,0.0,0.0,0.0,0.0,0.0,0.0,0.0,0.0,0.0,0.0,0.0,0.0,0.0,0.0,0.0,0.0,0.0,0.0,0.0,0.0,0.0,0.0,0.0,2.2298,2.4321,2.6105,2.7192,2.7424,2.7057,2.5908,2.4246,2.2633,2.1181,0.0,0.0,0.0,0.0,0.0,0.0,0.0,0.0,0.0,0.0,0.0,0.0,0.0,0.0,0.0,0.0,0.0,0.0,0.0,0.0,0.0,0.0,0.0,0.0,0.0,0.0,0.0,0.0,0.0,0.0,0.0,0.0,0.0,0.0,0.0,0.0,0.0,0.0,0.0,0.0,0.0,0.0,0.0,0.0,0.0,0.0,0.0,0.0,0.0,0.0,0.0,0.0,0.0,0.0,0.0,0.0,0.0,0.0,0.0,0.0,0.0,0.0,0.0,0.0,0.0,0.0,0.0,0.0,0.0,0.0,0.0,0.0,0.0,0.0,0.0,0.0,0.0,0.0,0.0,0.0,0.0,0.0,0.0,0.0,0.0,0.0,0.0,0.0,0.0,0.0,0.0,0.0,0.0,0.0,0.0,0.0,0.0,0.0,0.0,0.0,0.0,0.0,2.329,2.5448,2.7422,2.8959,2.9131,2.8739,2.7606,2.6068,2.4221,2.2059,0.0,0.0,0.0,0.0,0.0,0.0,0.0,0.0,0.0,0.0,0.0,0.0,0.0,0.0,0.0,0.0,0.0,0.0,0.0,0.0,0.0,0.0,0.0,0.0,0.0,0.0,0.0,0.0,0.0,0.0,0.0,0.0,0.0,0.0,0.0,0.0,0.0,0.0,0.0,0.0,0.0,0.0,0.0,0.0,0.0,0.0,0.0,0.0,0.0,0.0,0.0,0.0,0.0,0.0,0.0,0.0,0.0,0.0,0.0,0.0,2.7329,2.5453,0.0,0.0,0.0,0.0,0.0,0.0,0.0,0.0,0.0,0.0,0.0,0.0,0.0,0.0,0.0,0.0,0.0,0.0,0.0,0.0,0.0,0.0,0.0,0.0,0.0,0.0,0.0,0.0,0.0,0.0,0.0,0.0,0.0,0.0,0.0,0.0,0.0,0.0,0.0,0.0,2.4168,2.6385,2.8213,2.9217,2.9534,2.9149,2.7854,2.637,2.4733,2.2935,2.1328,0.0,0.0,0.0,0.0,0.0,0.0,0.0,0.0,0.0,0.0,0.0,0.0,0.0,0.0,0.0,0.0,0.0,0.0,0.0,0.0,0.0,0.0,0.0,0.0,0.0,0.0,0.0,0.0,0.0,0.0,0.0,0.0,0.0,0.0,0.0,0.0,0.0,0.0,0.0,0.0,0.0,0.0,0.0,0.0,0.0,0.0,0.0,0.0,0.0,0.0,0.0,0.0,0.0,0.0,0.0,0.0,0.0,0.0,0.0,3.1612,2.9475,0.0,0.0,0.0,0.0,0.0,0.0,0.0,0.0,0.0,0.0,0.0,0.0,0.0,0.0,0.0,0.0,0.0,0.0,0.0,0.0,0.0,0.0,0.0,0.0,0.0,0.0,0.0,0.0,0.0,0.0,0.0,0.0,0.0,0.0,0.0,0.0,0.0,0.0,0.0,0.0,2.4978,2.6496,2.8006,2.9566,2.9767,2.9402,2.84,2.7218,2.5965,2.4548,2.2881,0.0,0.0,0.0,0.0,0.0,0.0,0.0,0.0,0.0,0.0,0.0,0.0,0.0,0.0,0.0,0.0,0.0,0.0,0.0,0.0,0.0,0.0,0.0,0.0,0.0,0.0,0.0,0.0,0.0,0.0,0.0,0.0,0.0,0.0,0.0,0.0,0.0,0.0,0.0,0.0,0.0,0.0,0.0,0.0,0.0,0.0,0.0,0.0,0.0,0.0,0.0,0.0,0.0,4.0099,4.0702,4.0908,3.9554,3.9806,4.1039,3.7107,3.4826,3.3756,3.1957,0.0,0.0,0.0,0.0,0.0,0.0,0.0,0.0,0.0,0.0,0.0,0.0,0.0,0.0,0.0,0.0,0.0,0.0,0.0,0.0,0.0,0.0,2.9166,2.8857,2.958,2.9406,2.6017,0.0,0.0,0.0,0.0,0.0,0.0,0.0,0.0,0.0,0.0,0.0,2.5794,2.6897,2.8225,3.0313,3.0394,3.0011,2.9296,2.8492,2.7481,2.6228,2.4713,2.3568,0.0,0.0,0.0,0.0,0.0,0.0,0.0,0.0,0.0,0.0,0.0,0.0,0.0,0.0,0.0,0.0,0.0,0.0,0.0,0.0,0.0,0.0,0.0,0.0,0.0,0.0,0.0,0.0,0.0,0.0,0.0,0.0,3.1307,3.1902,0.0,0.0,0.0,0.0,0.0,0.0,0.0,0.0,0.0,0.0,0.0,0.0,0.0,3.8436,4.0621,4.3153,4.4186,4.3734,4.6108,4.6641,4.5508,4.5317,4.5975,4.7253,4.5448,0.0,3.6229,3.5891,0.0,0.0,0.0,0.0,0.0,0.0,0.0,0.0,0.0,0.0,0.0,0.0,0.0,0.0,0.0,0.0,0.0,0.0,0.0,0.0,0.0,0.0,3.4605,3.3442,3.3201,3.2946,3.1852,2.8406,2.5115,2.3612,2.2997,2.2483,0.0,0.0,0.0,0.0,0.0,0.0,2.6849,2.8935,3.0781,3.2135,3.2249,3.1763,3.0644,3.0035,2.8967,2.7203,2.5936,2.472,2.3606,2.2857,0.0,0.0,0.0,0.0,0.0,0.0,0.0,0.0,0.0,0.0,0.0,0.0,0.0,0.0,0.0,0.0,0.0,0.0,0.0,0.0,0.0,0.0,0.0,0.0,0.0,0.0,0.0,0.0,0.0,3.2431,3.3238,3.1935,3.2298,3.1572,0.0,0.0,0.0,0.0,0.0,0.0,0.0,0.0,0.0,4.1747,4.263,4.3897,4.5637,4.7636,4.848,4.8207,4.9648,5.02,4.9898,4.9021,4.9436,5.0716,4.8969,4.6604,4.3798,4.1,3.843,3.6191,0.0,0.0,0.0,0.0,3.547,3.5991,3.7046,3.7288,3.7016,3.6423,0.0,0.0,0.0,0.0,0.0,0.0,0.0,3.1877,3.1736,3.3286,3.4926,3.5078,3.5077,3.497,3.4652,3.2363,2.9488,2.6463,2.5659,2.5027,2.3692,2.3164,0.0,0.0,0.0,2.6846,2.8688,2.9845,3.1062,3.2618,3.2324,3.1805,3.1282,3.0871,3.0113,2.8969,2.7499,2.6265,2.5371,2.4003,2.2951,0.0,0.0,0.0,0.0,0.0,0.0,0.0,0.0,0.0,0.0,0.0,0.0,0.0,0.0,0.0,0.0,0.0,0.0,0.0,0.0,0.0,0.0,0.0,0.0,0.0,0.0,0.0,0.0,3.4863,3.5513,3.274,3.4858,3.4856,0.0,0.0,0.0,0.0,0.0,0.0,4.0812,4.2014,4.3911,4.6781,4.7744,4.9071,5.0835,5.1763,5.2286,5.2503,5.271,5.2922,5.316,5.1777,5.1876,5.3016,5.1324,5.05,5.002,4.5552,4.2432,4.0379,3.9206,3.8286,3.7785,3.8744,3.9282,3.9774,4.1164,4.1459,4.1012,3.9774,3.8437,3.6819,3.4284,0.0,0.0,0.0,0.0,3.319,3.3727,3.4376,3.5156,3.6162,3.6359,3.6327,3.6327,3.5109,3.2898,2.9142,2.8272,2.7574,2.5783,2.5059,0.0,2.5935,2.6862,2.811,2.9886,3.0498,3.1308,3.2667,3.2371,3.196,3.1617,3.15,3.1037,3.0043,2.8794,2.7659,2.6647,2.505,2.3795,2.2949,0.0,0.0,0.0,0.0,0.0,0.0,0.0,0.0,0.0,0.0,0.0,0.0,0.0,0.0,0.0,0.0,0.0,0.0,0.0,0.0,0.0,0.0,0.0,0.0,0.0,0.0,0.0,0.0,0.0,3.6772,4.0265,0.0,0.0,0.0,0.0,3.936,4.1446,4.3714,4.6106,4.7591,4.9826,5.2943,5.2369,5.3433,5.6376,5.5766,5.5817,5.6491,5.5832,5.5155,5.4462,5.3703,5.3788,5.4464,5.367,5.2876,5.1914,4.8528,4.5908,4.3959,4.3186,4.249,4.1912,4.2042,4.2577,4.3265,4.3344,4.2583,4.1786,4.3005,4.1017,3.8117,3.7939,3.6345,0.0,0.0,3.5375,3.5954,3.6177,3.6751,3.7337,3.7399,3.727,3.7159,3.7159,3.5491,3.3333,3.1089,3.0114,2.9238,2.7802,0.0,2.7521,2.7594,2.8709,2.9577,2.9637,3.123,3.2422,3.2512,3.3048,3.2899,3.1589,3.2065,3.1617,2.9734,2.9552,2.8626,2.6677,2.5905,2.4896,2.3581,2.35,0.0,0.0,0.0,0.0,0.0,0.0,0.0,0.0,0.0,0.0,0.0,0.0,0.0,0.0,0.0,0.0,0.0,0.0,0.0,0.0,0.0,0.0,0.0,0.0,0.0,0.0,0.0,0.0,4.1085,4.4136,0.0,4.198,4.2252,4.3081,4.4204,4.5654,4.7657,5.0311,5.1968,5.358,5.5196,5.5791,5.6146,5.6281,5.6379,5.6072,5.5378,5.5124,5.4617,5.3873,5.3619,5.3653,5.3873,5.3619,5.3044,5.2181,5.0514,4.8578,4.6597,4.633,4.5781,4.5147,4.5198,4.5674,4.6207,4.5261,4.4947,4.474,4.3363,4.1103,3.8832,3.8463,3.742,3.6422,3.6491,3.6996,3.7539,3.7596,3.7809,3.8016,3.8016,3.7659,3.7326,3.7326,3.609,3.4559,3.3236,3.1678,3.0419,2.9918,2.9104,2.882,2.9699,2.9864,3.0216,3.1041,3.1343,3.1813,3.2688,3.2205,3.1841,3.1826,3.1209,3.035,2.9218,2.8343,2.7363,2.627,2.5561,2.4798,2.3876,2.3438,2.3338,0.0,0.0,0.0,0.0,0.0,0.0,0.0,0.0,0.0,0.0,0.0,0.0,0.0,0.0,0.0,0.0,0.0,0.0,0.0,0.0,0.0,0.0,0.0,0.0,0.0,4.1707,4.4272,4.4017,4.7505,4.888,4.6124,4.6652,4.7622,4.8774,4.996,5.1455,5.3339,5.4956,5.6064,5.6577,5.7172,5.7325,5.6865,5.6674,5.623,5.5518,5.4992,5.4381,5.3651,5.333,5.3076,5.2839,5.2756,5.2283,5.1522,5.1031,4.983,4.8291,4.8291,4.797,4.7513,4.7259,4.7479,4.7635,4.5923,4.5635,4.5645,4.3221,4.1303,3.9864,3.9489,3.8826,3.8233,3.8233,3.8417,3.8601,3.8601,3.8446,3.8306,3.8306,3.7805,3.7409,3.7661,3.6456,3.5187,3.4694,3.3054,3.1642,3.1374,3.06,3.0312,3.1192,3.0964,3.0904,3.1571,3.1253,3.1195,3.1849,3.1331,3.0937,3.098,3.0543,2.9709,2.8334,2.7622,2.6797,2.5713,2.5439,2.4915,2.4019,2.3355,2.3355,2.4003,0.0,0.0,0.0,0.0,0.0,0.0,0.0,0.0,0.0,0.0,0.0,0.0,0.0,0.0,0.0,0.0,0.0,0.0,0.0,0.0,0.0,0.0,0.0,4.0775,4.5247,4.7729,4.5686,5.0587,5.2694,4.9162,5.071,5.2284,5.3002,5.4338,5.5175,5.5193,5.6543,5.7311,5.7294,5.6611,5.6936,5.8406,5.6953,5.6543,5.7226,5.5774,5.4699,5.3965,5.3034,5.2221,5.1507,5.1298,5.0794,5.0132,5.0132,4.9692,4.9001,4.9001,4.8984,4.8883,4.8173,4.7855,4.753,4.5365,4.4615,4.4327,4.2811,4.1813,4.1204,4.1204,4.0679,4.0096,4.0096,3.9696,3.9232,3.9232,3.8794,3.8379,3.8379,3.7788,3.7436,3.8128,3.6567,3.5063,3.534,3.4216,3.2955,3.2159,3.201,3.1994,3.2025,3.1979,0.0,3.1055,3.0964,3.0721,3.0069,3.0585,3.0448,2.9143,3.0175,2.9765,2.7139,2.7549,2.7003,2.5082,2.5599,2.5347,2.4034,2.3453,2.3437,2.4003,0.0,0.0,0.0,0.0,0.0,0.0,0.0,0.0,0.0,0.0,0.0,0.0,0.0,0.0,0.0,0.0,0.0,0.0,0.0,0.0,0.0,4.3671,4.5929,4.6021,4.8363,5.0864,5.2968,5.5141,5.6286,5.5791,5.5908,5.6062,5.615,5.6282,5.652,5.6952,5.7449,5.7482,5.6932,5.714,5.6918,5.6267,5.6235,5.6013,5.5689,5.5279,5.4732,5.3963,5.313,5.262,5.2431,5.1821,5.1143,5.0461,5.0461,5.0049,4.9337,4.9094,4.868,4.8189,4.7956,4.7212,4.6227,4.5618,4.4671,4.3673,4.325,4.2252,4.1204,4.1204,4.0679,4.0096,4.0096,3.9969,3.985,3.985,3.9747,3.9601,3.9601,3.8721,3.791,3.8107,3.6486,3.5017,3.5096,3.4382,3.3462,3.2456,3.1888,3.1735,3.2226,3.1447,3.0773,3.0589,3.0573,3.0497,3.0313,3.0451,3.042,3.0052,2.901,2.7846,2.6566,2.5739,2.5286,2.521,2.4918,2.4581,2.4213,2.4331,2.4331,0.0,0.0,0.0,0.0,0.0,0.0,0.0,0.0,0.0,0.0,0.0,0.0,0.0,0.0,0.0,0.0,0.0,0.0,0.0,0.0,0.0,0.0,4.7547,5.0056,5.2109,5.2772,5.3967,5.645,5.7498,5.813,5.8562,5.8065,5.7689,5.7621,5.7378,5.7151,5.6862,5.7204,5.7098,5.6322,5.6603,5.6502,5.5986,5.5973,5.5735,5.5306,5.4998,5.4278,5.3215,5.2689,5.211,5.1477,5.1005,5.0547,5.0154,5.0154,4.9881,4.9453,0.0,0.0,0.0,0.0,4.6314,4.5264,4.4886,4.3988,4.2976,4.2654,4.1825,4.0909,4.0909,4.0603,4.0288,4.0288,4.0288,4.0288,4.0288,4.0288,4.0246,4.0188,3.9142,3.8212,3.8497,3.6854,3.5366,3.5448,3.4857,0.0,3.3214,3.2751,3.2625,3.2992,3.2421,3.1807,3.1498,3.12,3.1027,3.1027,3.0842,3.0581,3.0351,2.9289,0.0,0.0,0.0,2.5555,2.5801,2.5161,0.0,0.0,0.0,2.5505,2.5264,2.5505,0.0,0.0,2.4364,2.4193,0.0,0.0,0.0,0.0,0.0,0.0,0.0,0.0,0.0,0.0,0.0,0.0,0.0,0.0,0.0,0.0,5.0914,5.3373,5.7674,5.7395,5.7029,5.7711,5.8431,5.894,5.9028,5.8507,5.813,5.813,5.7977,5.7357,5.6064,5.6512,0.0,0.0,0.0,5.5908,5.6529,5.5839,5.5495,5.5477,5.4822,5.3787,5.2446,5.2238,5.1352,4.9948,4.9761,4.9616,4.9547,4.9462,4.9325,4.9103,4.8509,4.8206,4.795,4.6391,4.5382,4.4701,4.3773,0.0,0.0,4.1656,4.1008,4.051,4.051,4.051,4.051,4.051,4.051,4.051,4.051,4.051,4.0468,4.0235,3.9177,3.8338,3.8833,3.7296,3.5892,3.6044,3.5388,3.4653,3.4178,3.3981,3.3881,3.3881,3.3817,3.3484,3.2757,3.2279,3.1947,3.1785,3.1502,0.0,3.0339,3.031,2.9439,2.7342,2.7189,2.7046,2.6658,2.6147,2.6442,2.7688,2.71,2.6779,2.6756,2.6779,2.6454,2.5748,2.4957,2.4555,0.0,0.0,0.0,0.0,0.0,0.0,0.0,0.0,0.0,0.0,0.0,0.0,0.0,0.0,0.0,5.1057,5.4404,5.6997,5.7949,5.8951,5.9761,6.0174,5.9805,5.9781,6.0434,5.9945,5.9566,5.9566,5.8553,5.803,5.834,5.7357,5.6736,5.6581,5.5943,5.5408,5.496,5.4805,5.4718,5.4718,5.4581,0.0,5.4046,5.3411,5.2605,5.1675,5.1059,5.0457,4.9854,4.9217,4.8225,4.7193,4.7352,4.7079,4.6419,4.5514,4.5087,4.4848,4.4087,4.3293,4.2552,4.1801,4.1075,4.051,4.051,4.051,0.0,4.051,4.051,4.051,4.051,4.051,4.0356,3.971,3.8873,3.8071,3.7604,3.6683,3.5966,3.6014,3.5409,3.4856,3.473,3.3829,3.3113,3.3113,3.262,3.1966,3.1279,3.2078,3.2272,3.1124,3.1934,3.2047,3.0792,3.0209,2.9486,2.8506,2.8446,2.8165,2.7575,2.7944,2.8042,2.779,2.7961,2.7895,2.7579,2.7895,2.7836,2.7421,2.6557,2.6162,0.0,0.0,0.0,0.0,0.0,0.0,0.0,0.0,0.0,0.0,0.0,4.414,4.6177,0.0,5.1077,5.394,5.6418,5.8143,5.8547,5.93,5.9853,6.0022,6.0132,6.02,6.0182,6.0351,6.0118,5.931,5.9053,5.8611,5.7796,5.7157,5.646,5.5667,5.527,5.4874,5.4512,5.4512,5.4512,5.4512,5.4512,5.4322,5.3942,5.358,5.277,5.1619,5.1269,5.0683,4.9976,4.9579,4.8499,4.7207,4.7791,4.7071,4.5699,4.525,4.5113,4.4984,4.4194,4.3425,4.2689,4.1953,4.1248,4.0704,4.0704,4.0704,4.0704,4.0704,4.0704,4.0704,4.0704,4.0412,3.9993,3.9538,3.8625,3.7722,3.7295,3.661,3.6101,3.6101,3.5459,3.4903,3.4903,3.3696,3.2896,3.3245,3.2995,3.2624,3.2254,3.2475,3.2685,3.2663,3.2383,3.2076,3.1778,3.0434,2.9473,2.9177,2.9016,2.8824,2.855,2.8865,2.9065,2.9104,2.9295,2.9295,2.9104,2.9295,2.9128,2.8611,2.8519,2.8037,0.0,0.0,0.0,0.0,0.0,0.0,0.0,4.1792,4.2856,4.4158,4.5571,4.7388,5.0051,5.1316,5.3078,5.6492,5.7703,5.8455,5.9093,5.9313,5.9368,5.9221,5.9935,6.0217,5.9735,6.0392,6.0311,5.903,5.9456,5.9036,5.725,5.6892,5.624,5.515,5.4821,5.4665,5.4665,5.4557,5.4512,5.4512,5.4512,5.4201,5.3615,5.3477,5.2649,5.1304,5.1129,5.0674,5.0077,4.9981,4.9111,4.7889,4.84,4.7379,4.5621,4.5497,4.5471,4.5324,4.4325,4.3529,4.2841,4.2085,4.1419,4.0912,4.0912,4.0912,4.0912,4.0912,4.0912,4.0912,4.0912,4.0429,3.983,3.9422,3.851,3.759,3.7188,3.6655,3.6208,3.6208,3.5423,3.4744,3.4744,3.3576,3.2855,3.3396,3.3499,3.3424,3.3223,3.307,3.3267,3.405,3.2945,3.2295,3.2655,3.1049,2.9985,2.9881,2.9685,2.96,2.9706,2.9741,3.0015,3.0613,3.0613,3.0613,3.0613,3.0613,3.0305,2.9759,3.0358,2.9835,3.8695,3.8618,3.9297,4.1277,4.1368,4.2434,0.0,4.8434,4.8361,5.1351,5.2692,5.3427,5.3794,5.5097,5.651,5.7685,5.8547,5.9093,5.9184,5.9808,6.0015,5.9276,5.9302,5.9608,6.0231,6.055,6.0666,6.0458,5.958,5.9194,5.9598,5.7644,5.679,5.7333,5.6002,5.5313,5.5313,5.4759,5.4512,5.4512,5.4512,5.4477,5.4356,5.3701,5.2925,5.2011,5.1207,5.0656,5.0332,4.9837,4.9162,4.8373,4.7979,4.7258,4.6448,4.6448,4.6448,4.6224,4.4759,4.376,4.3044,4.225,4.1492,4.0912,4.0912,4.0912,4.0912,4.0912,4.0912,4.0912,4.0912,4.0843,4.0429,3.9043,3.8594,3.8094,3.6711,3.6349,3.628,3.628,3.5142,3.4194,3.4194,3.3434,3.2842,3.275,3.271,3.2488,3.182,3.3427,3.4161,3.2946,3.3826,3.3993,3.2713,3.2372,3.1983,3.1319,3.1255,3.1242,3.1242,3.1242,3.1293,3.1378,3.1378,3.1378,3.1378,3.1378,3.1367,3.1339,3.1444,3.0974,4.146,4.1479,4.1846,4.3332,4.4874,4.6746,4.9481,5.0655,5.1683,5.3518,5.4913,5.5794,5.5794,5.673,5.7611,5.7941,5.8694,5.9038,5.8584,5.8786,5.8712,5.7882,5.7391,5.7795,5.9538,6.02,6.0149,5.92,5.9655,5.9685,5.903,5.8181,5.7688,5.7599,5.65,5.5915,5.5915,5.5658,5.556,5.556,5.556,5.556,5.5525,5.4739,5.369,5.2459,5.1617,5.1195,5.1076,5.085,4.9886,4.8521,4.8714,4.8067,4.6978,4.6704,4.632,4.5673,4.419,4.3465,4.3,4.1774,4.1153,4.0912,4.0912,4.0912,4.0912,4.0912,4.0912,4.0912,4.0912,4.0567,4.0026,3.9388,3.8905,3.8323,3.7215,3.6991,3.6853,3.6387,3.5456,3.4731,3.4731,3.4111,3.3574,3.3476,3.3476,3.3488,3.3531,3.3993,3.4059,3.3382,3.384,3.3772,3.2676,3.2198,3.1824,3.1593,3.1559,3.1578,3.167,3.167,3.167,3.167,3.167,3.167,3.167,3.167,3.1688,3.1709,3.1278,3.1141,4.3002,4.3479,4.4176,4.5681,4.8159,5.0437,5.1098,5.2784,5.4363,5.495,5.5996,5.673,5.651,5.7157,5.7804,5.8006,5.858,5.8842,5.8497,5.8033,5.7537,5.6948,5.6158,5.636,5.8125,5.9158,5.9355,5.84,5.9641,6.0012,5.9077,5.8736,5.8447,5.8124,5.7119,5.6554,5.6519,5.6384,5.6303,5.6303,5.6303,5.6303,5.6267,5.5241,5.4098,5.291,5.214,5.179,5.1712,5.155,5.0477,4.8951,4.9323,4.8673,4.7424,4.6863,4.6412,4.589,4.4277,4.3551,4.3145,4.1684,4.1067,4.0912,4.0912,4.0912,4.0912,4.0912,4.0912,4.0912,4.0912,4.048,3.9974,3.975,3.9284,3.8698,3.7961,3.7806,3.7633,3.7042,3.6335,3.5818,3.5818,3.5407,3.5045,3.5045,3.5218,3.5194,3.4802,3.4455,3.4315,3.4456,3.4456,3.4042,3.3083,3.2518,3.2059,3.167,3.1671,3.1709,3.18,3.18,3.18,3.18,3.18,3.18,3.18,3.18,3.18,3.1783,3.1248,3.1282,4.2323,4.3479,4.5443,4.8656,5.0712,5.2548,5.4898,5.6088,5.6712,5.673,5.6785,5.6565,5.5776,5.6397,5.7295,5.8068,5.8323,5.8688,5.9446,5.815,5.7116,5.7097,5.6377,5.5934,5.599,5.7269,5.8382,5.9093,5.9516,6.0051,6.0786,5.9401,5.8928,5.9608,5.8101,5.7216,5.7091,5.6554,5.6303,5.6303,5.6303,5.6303,5.6249,5.4652,5.3792,5.353,5.2728,5.2217,5.1951,5.1445,5.0715,4.9902,4.9418,4.8728,4.7873,4.7084,4.728,4.7637,4.5652,4.4466,4.3658,4.2393,4.1481,4.0912,4.0912,4.0912,4.0912,4.0912,4.0912,4.0912,4.0912,4.0877,4.067,3.9888,3.9681,3.9457,3.8715,3.8582,3.8543,3.8525,3.7944,3.7426,3.7426,3.7409,3.7409,3.7409,3.8013,3.7404,3.449,3.4731,3.5439,3.6163,3.6232,3.5628,3.418,3.4024,3.3386,3.1886,3.18,3.18,3.18,3.18,3.18,3.18,3.18,3.18,3.18,3.18,3.18,3.18,3.1783,3.1783,4.3067,4.564,4.8679,5.0855,5.3013,5.4946,5.6347,5.7287,5.7564,5.6436,5.5325,5.4144,5.2804,5.2766,5.341,5.4857,5.6024,5.723,5.8615,5.7857,5.6953,5.6359,5.5604,5.5106,5.5104,5.6018,5.6934,5.7744,5.8423,5.9145,5.9989,5.9559,5.9375,5.9622,5.8505,5.7867,5.7844,5.7565,5.7425,5.7425,5.6897,5.6073,5.5018,5.4472,5.3891,5.3281,5.2477,5.2069,5.194,5.1224,5.0262,4.9199,4.9005,4.8433,4.7645,4.683,4.6892,4.7075,4.4678,4.3704,4.3302,4.2076,4.1515,4.1237,4.0989,4.0912,4.0912,4.0912,4.0912,4.0912,4.0912,4.0912,4.0843,4.0567,4.0515,4.0267,3.9491,3.9319,3.9181,3.8681,3.841,3.8237,3.8237,3.8237,3.8237,3.8237,3.8444,3.8237,3.7236,3.7284,3.7542,3.7784,3.6904,3.6094,3.5594,3.4645,3.3645,3.2593,3.2524,3.2317,3.1817,3.18,3.18,3.18,3.18,3.18,3.18,3.18,3.18,3.1783,3.13,3.1317,4.582,4.8495,5.1284,5.3501,5.4979,5.6122,5.6971,5.7119,5.662,5.4956,5.3291,5.163,5.0008,4.9952,5.0506,5.1635,5.3208,5.4968,5.6892,5.6485,5.6097,5.643,5.5766,5.5266,5.5264,5.5727,5.6224,5.6657,5.7713,5.8625,5.918,5.926,5.9408,5.966,5.8781,5.8268,5.8197,5.8111,5.7895,5.7574,5.7106,5.6191,5.4905,5.4592,5.4151,5.3597,5.2475,5.183,5.1499,5.0692,4.9687,4.8618,4.8618,4.8309,4.7745,4.6963,4.6829,4.6798,4.473,4.3837,4.3432,4.2494,4.1968,4.1692,4.144,4.1351,4.1351,4.1351,4.1255,4.1117,4.1117,4.1012,4.0912,4.0912,4.0912,4.0774,4.0233,4.0112,3.9974,3.9514,3.9428,3.9428,3.9428,3.9428,3.9428,3.9428,3.9428,3.9221,3.8663,3.8594,3.8594,3.8594,3.7473,3.6611,3.6318,3.518,3.4145,3.3369,3.3317,3.311,3.2628,3.2352,3.2179,3.2179,3.1921,3.18,3.18,3.18,3.18,3.1783,3.13,3.1334,5.0102,5.1876,5.3354,5.6401,5.6528,5.6103,5.6823,5.5715,5.4072,5.2445,5.0729,4.9012,4.7387,4.7938,4.8658,4.8769,5.036,5.2438,5.4909,5.4574,5.4946,5.7342,5.6915,5.6413,5.6413,5.6413,5.6294,5.5995,5.7503,5.8474,5.8511,5.8635,5.9006,5.9736,5.8937,5.8422,5.8219,5.8197,5.7729,5.6771,5.6879,5.6503,5.5656,5.4828,5.4441,5.4349,5.2681,5.152,5.0729,4.9886,4.906,4.8306,4.8306,4.8306,4.8214,4.7388,4.7094,4.6928,4.5797,4.4843,4.4058,4.353,4.2867,4.2218,4.2198,4.2198,4.2198,4.2198,4.1885,4.1539,4.1539,4.1237,4.0918,4.0918,4.0894,4.0912,4.0912,4.0912,4.0912,4.0912,4.0912,4.0912,4.0912,4.0912,4.0912,4.0912,4.0912,4.0377,3.8927,3.8738,3.8738,3.8738,3.8065,3.7305,3.649,3.5732,3.4993,3.4217,3.4165,3.4148,3.4113,3.3317,3.2904,3.2904,3.2179,3.18,3.18,3.18,3.18,3.18,3.18,3.18,5.1695,5.455,5.6982,5.6629,5.637,5.6091,5.5626,5.3828,5.1769,5.0101,4.7452,4.4918,4.337,4.4707,4.6654,4.856,5.1807,5.515,5.8234,5.7973,5.7918,5.9144,5.8586,5.8103,5.8103,5.8103,5.7823,5.7149,5.7503,5.8025,5.8638,5.8677,5.8788,5.8972,5.8683,5.8468,5.8425,5.8268,5.7501,5.6126,5.612,5.5404,5.4086,5.3865,5.3754,5.3662,5.2055,5.1167,5.0775,4.9358,4.8584,4.8306,4.8306,4.8306,4.8214,4.7388,4.7094,4.7057,4.6743,4.5736,4.4382,4.3371,4.2874,4.2653,4.2318,4.2198,4.2198,4.2198,4.2115,4.2011,4.2011,4.1687,4.1351,4.1351,4.1117,4.0912,4.0912,4.0912,4.0912,4.0912,4.0912,4.0912,4.0912,4.0912,4.0912,4.0912,4.0912,4.0774,4.0359,4.0308,4.0308,4.0308,3.9618,3.8819,3.8077,3.7335,3.6339,3.499,3.4921,3.4683,3.413,3.3317,3.2904,3.2904,3.2179,3.18,3.18,3.18,3.18,3.18,3.18,3.18,5.4794,5.7171,5.8939,5.7676,5.6543,5.5317,5.3775,5.1528,4.9206,4.7163,4.4679,4.251,4.1293,4.273,4.4663,4.6475,4.9596,5.32,5.7193,5.736,5.7936,6.0202,5.9738,5.9237,5.9237,5.8921,5.8512,5.8066,5.8029,5.8085,5.8178,5.8512,5.8549,5.8196,5.8097,5.7867,5.7455,5.7282,5.6593,5.5362,5.5399,5.4773,5.3598,5.3598,5.3598,5.3485,5.182,5.1022,5.0777,4.9157,4.8419,4.8306,4.8306,4.8306,4.8251,4.7791,4.7626,4.7571,4.7223,4.6507,4.559,4.4565,4.398,4.356,4.2955,4.3023,4.3294,4.3294,4.3158,4.3019,4.3019,4.2424,4.1799,4.1799,4.1644,4.1463,4.1463,4.1463,4.1463,4.1463,4.1463,4.1463,4.1463,4.1283,4.1163,4.1163,4.0995,4.0912,4.0912,4.0912,4.0912,4.0912,4.0164,3.9526,3.9112,3.8116,3.7133,3.6249,3.587,3.549,3.5076,3.4318,3.3749,3.3421,3.2662,3.2127,3.18,3.18,3.18,3.18,3.18,3.18,5.8122,5.9385,5.9812,5.8661,5.6525,5.4054,5.1621,4.8983,4.6401,4.4153,4.2389,4.1051,4.0346,4.1627,4.3169,4.4302,4.6568,4.9893,5.4816,5.5503,5.6952,6.089,6.0611,6.0107,6.0221,5.9404,5.8865,5.8865,5.8772,5.8401,5.7713,5.8234,5.8178,5.7379,5.7342,5.6967,5.6142,5.5981,5.5533,5.4739,5.4839,5.4491,5.3715,5.3715,5.3715,5.3621,5.2007,5.1227,5.0944,4.9342,4.8585,4.8471,4.8361,4.8306,4.8306,4.8306,4.8306,4.8214,4.7498,4.7259,4.7113,4.6195,4.5424,4.4727,4.403,4.4305,4.4874,4.4874,4.4528,4.4173,4.4173,4.3248,4.2279,4.2279,4.2257,4.2198,4.2198,4.2198,4.2234,4.2341,4.2269,4.2198,4.2198,4.1864,4.1618,4.1745,4.1353,4.1099,4.1227,4.1058,4.0912,4.0912,4.0267,3.9819,3.9698,3.8525,3.7754,3.765,3.6887,3.6456,3.6456,3.5645,3.4887,3.4268,3.3455,3.2748,3.211,3.211,3.211,3.2093,3.199,3.199,5.8586,5.9812,6.0295,5.7435,5.4853,5.2382,4.9893,4.6382,4.3336,4.224,4.068,3.9491,3.9342,4.1237,4.3726,4.6587,4.9132,5.2475,5.7379,5.8066,5.9088,6.1874,6.1484,6.1243,6.1911,6.0593,5.9701,5.9701,5.9088,5.8642,5.8512,5.7992,5.7342,5.6525,5.6506,5.6412,5.6262,5.6123,5.5677,5.4961,5.4919,5.4513,5.3774,5.3774,5.3774,5.3719,5.2772,5.2232,5.1928,5.0304,4.9564,4.9317,4.8581,4.8306,4.8306,4.8306,4.8306,4.8288,4.8141,4.8104,4.7865,4.6379,4.581,4.5663,4.5535,4.5571,4.5681,4.5681,4.515,4.4601,4.4601,4.3687,4.2787,4.2787,4.2478,4.2198,4.2198,4.2198,4.2394,4.3057,4.2665,4.2198,4.2198,4.2136,4.2287,4.297,4.2441,4.22,4.2882,4.1775,4.0912,4.0912,4.0791,4.0429,3.975,3.9457,3.906,3.8439,3.7719,3.7305,3.7305,3.5939,3.5128,3.5007,3.4266,3.3837,3.3699,3.3699,3.3699,3.3699,3.3024,3.3059,5.9887,6.0593,6.0518,5.7639,5.4741,5.1732,4.8407,4.5138,4.2314,4.0643,3.9658,3.9101,3.9101,4.0791,4.2835,4.4822,4.6884,5.0079,5.541,5.6525,5.8178,6.1949,6.1689,6.1354,6.1744,6.0277,5.9292,5.9292,5.8921,5.8716,5.8716,5.7546,5.6487,5.5652,5.5224,5.5001,5.5001,5.4943,5.4739,5.4388,5.433,5.4145,5.3813,5.3813,5.3813,5.3775,5.2958,5.253,5.2322,5.1044,5.0173,4.9595,4.9133,4.8691,4.8306,4.8306,4.8306,4.8306,4.8306,4.8306,4.8177,4.7407,4.6874,4.6452,4.603,4.6195,4.6526,4.6526,4.625,4.5938,4.5938,4.5205,4.4455,4.4455,4.4305,4.4134,4.4134,4.4134,4.4116,4.408,4.3772,4.3373,4.2956,4.3054,4.3312,4.371,4.3578,4.3453,4.34,4.2695,4.204,4.1631,4.1596,4.142,4.1033,4.0647,4.0299,3.993,3.9174,3.8755,3.8755,3.7426,3.6519,3.6155,3.5366,3.4791,3.4408,3.4598,3.4581,3.4391,3.4007,3.3928,6.0537,6.0927,6.0555,5.7918,5.4909,5.1528,4.7423,4.4581,4.2092,3.9602,3.9101,3.9101,3.9101,4.0178,4.1441,4.2612,4.4042,4.6958,5.2512,5.4296,5.6655,6.1094,6.1206,6.0927,6.0927,5.9571,5.8716,5.8716,5.8549,5.8438,5.8438,5.7082,5.5912,5.5039,5.4221,5.3813,5.3813,5.3813,5.3813,5.3813,5.3813,5.3813,5.3813,5.3813,5.3813,5.3775,5.3144,5.2827,5.2676,5.1728,5.0801,4.993,4.9705,4.9169,4.8563,4.8379,4.8416,4.8526,4.8361,4.8306,4.8306,4.8306,4.7865,4.7241,4.6617,4.6874,4.7351,4.7351,4.7223,4.7094,4.7094,4.6507,4.5902,4.5902,4.5902,4.5957,4.6122,4.6012,4.5755,4.5296,4.5076,4.4764,4.4121,4.4273,4.4539,4.4721,4.4827,4.4713,4.4263,4.3883,4.3434,4.2803,4.2407,4.2198,4.2198,4.1683,4.1326,4.1326,4.0578,4.0168,4.0168,3.9073,3.8137,3.7378,3.6917,3.621,3.5293,3.574,3.5723,3.533,3.5153,3.5006,5.9125,6.0054,6.0425,5.7212,5.45,5.1528,4.7423,4.4581,4.2092,3.9602,3.9101,3.9101,3.9101,3.9231,4.0085,4.2426,4.354,4.5881,5.0915,5.3571,5.6023,5.8735,5.9627,6.0014,6.0014,5.9237,5.8716,5.8716,5.8029,5.7621,5.7621,5.6785,5.5912,5.5039,5.4221,5.3813,5.3813,5.3813,5.3813,5.3813,5.3813,5.3813,5.3813,5.3813,5.3813,5.3813,5.372,5.3662,5.3509,5.2578,5.1631,5.0722,4.9907,4.9555,4.939,4.86,4.8765,4.9279,4.8545,4.8306,4.8306,4.8306,4.8251,4.8196,4.8104,4.8141,4.8196,4.8196,4.7663,4.7094,4.7094,4.6507,4.5902,4.5902,4.5902,4.6104,4.6819,4.6416,4.6085,4.6746,4.6305,4.5773,4.5681,4.5718,4.5975,4.6708,4.6231,4.6011,4.6689,4.548,4.4546,4.4491,4.3107,4.2198,4.2198,4.2144,4.2091,4.2091,4.1397,4.0989,4.0989,4.0183,3.9361,3.8558,3.9182,3.8753,3.7237,3.8005,3.8024,3.7327,3.6648,3.6701,5.8556,5.9682,5.9757,5.6989,5.3683,5.0302,4.72,4.3819,4.0921,3.9417,3.9101,3.9101,3.9101,3.9101,3.9417,4.0401,4.0847,4.2426,4.6382,4.8649,5.1528,5.5967,5.723,5.8308,5.9775,5.9181,5.8512,5.8011,5.7676,5.7286,5.6803,5.5986,5.515,5.4314,5.398,5.3813,5.3813,5.3813,5.3813,5.3813,5.3813,5.3813,5.3813,5.3813,5.3813,5.3813,5.3813,5.3774,5.3736,5.3324,5.2597,5.1649,5.0739,5.0075,4.9615,4.9244,4.8987,4.8915,4.9041,4.8746,4.8306,4.8306,4.8306,4.8306,4.8306,4.8673,4.8967,4.8453,4.8453,4.8471,4.7976,4.759,4.7352,4.7352,4.7352,4.7443,4.7736,4.7572,4.7297,4.7131,4.6837,4.6471,4.5975,4.6305,4.6727,4.7058,4.7241,4.7297,4.7113,4.6544,4.5957,4.548,4.3962,4.2977,4.2977,4.2977,4.2977,4.2977,4.2723,4.2541,4.2541,4.1541,4.0816,4.0509,4.0347,3.995,3.9302,3.942,3.92,3.8667,3.7922,3.7637,5.7221,5.8653,5.8873,5.6426,5.3009,4.9545,4.688,4.3412,4.0448,3.9415,3.917,3.9129,3.9192,3.9137,3.9101,3.9101,3.9324,4.0531,4.3578,4.5435,4.8259,5.2995,5.4314,5.58,5.8234,5.8401,5.8122,5.7546,5.7045,5.6525,5.5949,5.5113,5.45,5.4184,5.3924,5.3813,5.3813,5.3813,5.3813,5.3813,5.3813,5.3813,5.3813,5.3813,5.3813,5.3813,5.3813,5.3813,5.3756,5.3456,5.2804,5.1913,5.1225,5.0429,4.9728,4.9947,4.969,4.9304,4.9837,4.9448,4.8712,4.8712,4.8527,4.8306,4.8306,4.8728,4.9077,4.8471,4.8746,4.9058,4.8471,4.8306,4.8306,4.8306,4.8306,4.8306,4.8306,4.8306,4.8141,4.7553,4.7443,4.7259,4.6709,4.7095,4.7443,4.7443,4.7938,4.8104,4.7516,4.7241,4.6874,4.6324,4.5021,4.4103,4.3864,4.3626,4.3515,4.3515,4.3515,4.3515,4.3515,4.2684,4.2122,4.1921,4.1576,4.1211,4.0754,4.0503,4.0131,3.9611,3.887,3.8371,5.4719,5.6548,5.7813,5.5348,5.2639,4.9746,4.6444,4.3571,4.1194,3.9777,3.9285,3.9178,3.9452,3.9285,3.9101,3.9101,3.9807,4.1219,4.3652,4.5435,4.7404,4.9875,5.0915,5.2401,5.4834,5.6543,5.7509,5.7509,5.5967,5.5039,5.502,5.4258,5.4184,5.4964,5.4221,5.3813,5.3813,5.3813,5.3813,5.3813,5.3813,5.3813,5.3813,5.3813,5.3813,5.3813,5.3813,5.3813,5.3719,5.2788,5.1954,5.1195,5.1118,5.0543,4.9821,5.0747,5.1005,5.0889,5.1042,5.0469,4.9691,4.9691,4.9062,4.8306,4.8306,4.8324,4.8324,4.8306,4.8324,4.8324,4.8306,4.8306,4.8306,4.8306,4.8306,4.8306,4.8306,4.8306,4.8306,4.8306,4.8306,4.8288,4.8288,4.8288,4.8306,4.8306,4.8306,4.8306,4.8306,4.759,4.7094,4.7094,4.6361,4.5553,4.4746,4.3956,4.3515,4.3515,4.3515,4.3515,4.3515,4.3479,4.3145,4.2419,4.3175,4.2857,4.14,4.1311,4.0898,4.0178,3.9382,3.9036,5.0189,5.1509,5.208,5.0719,4.8479,4.614,4.4549,4.212,4.0071,3.9773,3.9525,3.9401,3.9471,3.9439,3.9498,3.9923,4.023,4.0861,4.2166,4.4283,4.6791,4.98,5.385,5.6469,5.6692,5.7193,5.7026,5.5893,5.5317,5.476,5.4221,5.3943,5.3924,5.4184,5.3943,5.3813,5.3813,5.3813,5.3813,5.3813,5.3813,5.3813,5.3813,5.3813,5.3813,5.3813,5.3813,5.3813,5.3794,5.3477,5.2826,5.1953,5.1379,5.099,5.0767,5.1007,5.11,5.1174,5.1727,5.1376,5.0636,5.0558,5.0316,5.0075,5.0014,4.9627,4.9206,4.9206,4.9206,4.904,4.8453,4.8306,4.8306,4.8306,4.8306,4.8306,4.8306,4.8306,4.8306,4.8306,4.8306,4.8306,4.8306,4.8306,4.8306,4.8306,4.8306,4.8306,4.8306,4.8067,4.7921,4.7921,4.7279,4.6268,4.4819,4.447,4.4102,4.3601,4.3532,4.3566,4.3703,4.3617,4.3505,4.3349,4.3607,4.3513,4.3028,4.2519,4.16,4.0335,4.0094,3.9649,4.6765,4.8276,4.8846,4.8052,4.5874,4.3738,4.2932,4.064,3.8743,3.8931,3.9069,3.918,3.9252,3.9471,3.9713,4.0008,4.0047,4.0565,4.1997,4.3707,4.6141,4.9745,5.4388,5.6989,5.619,5.6692,5.6487,5.5113,5.4723,5.4333,5.3831,5.3515,5.3348,5.3348,5.3645,5.3813,5.3813,5.3813,5.3813,5.3813,5.3813,5.3813,5.3813,5.3813,5.3627,5.3367,5.3683,5.346,0.0,5.2902,5.2549,5.1936,5.1121,5.0768,5.0787,5.1102,5.1028,5.0898,5.2028,5.1841,5.1175,5.1394,5.1003,5.0426,5.0365,5.0196,5.005,5.005,5.005,4.9848,4.9003,4.8783,4.871,4.8379,4.8306,4.8306,4.8306,4.8306,4.8306,4.8306,4.8306,4.8306,4.8306,4.8306,4.8306,4.8306,4.8325,4.8382,4.8382,4.8401,4.8402,4.8402,4.8053,4.7224,4.5826,4.5423,4.4907,4.4165,4.4042,4.393,4.3806,4.3719,4.3736,4.3853,4.3853,4.3851,4.3883,4.3098,4.2102,4.0847,4.0531,4.0104,0.0,4.6272,4.729,4.6538,4.4345,4.2173,4.1428,3.9203,0.0,3.7668,3.8204,3.8714,3.9032,3.9489,3.981,3.9707,3.9708,4.0528,4.2891,4.3959,4.5962,4.987,5.3182,5.4761,5.387,5.5283,5.5877,5.5022,5.426,5.3794,5.372,5.3014,5.2568,5.2512,5.3237,5.3664,5.372,5.372,5.3738,5.3813,5.3813,5.3738,5.3627,5.3627,5.3162,5.2382,5.32,5.2698,5.1323,5.1435,5.1416,5.1231,5.0488,5.0118,5.012,5.099,5.0823,5.0416,5.1955,5.1974,5.1417,5.2084,5.1173,4.9764,4.9703,5.016,5.071,5.071,5.071,5.0545,4.9794,4.9555,4.9317,4.8489,4.8306,4.8306,4.8306,4.8306,4.8324,4.8379,4.8343,4.8324,4.8379,4.8343,4.8306,4.8306,4.8419,4.8513,4.8513,4.855,4.8605,4.8605,4.8605,4.831,4.7552,4.6706,4.5841,4.506,4.4882,4.4514,4.3841,4.3804,4.3853,4.3915,4.3897,4.3945,4.4005,4.3243,4.2463,4.1664,4.0936,4.0531,4.1365,0.0,4.1259,4.1115,4.0092,3.9061,0.0,3.8146,3.7791,3.8703,3.8863,3.9233,4.0568,4.0425,4.0441,4.1476,4.1638,4.2054,4.3252,4.686,5.0183,5.2416,5.4822,5.5595,5.376,5.4859,5.5339,5.4533,5.4289,5.3791,5.294,5.2698,5.2327,5.1695,5.1881,5.2271,5.2884,5.2884,5.32,5.3813,5.3813,5.3162,5.1955,5.1955,5.1156,4.9819,5.0618,5.0748,5.0506,5.1788,5.1565,5.045,5.0915,5.0674,5.0099,5.0321,5.1082,5.1955,5.1751,5.1937,5.2178,5.1601,5.1041,5.0609,5.0548,5.0215,4.9886,4.9886,4.9886,4.9849,4.9647,4.9095,4.8545,4.8361,4.8306,4.8306,4.8306,4.8306,4.8508,4.9169,4.8765,4.8508,4.9169,4.8746,4.8325,4.8438,4.8476,4.8513,4.8569,4.8587,4.8605,4.8605,4.8697,4.8695,4.8491,4.7644,4.6518,4.516,4.5003,4.465,4.3979,4.3897,4.3897,4.3974,4.3974,4.3989,4.4005,4.3819,4.3299,4.25,4.2314,4.1906,3.968,4.0336,4.0927,4.1011,4.0085,3.9142,3.9142,3.7836,3.6811,3.7428,3.7721,3.829,3.9593,4.0119,4.069,4.1707,4.2208,4.2981,4.4447,4.808,5.1302,5.3266,5.484,5.5468,5.4712,5.5306,5.5397,5.4584,5.4169,5.3609,5.2877,5.2095,5.141,5.0822,5.0098,5.0636,5.2587,5.2234,5.2271,5.2698,5.307,5.2197,5.0283,5.1045,5.0283,4.8444,5.0005,5.0265,4.9689,5.1361,5.1509,5.0673,5.0376,5.019,5.006,4.9689,5.0116,5.0896,5.0822,5.1361,5.1955,5.1342,5.084,5.043,5.0314,4.9743,4.9319,5.04,5.0712,5.062,5.0233,5.0068,4.9811,4.9058,4.9187,4.9462,4.9462,4.9462,4.9591,5.005,4.9795,4.954,4.9632,4.9303,4.8918,4.8587,4.8606,4.8772,4.9196,4.8955,4.9046,4.9805,4.9249,4.9006,4.9377,4.8582,4.7582,4.6355,4.6232,4.588,4.5194,4.4756,4.4366,4.4005,4.4005,4.4005,4.4005,4.4005,4.3782,4.3336,4.2965,4.2575,3.901,4.1172,4.2973,4.2445,4.1393,4.0439,4.0189,3.7911,3.5923,3.6058,3.6615,3.745,3.8565,3.9835,4.0941,4.1723,4.2699,4.4216,4.6737,4.9096,5.1287,5.3214,5.4248,5.5007,5.5517,5.5772,5.5609,5.4922,5.4069,5.3406,5.2986,5.1346,5.0303,4.9999,4.8436,4.9015,5.2065,5.1303,5.0985,5.115,5.1786,5.0875,4.8643,5.0022,4.9373,4.7274,4.9633,4.9856,4.8667,5.0339,5.1026,5.0878,4.9447,4.9317,4.9837,4.915,4.8983,4.9187,4.9875,5.0506,5.1008,5.0861,5.0324,4.9695,4.9711,4.9212,4.9137,5.1375,5.1832,5.152,5.0949,5.1316,5.1426,4.9959,5.0196,5.0802,5.0802,5.071,5.0692,5.0949,5.0847,5.0575,5.0133,4.9971,4.964,4.8919,4.8825,4.9064,4.9749,4.9395,4.9633,5.1063,5.006,4.9559,5.0246,4.9559,4.8797,4.811,4.7782,4.7208,4.6345,4.5658,4.4878,4.4023,4.4005,4.4005,4.4005,4.4005,4.4005,4.3986,4.3299,4.2983,3.9747,4.2054,4.3155,3.9658,3.9642,4.0131,3.87,3.7988,3.7834,3.8565,3.8815,3.9604,4.1893,4.1931,4.2096,4.3609,4.5215,4.7626,5.1533,5.2457,5.286,5.3212,5.4414,5.4798,5.3736,5.4701,5.537,5.5236,5.4422,5.3484,5.2489,5.0621,4.9571,4.9508,4.7878,4.7934,4.9776,4.9005,4.9055,4.9956,4.9865,4.8893,4.7222,4.7239,4.6271,4.4674,4.6475,4.7107,4.6995,4.8612,4.928,4.9262,4.9002,4.8983,4.9076,4.8946,4.9336,4.993,5.006,4.9745,4.9263,4.9193,4.9011,4.8919,4.9527,4.956,4.9795,5.152,5.1046,5.0168,5.0675,5.0894,5.0747,4.9831,5.0196,5.0802,5.0802,5.0251,5.0198,5.1536,5.0754,5.028,5.1534,5.0709,4.988,4.9806,4.9213,4.8878,4.9041,4.956,5.0042,5.0339,5.0766,5.1063,5.1193,5.0413,4.9875,4.9745,4.8446,4.7016,4.5547,4.5361,4.4878,4.4023,4.4005,4.4005,4.4005,4.4005,4.4005,4.4005,4.3875,4.3819,3.7983,4.0213,4.1696,3.9819,4.1324,4.2824,4.1143,4.0027,3.9342,3.9304,3.9304,3.9785,4.1393,4.2143,4.3508,4.6567,4.8125,4.9625,5.1587,5.1856,5.2183,5.3087,5.378,5.4103,5.3923,5.449,5.448,5.3541,5.2697,5.1733,5.059,4.9086,4.8277,4.8282,4.6915,4.6704,4.7712,4.6923,4.7097,4.8187,4.8506,4.7488,4.5357,4.6148,4.5584,4.4116,4.6234,4.6903,4.6624,4.824,4.8909,4.8872,4.8426,4.8519,4.8909,4.8909,4.9132,4.9447,4.9447,4.9206,4.8891,4.8856,4.9082,4.9418,4.9676,5.0062,5.065,5.175,5.1507,5.1009,5.1355,5.1797,5.1948,5.1098,5.1542,5.2151,5.2151,5.1856,5.1842,5.2657,5.2295,5.1949,5.2207,5.1397,5.0713,5.0749,5.0044,4.984,5.0785,5.0841,5.1156,5.2048,5.1695,5.1584,5.2011,5.1286,5.0413,4.9522,4.876,4.7813,4.6643,4.6178,4.5565,4.4711,4.4246,4.4005,4.4005,4.4005,4.4005,4.4005,4.4005,4.4005,3.6604,3.8629,4.0438,4.05,4.2786,4.4816,4.4143,4.2643,4.1324,4.1123,4.092,4.0958,4.1574,4.2951,4.524,4.9086,5.0414,5.1183,5.1789,5.1866,5.2337,5.3626,5.3626,5.378,5.4434,5.4318,5.3645,5.2288,5.126,5.0402,4.9712,4.8222,4.7504,4.7688,4.6465,4.6007,4.6391,4.5663,4.57,4.6514,4.7052,4.6188,4.4147,4.5416,4.5273,4.4116,4.6259,4.6836,4.6308,4.7553,4.8277,4.8537,4.7738,4.8036,4.8909,4.8909,4.8909,4.8909,4.8909,4.8909,4.8909,4.8909,4.9266,4.9787,5.0028,5.0563,5.1282,5.2183,5.2397,5.2298,5.2093,5.2667,5.3077,5.2222,5.2688,5.3359,5.3359,5.3212,5.3158,5.3424,5.345,5.3269,5.2787,5.2141,5.1676,5.1676,5.0952,5.0878,5.2159,5.1955,5.2159,5.3385,5.2587,5.2141,5.2568,5.2048,5.0971,4.9299,4.9187,4.8742,4.7738,4.7107,4.6308,4.5324,4.4822,4.4395,4.4005,4.4191,4.4191,4.4005,4.4005,4.4005,3.7348,3.9114,4.0491,4.05,4.1893,4.3874,4.6105,4.5278,4.447,4.6028,4.5701,4.5171,4.5229,4.599,4.7509,5.0173,5.1298,5.2645,5.5011,5.5338,5.5376,5.5511,5.4857,5.4434,5.4491,5.378,5.3241,5.3126,5.1606,5.0991,5.1653,4.9133,4.8044,4.8842,4.7288,4.6429,4.6391,4.5851,4.5486,4.532,4.5131,4.4794,4.4374,4.4505,4.4348,4.4076,4.5238,4.5604,4.5398,4.5509,4.6438,4.7701,4.6903,4.7534,4.8909,4.8909,4.8909,4.8909,4.8909,4.8909,4.8909,4.8909,4.8894,4.9157,5.0657,5.11,5.1412,5.2982,5.3387,5.3182,5.2307,5.2692,5.3097,5.2287,5.281,5.3499,5.3499,5.2908,5.2613,5.3351,5.3007,5.2807,5.3491,5.2994,5.2512,5.2512,5.1825,5.1361,5.1472,5.2085,5.2568,5.2679,5.3255,5.3348,5.2661,5.2549,5.1806,5.0135,5.0023,4.9317,4.7757,4.7646,4.6884,4.5324,4.5974,4.5547,4.4005,4.4804,4.4785,4.4005,4.4005,4.4005,3.6113,3.8339,4.0499,4.05,4.1816,4.3624,4.5624,4.6009,4.6105,4.675,4.7048,4.7009,4.6509,4.7086,4.8317,5.0366,5.1375,5.2596,5.4664,5.403,5.3549,5.4087,5.3395,5.2472,5.1433,5.1972,5.1519,4.9452,4.9663,4.9567,4.8827,4.8101,4.7693,4.7683,4.6929,4.6306,4.5908,4.5704,4.5371,4.4962,4.4837,4.4559,4.4185,4.4894,4.505,4.4857,4.5941,4.599,4.5287,4.5287,4.5658,4.6271,4.6977,4.7924,4.8909,4.8909,4.8909,4.8909,4.8909,4.8909,4.8909,4.8909,4.9597,5.0416,5.0454,5.1509,5.2729,5.2803,5.3133,5.3425,5.3053,5.3199,5.3346,5.3033,5.3239,5.3519,5.3616,5.3395,5.3267,5.3622,5.3495,5.3403,5.3718,5.3106,5.2772,5.3274,5.2661,5.2327,5.2828,5.3162,5.3348,5.3348,5.3627,5.3683,5.3367,5.3348,5.2865,5.1732,5.0692,4.9596,4.85,4.798,4.7404,4.6791,4.6605,4.6197,4.5565,4.5881,4.5881,4.5547,4.5547,4.5547,3.5342,3.7471,3.9784,4.0046,4.1623,4.3682,4.5893,4.6855,4.7586,4.8682,4.8471,4.7932,4.7394,4.7528,4.8279,5.001,5.1202,5.2404,5.3876,5.3068,5.2519,5.3126,5.2222,5.1068,4.9913,5.0356,4.975,4.7442,4.8105,4.8221,4.7336,4.7395,4.7289,4.6904,4.6724,4.6302,4.5614,4.5594,4.5332,4.4788,4.4891,4.465,4.4155,4.5313,4.5735,4.5589,4.6332,4.619,4.5388,4.5037,4.509,4.5556,4.7197,4.8212,4.88,4.8982,4.9061,4.9044,4.8943,4.8909,4.8909,4.8909,4.9689,5.0581,5.0472,5.1621,5.2956,5.2881,5.3213,5.358,5.358,5.3579,5.3559,5.3559,5.3579,5.3619,5.3696,5.3734,5.3735,5.3793,5.3813,5.3813,5.3813,5.3348,5.3181,5.372,5.333,5.3181,5.3738,5.3813,5.3813,5.3813,5.3813,5.3813,5.3813,5.3813,5.346,5.2661,5.1286,5.0153,4.9317,4.876,4.8221,4.7701,4.7404,4.7014,4.6494,4.6754,4.6754,4.6494,4.6494,4.6494,3.5405,3.669,3.8219,3.9111,4.1219,4.3989,4.7336,4.8105,4.9067,5.2491,5.0491,4.8125,4.8125,4.7471,4.7471,4.9125,5.0798,5.2173,5.3068,5.3164,5.3164,5.3164,5.1683,5.0673,5.0654,4.9106,4.8086,4.8086,4.7355,4.7259,4.8048,4.7336,4.6904,4.6904,4.6904,4.649,4.5614,4.5594,4.5332,4.48,4.5074,4.4919,4.4435,4.559,4.6114,4.6114,4.6133,4.598,4.5622,4.4475,4.4651,4.5791,4.7462,4.8258,4.858,4.9183,4.9399,4.9352,4.901,4.8909,4.8909,4.8909,4.8909,4.9224,5.0878,5.1398,5.1732,5.3348,5.3794,5.3813,5.3813,5.3754,5.3714,5.3714,5.3754,5.3813,5.3813,5.3813,5.3813,5.3813,5.3794,5.3794,5.3794,5.3813,5.3794,5.3794,5.3794,5.3813,5.3813,5.3794,5.3794,5.3794,5.3794,5.3813,5.3794,5.3794,5.346,5.268,5.1881,5.1026,5.0153,5.0098,4.9336,4.7738,4.85,4.811,4.6513,4.733,4.7311,4.6513,4.6513,4.6513,3.6469,3.7593,3.9258,4.07,4.2508,4.4662,4.7471,4.8105,4.8894,5.1712,5.1029,4.9933,4.9933,4.9221,4.8817,4.9317,4.9817,5.0644,5.2077,5.1279,5.0529,5.0529,4.9548,4.8413,4.723,4.7702,4.7605,4.6432,4.7201,4.7605,4.7269,4.7567,4.749,4.6923,4.6904,4.649,4.5614,4.5419,4.5232,4.5074,4.4973,4.4739,4.4467,4.6346,4.7108,4.698,4.7593,4.7359,4.6482,4.5569,4.5719,4.6632,4.7687,4.8521,4.913,4.9064,4.9044,4.9027,4.8925,4.8909,4.8909,4.8909,4.928,4.9837,5.0339,5.1305,5.2345,5.2828,5.3367,5.3813,5.3813,5.3793,5.3774,5.3774,5.3754,5.3735,5.3793,5.3813,5.3813,5.3813,5.4,5.4142,5.4142,5.4366,5.4495,5.4495,5.4495,5.4413,5.4177,5.4142,5.4142,5.4142,5.4142,5.4246,5.4479,5.4495,5.4398,5.4153,5.3927,5.2682,5.0208,4.978,4.9274,4.8556,4.9196,4.9084,4.8184,4.8658,4.8658,4.8184,4.8184,4.8184,3.7593,3.8723,4.0265,4.2297,4.4316,4.6297,4.8182,4.9125,5.0135,5.2019,5.1221,5.0289,5.0635,4.9702,4.899,4.9336,4.9683,5.0144,5.0818,5.0048,4.926,4.8913,4.8144,4.724,4.6201,4.6721,4.6682,4.5691,4.6528,4.6894,4.6413,4.6836,4.6874,4.6394,4.6374,4.6088,4.5457,4.4958,4.4662,4.4516,4.4501,4.4379,4.4272,4.6178,4.7029,4.7015,4.7647,4.733,4.6373,4.6124,4.6044,4.6166,4.7206,4.806,4.8668,4.8262,4.8389,4.8693,4.8137,4.8166,4.8426,4.8426,4.8964,4.9689,5.0005,5.1045,5.2197,5.2512,5.3181,5.3813,5.3813,5.3813,5.3813,5.3813,5.3774,5.3754,5.3793,5.3889,5.4,5.4,5.4281,5.4495,5.4495,5.467,5.4791,5.4791,5.4791,5.4845,5.4959,5.47,5.4608,5.4945,5.4684,5.4576,5.4776,5.4791,5.4791,5.4791,5.4503,5.3316,5.108,5.0691,5.0142,4.9283,4.9603,4.9622,4.9249,4.945,4.9469,4.9249,4.9141,4.8907,3.8642,3.9823,4.1054,4.3835,4.6451,4.8548,4.9336,5.0702,5.2019,5.2818,5.1241,4.9933,5.0577,4.9413,4.8548,4.9183,4.9952,5.0192,4.9394,4.9279,4.8952,4.8086,4.7355,4.6865,4.6797,4.6067,4.5594,4.5594,4.5594,4.5594,4.5594,4.5594,4.5594,4.5594,4.5594,4.5438,4.5097,4.4362,4.3808,4.3429,4.3819,4.396,4.3989,4.5449,4.6323,4.6652,4.686,4.6496,4.5875,4.6442,4.6071,4.5256,4.652,4.7311,4.7666,4.7085,4.7528,4.8229,4.7018,4.7088,4.7701,4.7794,4.8351,4.915,4.9893,5.0766,5.1658,5.2401,5.3181,5.3813,5.3813,5.3813,5.3851,5.3851,5.3813,5.3813,5.3832,5.4089,5.4315,5.433,5.4623,5.4836,5.4836,5.4866,5.4899,5.499,5.5009,5.5279,5.6061,5.5458,5.523,5.5966,5.5325,5.4851,5.488,5.488,5.488,5.488,5.4192,5.3409,5.2555,5.2318,5.1475,4.9822,4.9857,4.9857,4.9803,4.9811,4.9811,4.9784,4.9558,4.8995,3.8977,3.9438,4.065,4.5201,4.8259,5.0183,5.0385,5.0702,5.101,5.1202,5.1856,5.2049,5.0923,5.0385,4.974,4.8567,4.8548,4.8586,4.8413,4.8375,4.8086,4.7259,4.7,4.6624,4.5951,4.571,4.5594,4.5594,4.5594,4.5594,4.5594,4.5594,4.5594,4.5594,4.5594,4.5159,4.4276,4.4027,4.3576,4.2886,4.3595,4.402,4.4266,4.574,4.6896,4.774,4.7367,4.7348,4.759,4.7999,4.8005,4.7782,4.7838,4.7908,4.7905,4.6953,4.6731,4.7002,4.7324,4.7553,4.7794,4.8444,4.9187,4.9875,5.006,5.1156,5.2382,5.2549,5.3181,5.3813,5.3813,5.4,5.4194,5.4194,5.4,5.387,5.4143,5.4246,5.438,5.4639,5.4952,5.5191,5.5191,5.5357,5.575,5.6421,5.6537,5.6733,5.7349,5.666,5.6189,5.636,5.5668,5.5269,5.5497,5.5508,5.5508,5.5508,5.5347,5.4887,5.4062,5.2516,5.1085,4.9817,5.0268,5.0268,4.9803,5.0006,5.0012,4.9803,4.9735,4.9613,3.9419,4.0766,4.2816,4.7548,4.9721,5.0596,5.0164,5.0067,4.9952,4.9529,5.0471,5.0991,4.9683,4.9452,4.9163,4.8259,4.8105,4.7971,4.7586,4.7528,4.7221,4.6374,4.6278,4.6105,4.5633,4.5594,4.5594,4.5594,4.5594,4.5594,4.5594,4.5594,4.5421,4.4998,4.4979,4.4459,4.3396,4.2928,4.2478,4.2087,4.2796,4.3572,4.4383,4.5278,4.6133,4.6899,4.7047,4.7411,4.7964,4.8687,4.8583,4.7977,4.7924,4.7757,4.7395,4.6307,4.6254,4.6682,4.6578,4.7051,4.7776,4.8184,4.8872,4.9575,4.9728,5.0936,5.2295,5.2428,5.3343,5.4281,5.4281,5.4397,5.4544,5.4544,5.4397,5.4332,5.4495,5.467,5.4836,5.5014,5.5282,5.5485,5.5485,5.5953,5.6483,5.6926,5.7368,5.7851,5.8526,5.7517,5.6904,5.7313,5.6252,5.5551,5.5692,5.5703,5.5703,5.5703,5.5703,5.5338,5.453,5.35,5.2457,5.1448,5.1743,5.1743,5.1429,5.1143,5.1162,5.1398,5.0443,5.0012,3.9419,4.2247,4.5413,4.9125,5.0269,5.025,4.9375,4.9183,4.8933,4.8076,4.8567,4.8913,4.8048,4.7894,4.7836,4.7682,4.7663,4.7432,4.6778,4.6682,4.6413,4.5691,4.5594,4.5594,4.5594,4.546,4.5383,4.5383,4.5383,4.5383,4.5383,4.5518,4.5267,4.4547,4.4509,4.4017,4.2937,4.2116,4.16,4.1418,4.1912,4.2791,4.3998,4.4411,4.4971,4.5641,4.6412,4.7154,4.7914,4.898,4.8719,4.7662,4.7687,4.7343,4.6701,4.5677,4.5774,4.6308,4.5714,4.6413,4.7616,4.7897,4.858,4.9295,4.9434,5.0748,5.2184,5.2285,5.3518,5.4791,5.4791,5.4836,5.488,5.488,5.4924,5.4952,5.4895,5.5111,5.5314,5.5364,5.5551,5.5703,5.5703,5.6426,5.706,5.7214,5.7953,5.88,5.9627,5.8377,5.7646,5.8242,5.7011,5.603,5.5722,5.5838,5.5857,5.5703,5.5703,5.5395,5.4722,5.4703,5.4376,5.3645,5.3356,5.3203,5.3203,5.2481,5.25,5.3154,5.1494,5.0753,3.7853,4.1797,4.5748,4.7086,4.8509,4.9356,4.8471,4.8279,4.8038,4.7227,4.771,4.8029,4.7212,4.7058,4.6817,4.6056,4.5941,4.5902,4.5787,4.5768,4.5729,4.5614,4.5594,4.5594,4.5594,4.4921,4.447,4.447,4.447,4.447,4.447,4.519,4.5556,4.5441,4.5441,4.4909,4.3837,4.3184,4.2417,4.1495,4.1504,4.1808,4.2339,4.3321,4.4424,4.5618,4.5965,4.6979,4.8452,4.9118,4.928,4.9036,4.8056,4.7233,4.6448,4.56,4.491,4.4569,4.5879,4.6629,4.7252,4.8715,4.9875,5.0605,4.9943,5.1415,5.3156,5.2494,5.3518,5.4791,5.4791,5.5028,5.5217,5.5217,5.5413,5.552,5.5269,5.5275,5.5364,5.5607,5.5682,5.5703,5.5703,5.6426,5.7272,5.8011,5.8819,5.9646,6.0512,5.9762,5.8934,5.8357,5.8088,5.7338,5.5818,5.6387,5.6503,5.5742,5.5703,5.5645,5.553,5.553,5.5491,5.5376,5.3933,5.3203,5.3203,5.3087,5.3087,5.3203,5.2922,5.2796,3.9411,4.1758,4.4028,4.6336,4.7451,4.7894,4.7517,4.743,4.7188,4.6392,4.6508,4.6645,4.6298,4.6221,4.6097,4.5714,4.5648,4.564,4.5614,4.5594,4.5421,4.494,4.4874,4.4874,4.4874,4.4124,4.3816,4.4259,4.3874,4.3624,4.3624,4.3989,4.397,4.3489,4.347,4.3013,4.2052,4.1783,4.1519,4.1276,4.1257,4.1469,4.1956,4.2124,4.2759,4.3857,4.5855,4.6948,4.7426,4.8823,4.9399,4.9331,4.8636,4.7887,4.707,4.6271,4.6011,4.6081,4.6013,4.7005,4.8375,4.8781,4.9547,5.0285,5.0082,5.1466,5.3066,5.2874,5.4019,5.5301,5.5301,5.5406,5.5508,5.5508,5.5618,5.5662,5.5562,5.5508,5.5562,5.5692,5.5703,5.5703,5.5703,5.6819,5.7857,5.8242,5.9396,6.0358,6.0742,6.0031,5.9358,5.9011,5.8127,5.7453,5.7184,5.7049,5.7041,5.7146,5.6703,5.6426,5.6426,5.5953,5.5703,5.5703,5.4972,5.4607,5.4607,5.3664,5.3683,5.4568,5.3145,5.2991,3.975,4.0989,4.2027,4.4374,4.5787,4.6478,4.6042,4.6271,4.6431,4.5851,4.5723,4.5723,4.5739,4.5704,4.5692,4.5706,4.5709,4.5684,4.5631,4.5622,4.5364,4.4701,4.4432,4.4393,4.4605,4.3508,4.3104,4.3932,4.3239,4.2777,4.2777,4.2989,4.2797,4.2162,4.2143,4.1816,4.117,4.0872,4.0711,4.0681,4.0749,4.0948,4.1285,4.1219,4.1339,4.1832,4.4978,4.6271,4.6338,4.8209,4.9102,4.9257,4.8993,4.8407,4.7608,4.6791,4.6766,4.7029,4.5967,4.7076,4.8928,4.8698,4.9265,5.0081,5.026,5.1534,5.2939,5.3142,5.4414,5.5703,5.5703,5.5703,5.5703,5.5703,5.5703,5.5703,5.5703,5.5703,5.5703,5.5703,5.5876,5.603,5.603,5.7453,5.8607,5.8607,5.9858,6.08,6.08,6.0031,5.9492,5.9492,5.8377,5.7819,5.8261,5.7896,5.7819,5.828,5.7684,5.7319,5.7319,5.6492,5.603,5.603,5.5799,5.5703,5.5703,5.4434,5.4472,5.5645,5.376,5.3568,3.6712,3.8738,4.0439,3.9842,4.276,4.5327,4.367,4.4569,4.5773,4.5792,4.5781,4.5795,4.5793,4.5742,4.5708,4.57,4.5706,4.5701,4.5701,4.564,4.5575,4.5537,4.4797,4.4624,4.546,4.3316,4.2239,4.3104,4.2354,4.1865,4.1865,4.2643,4.3085,4.3028,4.3028,4.3008,4.297,4.1894,4.0771,3.9583,3.9792,3.977,3.9658,4.0855,4.0861,4.0063,4.2605,4.4436,4.5749,4.7178,4.8255,4.8907,4.8909,4.8407,4.7608,4.6791,4.6162,4.5706,4.5627,4.6555,4.7918,4.872,4.9748,5.0663,5.0673,5.1846,5.3182,5.3192,5.4414,5.5703,5.5703,5.5703,5.5703,5.5703,5.5703,5.5703,5.5703,5.5703,5.5703,5.5703,5.6368,5.6926,5.6926,5.8319,5.9435,5.9435,6.0223,6.08,6.08,6.0031,5.9492,5.9492,5.9415,5.9088,5.8357,5.8954,5.9069,5.8357,5.8261,5.8223,5.8223,5.7396,5.6926,5.6926,5.6107,5.5703,5.5703,5.5607,5.5607,5.5703,5.5549,5.5549,3.6481,3.7373,3.8265,3.9095,4.0889,4.2414,4.2401,4.3716,4.4954,4.5017,4.5025,4.5032,4.5019,4.5431,4.5757,4.5773,4.575,4.5746,4.5709,4.5684,4.5436,4.4844,4.4028,4.3643,4.397,4.2162,4.1335,4.22,4.145,4.0969,4.0969,4.1258,4.1439,4.1439,4.1439,4.1363,4.1252,4.0835,4.0256,3.9495,3.9705,3.9754,3.9705,4.0337,4.0338,3.9873,4.1329,4.2762,4.4247,4.6698,4.7571,4.746,4.85,4.8407,4.7698,4.7572,4.7394,4.7112,4.643,4.7212,4.8528,4.8457,4.9471,5.0712,5.0712,5.1471,5.2481,5.3049,5.4049,5.5049,5.5568,5.5703,5.5703,5.5703,5.5703,5.5703,5.5703,5.5703,5.5703,5.5703,5.6406,5.7003,5.7003,5.8396,5.9492,5.9492,6.0242,6.08,6.08,6.0531,6.0319,6.0319,5.9838,5.9608,5.9877,5.9665,5.9627,5.9896,5.9377,5.9069,5.9069,5.7742,5.7003,5.7003,5.6126,5.5703,5.5703,5.5184,5.5203,5.5684,5.5164,5.5203,3.6154,3.6481,3.6969,3.8132,3.9316,4.0354,4.0982,4.2439,4.3754,4.4091,4.4149,4.4246,4.4555,4.4794,4.5058,4.5346,4.5382,4.543,4.5676,4.569,4.5453,4.4806,4.3778,4.3201,4.347,4.1689,4.0854,4.1731,4.0989,4.0496,4.0496,4.0496,4.0381,4.0112,4.0362,4.023,3.9662,3.9929,3.9878,3.9495,3.9705,3.984,3.9943,4.0195,4.0177,3.9989,4.0748,4.1857,4.3245,4.5515,4.669,4.7119,4.7923,4.8303,4.8372,4.7968,4.7891,4.784,4.6839,4.7452,4.8637,4.8231,4.9279,5.0712,5.0712,5.126,5.2019,5.2596,5.3606,5.4626,5.5164,5.5491,5.5703,5.5703,5.5703,5.5703,5.5703,5.5703,5.578,5.6069,5.6838,5.7511,5.778,5.9011,5.9935,5.9935,6.0435,6.08,6.08,6.0531,6.0473,6.0762,6.0012,5.9858,6.0723,6.0262,6.0185,6.0762,6.0262,5.9935,5.9935,5.8588,5.7838,5.7838,5.6722,5.6137,5.6126,5.5299,5.5184,5.5684,5.5145,5.503,0.0,0.0,0.0,3.6661,3.7987,3.9321,3.9321,4.0668,4.2164,4.3047,4.3221,4.3492,4.4362,4.3801,4.3511,4.4381,4.4508,4.4781,4.5553,4.5648,4.5646,4.5575,4.4085,4.3374,4.4143,4.1978,4.0854,4.17,4.0969,4.0496,4.0496,4.0496,4.0131,3.9323,4.0054,3.9844,3.8574,3.9361,3.9668,3.9477,3.9698,3.9953,4.0214,4.0417,4.0381,4.0234,4.0805,4.1732,4.2846,4.3667,4.5599,4.7965,4.7218,4.8098,4.9557,4.7978,4.7552,4.7635,4.6846,4.7279,4.8144,4.8144,4.9298,5.0712,5.0712,5.1241,5.1865,5.1885,5.3145,5.4472,5.4511,5.5126,5.5722,5.5703,5.5742,5.5761,5.5742,5.5761,5.6011,5.6849,5.7723,5.8588,5.9377,6.0223,6.08,6.08,6.08,6.08,6.08,6.0069,5.9858,6.0704,6.0031,5.9877,6.0723,6.08,6.08,6.08,6.08,6.08,6.08,5.9954,5.9492,5.9492,5.7877,5.7041,5.7041,5.6126,5.5703,5.5703,5.5703,5.528,3.55,0.0,0.0,0.0,0.0,0.0,3.752,3.8872,4.034,4.1189,4.1396,4.1699,4.2568,4.2008,4.1699,4.2588,4.3761,4.4617,4.4743,4.4805,4.4792,4.468,4.3181,4.2258,4.247,4.1277,4.0593,4.0835,4.065,4.0496,4.0496,4.0496,4.0131,3.9323,3.9515,3.9001,3.7675,3.8641,3.8978,3.8643,3.9625,4.0129,4.0214,4.0417,4.0381,4.0196,4.0169,4.1025,4.253,4.3779,4.5223,4.6743,4.7681,4.8429,4.8971,4.9276,4.9086,4.8632,4.8603,4.8798,4.9048,4.9048,4.9779,5.0712,5.0712,5.0866,5.1144,5.1731,5.2692,5.3837,5.5049,5.5992,5.6483,5.5838,5.6665,5.7415,5.6791,5.7146,5.7473,5.708,5.8165,5.9242,5.9454,6.0223,6.08,6.08,6.08,6.08,6.08,6.0589,6.0531,6.0762,6.0569,6.0531,6.0781,6.08,6.08,6.08,6.08,6.08,6.08,5.9954,5.9492,5.9492,5.8473,5.7934,5.7934,5.6434,5.5703,5.5703,5.5703,5.5568,0.0,0.0,0.0,3.5495,0.0,0.0,3.6267,3.7315,3.855,3.9379,3.9586,3.9889,4.0757,4.0197,3.9908,4.0777,4.2361,4.368,4.4307,4.475,4.4823,4.4363,4.3143,4.22,4.1827,4.1008,4.0496,4.0496,4.0496,4.0496,4.0496,4.0496,4.0131,3.9323,3.9304,3.8657,3.7315,3.8032,3.8584,3.8958,3.9441,4.007,4.0858,4.0603,4.0381,4.0196,4.0042,4.0714,4.2034,4.3208,4.4704,4.6366,4.7293,4.8184,4.9007,4.9639,4.9567,4.9194,4.9356,4.9394,4.9394,4.9394,4.999,5.0712,5.0712,5.0712,5.0808,5.1279,5.2279,5.3587,5.5261,5.6349,5.6868,5.6368,5.73,5.8165,5.7646,5.8204,5.8646,5.8127,5.8838,5.9627,5.9973,6.0454,6.08,6.08,6.08,6.08,6.08,6.08,6.08,6.08,6.08,6.08,6.08,6.08,6.08,6.08,6.08,6.08,6.08,6.03,6.0031,6.0031,5.9223,5.8646,5.83,5.728,5.6588,5.6233,5.5857,5.5703,0.0,0.0,0.0,3.5231,3.5418,0.0,3.5406,3.6106,3.7013,3.7784,3.7938,3.8215,3.9083,3.8697,3.8466,3.9141,4.0742,4.2444,4.4025,4.493,4.5106,4.4267,4.3355,4.2508,4.1739,4.095,4.0496,4.0496,4.0496,4.0496,4.0496,4.0496,4.0123,3.9273,3.9254,3.8574,3.7151,3.7595,3.8433,3.9631,3.9347,4.0083,4.1643,4.095,4.0485,4.0233,4.0214,4.073,4.1648,4.2393,4.4162,4.6419,4.6592,4.7778,4.9413,4.951,4.9529,4.9529,4.9433,4.9452,4.9529,4.9433,4.999,5.0712,5.0712,5.0712,5.075,5.0943,5.2125,5.3703,5.528,5.6426,5.7118,5.7022,5.78,5.855,5.8454,5.9069,5.9646,5.9646,5.9646,5.9896,6.0666,6.08,6.08,6.08,6.08,6.08,6.08,6.08,6.08,6.08,6.08,6.08,6.08,6.08,6.08,6.08,6.08,6.08,6.08,6.08,6.08,6.08,6.0031,5.93,5.8588,5.83,5.7761,5.6983,5.6118,5.5703,0.0,0.0,0.0,3.3583,3.4956,0.0,3.4751,3.5663,3.6832,3.6958,3.7011,3.732,3.8181,3.8733,3.8907,3.8432,4.0352,4.2241,4.3208,4.3497,4.3538,4.3363,4.195,4.0939,4.0766,4.0593,4.0496,4.0496,4.0496,4.0496,4.0496,4.0496,4.003,3.9007,3.8988,3.8042,3.6114,3.7794,3.8404,3.7915,4.0163,4.1072,4.0766,4.1296,4.1146,4.0441,4.0269,4.1176,4.2757,4.2718,4.3925,4.5906,4.7261,4.8462,4.949,5.0192,5.0462,5.0346,4.9644,4.9856,5.0327,4.9625,4.999,5.0712,5.0712,5.0712,5.0981,5.2337,5.3453,5.4472,5.5453,5.6876,5.7877,5.7176,5.8704,6.0127,5.9415,5.9935,6.055,6.055,6.055,6.0589,6.0762,6.08,6.08,6.08,6.08,6.08,6.08,6.08,6.08,6.08,6.08,6.08,6.08,6.08,6.08,6.08,6.08,6.08,6.08,6.08,6.08,6.08,6.0627,6.0473,6.03,5.8242,5.7176,5.6983,5.6118,5.5703,3.4064,3.4205,3.3994,3.3122,3.4199,0.0,0.0,3.5213,3.6252,3.6622,3.6399,3.6412,3.7247,3.7401,3.7555,3.7986,3.9121,4.0539,4.2213,4.2829,4.2783,4.192,4.1412,4.0816,3.9977,4.0265,4.0496,4.0496,4.0496,4.0496,4.0496,4.0496,4.0205,3.9574,3.9126,3.8147,3.6562,3.7709,3.8259,3.8223,4.0211,4.1143,4.1162,4.1456,4.1144,4.0339,4.0251,4.0987,4.2294,4.2725,4.37,4.5163,4.7278,4.8375,4.8913,5.0231,5.0423,4.999,4.9548,4.9394,4.9394,4.9394,4.9702,5.0125,5.0577,5.0971,5.1645,5.3376,5.4164,5.4684,5.5491,5.6992,5.8184,5.7742,5.9261,6.0685,6.0242,6.0492,6.08,6.08,6.08,6.08,6.08,6.08,6.08,6.08,6.08,6.08,6.08,6.08,6.08,6.08,6.08,6.08,6.08,6.08,6.08,6.08,6.08,6.08,6.08,6.08,6.08,6.08,6.08,6.08,6.08,5.9069,5.803,5.7627,5.6742,5.6107,3.384,3.3949,3.3744,3.2872,3.3564,3.4353,0.0,0.0,0.0,3.6327,3.5827,3.55,3.6327,3.5942,3.5885,3.7084,3.7815,3.8796,4.0365,4.1623,4.197,4.0881,4.0931,4.0662,3.9631,4.0112,4.0496,4.0496,4.0496,4.0496,4.0496,4.0496,4.0381,4.0139,3.9433,3.8641,3.7726,3.8137,3.8727,3.9496,4.0674,4.1431,4.1808,4.1759,4.1197,4.026,4.026,4.0815,4.18,4.2719,4.3662,4.4778,4.7163,4.8105,4.8317,5.0048,5.0144,4.9375,4.9202,4.8798,4.8432,4.8971,4.9375,4.9837,5.0856,5.1645,5.2481,5.4068,5.4607,5.4914,5.5742,5.7126,5.8338,5.8492,5.9685,6.08,6.08,6.08,6.08,6.08,6.08,6.08,6.08,6.08,6.08,6.08,6.08,6.08,6.08,6.08,6.08,6.08,6.08,6.08,6.08,6.08,6.08,6.08,6.08,6.08,6.08,6.08,6.08,6.08,6.08,6.08,6.08,6.0089,5.9338,5.8511,5.7646,5.6857,3.2634,3.3038,3.2852,3.2045,3.3615,3.4942,3.3391,0.0,3.5538,3.5615,0.0,3.4603,3.5481,0.0,0.0,3.4725,3.7168,3.845,3.6481,3.8257,4.02,4.1508,3.9758,3.8931,4.0246,4.0458,4.0496,4.0496,4.0496,4.0496,4.0496,4.0496,4.0302,3.9851,3.9745,3.9542,3.9255,4.0223,4.0886,4.1236,4.3017,4.3143,4.1827,4.256,4.2003,4.0465,4.0465,4.1388,4.2926,4.3058,4.4028,4.5633,4.7413,4.8105,4.8317,5.0048,5.0144,4.9298,4.8529,4.8682,4.9144,4.8471,4.9298,5.0846,5.2433,5.2991,5.326,5.4222,5.5011,5.5761,5.6637,5.7569,5.8492,5.9184,6.0108,6.08,6.08,6.08,6.08,6.08,6.08,6.08,6.08,6.08,6.08,6.08,6.08,6.08,6.08,6.08,6.08,6.08,6.08,6.08,6.08,6.08,6.08,6.08,6.08,6.08,6.08,6.08,6.08,6.08,6.08,6.08,6.08,6.0704,6.0204,5.9338,5.8531,5.8107,3.2645,3.2871,3.282,3.2475,3.359,3.4545,3.3814,3.4603,3.5635,3.6096,0.0,0.0,0.0,0.0,0.0,0.0,3.6161,3.7065,3.6969,3.7026,3.7526,3.8692,3.8334,3.8469,3.9688,3.9804,3.9996,4.0458,4.0073,3.9804,3.9804,3.9804,3.9585,3.9126,4.0052,4.0265,3.9683,4.1098,4.1764,4.1696,4.3301,4.3187,4.1596,4.2316,4.1791,4.0321,4.0321,4.1091,4.2374,4.2893,4.3797,4.5047,4.7259,4.8105,4.8317,5.0048,5.0144,4.9279,4.8394,4.8336,4.8759,4.9394,5.076,5.2375,5.3587,5.3953,5.4126,5.4953,5.5434,5.5895,5.6772,5.7646,5.8396,5.8723,5.9838,6.0666,6.0146,6.0435,6.08,6.08,6.08,6.08,6.08,6.08,6.08,6.08,6.08,6.08,6.08,6.08,6.08,6.08,6.08,6.08,6.08,6.1262,6.155,6.155,6.155,6.132,6.0819,6.08,6.08,6.08,6.08,6.08,6.08,6.08,6.0608,6.0223,5.9396,5.8742,3.2668,3.2837,3.2941,3.3171,3.3691,3.4179,3.4166,3.4859,3.564,3.625,3.5411,0.0,0.0,0.0,0.0,0.0,0.0,3.6096,3.6853,3.6315,3.6135,3.6962,3.7834,3.8604,3.9246,3.9304,3.9438,3.9785,3.9227,3.8777,3.8604,3.893,3.8963,3.8612,4.0155,4.0848,4.0509,4.1939,4.272,4.2846,4.38,4.3386,4.1762,4.2218,4.1601,4.0205,4.026,4.0854,4.1865,4.2739,4.3566,4.4547,4.7105,4.8105,4.8317,5.0048,5.0144,4.9317,4.8682,4.8471,4.8779,5.0741,5.2049,5.3087,5.4434,5.4664,5.4664,5.5472,5.5703,5.5953,5.708,5.7838,5.8415,5.8877,5.9915,6.0627,5.9992,6.0339,6.08,6.08,6.08,6.08,6.08,6.08,6.08,6.08,6.08,6.08,6.08,6.08,6.08,6.08,6.08,6.08,6.08,6.1601,6.2101,6.2101,6.2312,6.1935,6.0839,6.1031,6.1031,6.08,6.08,6.08,6.08,6.08,6.08,6.0781,6.0146,5.9531,3.234,3.2802,3.3015,3.3846,3.4076,3.411,3.4107,3.4779,3.5439,3.5512,3.55,3.5462,3.5481,0.0,0.0,0.0,0.0,0.0,0.0,3.568,3.6981,3.7853,3.8719,3.9265,3.9304,3.9304,3.895,3.8142,3.7868,3.7469,3.682,3.7955,3.8616,3.8601,3.9962,4.1229,4.2314,4.3137,4.4209,4.547,4.5256,4.4275,4.2651,4.2678,4.1781,4.0214,4.0417,4.0989,4.1865,4.2739,4.3566,4.4547,4.7105,4.8105,4.8317,5.0048,5.0144,4.9394,4.9375,4.9356,4.976,5.2299,5.2577,5.2404,5.4914,5.5126,5.4664,5.5472,5.5703,5.6088,5.7819,5.828,5.8704,6.0319,6.0762,6.0781,6.0762,6.0781,6.08,6.08,6.08,6.08,6.08,6.08,6.08,6.08,6.08,6.08,6.08,6.08,6.08,6.08,6.08,6.08,6.08,6.1601,6.2101,6.2101,6.2839,6.2531,6.0858,6.162,6.1658,6.0819,6.08,6.08,6.08,6.08,6.08,6.08,6.0762,6.0742,3.2416,3.3161,3.3669,3.3968,3.4469,3.474,3.4225,3.5184,3.6055,3.5535,3.5427,3.5261,3.4731,0.0,0.0,0.0,0.0,0.0,0.0,3.5538,3.6423,3.7834,3.7757,3.7584,3.7584,3.7584,3.7469,3.7161,3.6944,3.6575,3.5935,3.7079,3.775,3.7728,3.9668,4.1255,4.239,4.3732,4.4808,4.5586,4.5159,4.4087,4.2512,4.2468,4.183,4.0819,4.121,4.1854,4.272,4.3547,4.4047,4.4547,4.7105,4.8105,4.8317,5.0048,5.0519,5.0337,5.0875,5.1038,5.1395,5.3414,5.4222,5.4587,5.5434,5.5511,5.5472,5.6329,5.656,5.6953,5.8646,5.9088,5.9242,5.98,6.0377,6.0646,6.0069,6.0396,6.08,6.08,6.08,6.08,6.08,6.08,6.08,6.08,6.08,6.08,6.08,6.08,6.1012,6.1601,6.1658,6.1658,6.1658,6.2416,6.2897,6.2897,6.3685,6.3647,6.2512,6.2224,6.1966,6.1678,6.1089,6.08,6.08,6.08,6.08,6.08,6.08,6.08,3.2394,3.3104,3.3681,3.4286,3.4845,3.5136,3.4641,3.5607,3.6362,3.5571,3.5655,3.5612,3.4808,3.4417,0.0,0.0,0.0,0.0,0.0,3.5308,3.5904,3.6988,3.6865,3.6942,3.7565,3.7058,3.6442,3.5853,3.6113,3.5919,3.5089,3.634,3.7287,3.7747,3.9301,4.0867,4.239,4.3713,4.4744,4.5448,4.5019,4.4063,4.2685,4.2411,4.1859,4.1138,4.1596,4.2124,4.272,4.3835,4.447,4.497,4.724,4.8298,4.874,5.0164,5.05,5.0356,5.1183,5.1471,5.1818,5.3837,5.4857,5.5318,5.5607,5.5703,5.5818,5.6387,5.6772,5.733,5.8704,5.93,5.9588,5.9896,6.0396,6.0646,6.0089,6.0396,6.08,6.08,6.08,6.08,6.08,6.08,6.08,6.08,6.08,6.08,6.08,6.1069,6.1485,6.2043,6.2101,6.2216,6.2493,6.3301,6.3762,6.3762,6.4589,6.4532,6.3346,6.3108,6.2839,6.2531,6.1685,6.1262,6.1262,6.0954,6.08,6.08,6.08,6.08]}]]